[[{"header":{"parameterUnit":"m.s-1","parameterCategory":1,"la1":30.6,"la2":28.766,"lo1":-90.7593,"lo2":-88.6598,"dy":0.0162,"dx":0.0183,"nx":116,"ny":114,"refTime":"2023-05-24T12:00:00:Z","depth":0,"parameterNumber":2,"parameterNumberName":"U-component_of_WINDS"},"data":[0.0,0.0,0.0,0.0,0.0,0.0,0.0,0.0,0.0,0.0,0.0,0.0,0.0,0.0,0.0,0.0,0.0,0.0,0.0,0.0,0.0,0.0,0.0,0.0,0.0,0.0,0.0,0.0,0.0,0.0,0.0,0.0,0.0,0.0,0.0,0.0,0.0,0.0,0.0,0.0,0.0,0.0,0.0,0.0,0.0,0.0,0.0,0.0,0.0,0.0,0.0,0.0,0.0,0.0,0.0,0.0,0.0,0.0,0.0,0.0,0.0,0.0,0.0,0.0,0.0,0.0,0.0,0.0,0.0,0.0,0.0,0.0,0.0,0.0,0.0,0.0,0.0,0.0,0.0,0.0,0.0,0.0,0.0,0.0,0.0,0.0,0.0,0.0,0.0,0.0,0.0,0.0,0.0,0.0,0.0,0.0,0.0,0.0,0.0,0.0,0.0,0.0,0.0,0.0,0.0,0.0,0.0,0.0,0.0,0.0,0.0,0.0,0.0,0.0,0.0,0.0,0.0,0.0,0.0,0.0,0.0,0.0,0.0,0.0,0.0,0.0,0.0,0.0,0.0,0.0,0.0,0.0,0.0,0.0,0.0,0.0,0.0,0.0,0.0,0.0,0.0,0.0,0.0,0.0,0.0,0.0,0.0,0.0,0.0,0.0,0.0,0.0,0.0,0.0,0.0,0.0,0.0,0.0,0.0,0.0,0.0,0.0,0.0,0.0,0.0,0.0,0.0,0.0,0.0,0.0,0.0,0.0,0.0,0.0,0.0,0.0,0.0,0.0,0.0,0.0,0.0,0.0,0.0,0.0,0.0,0.0,0.0,0.0,0.0,0.0,0.0,0.0,0.0,0.0,0.0,0.0,0.0,0.0,0.0,0.0,0.0,0.0,0.0,0.0,0.0,0.0,0.0,0.0,0.0,0.0,0.0,0.0,0.0,0.0,0.0,0.0,0.0,0.0,0.0,0.0,0.0,0.0,0.0,0.0,0.0,0.0,0.0,0.0,0.0,0.0,0.0,0.0,0.0,0.0,0.0,0.0,0.0,0.0,0.0,0.0,0.0,0.0,0.0,0.0,0.0,0.0,0.0,0.0,0.0,0.0,0.0,0.0,0.0,0.0,0.0,0.0,0.0,0.0,0.0,0.0,0.0,0.0,0.0,0.0,0.0,0.0,0.0,0.0,0.0,0.0,0.0,0.0,0.0,0.0,0.0,0.0,0.0,0.0,0.0,0.0,0.0,0.0,0.0,0.0,0.0,0.0,0.0,0.0,0.0,0.0,0.0,0.0,0.0,0.0,0.0,0.0,0.0,0.0,0.0,0.0,0.0,0.0,0.0,0.0,0.0,0.0,0.0,0.0,0.0,0.0,0.0,0.0,0.0,0.0,0.0,0.0,0.0,0.0,0.0,0.0,0.0,0.0,0.0,0.0,0.0,0.0,0.0,0.0,0.0,0.0,0.0,0.0,0.0,0.0,0.0,0.0,0.0,0.0,0.0,0.0,0.0,0.0,0.0,0.0,0.0,0.0,0.0,0.0,0.0,0.0,0.0,0.0,0.0,0.0,0.0,0.0,0.0,0.0,0.0,0.0,0.0,0.0,0.0,0.0,0.0,0.0,0.0,0.0,0.0,0.0,0.0,0.0,0.0,0.0,0.0,0.0,0.0,0.0,0.0,0.0,0.0,0.0,0.0,0.0,0.0,0.0,0.0,0.0,0.0,0.0,0.0,0.0,0.0,0.0,0.0,0.0,0.0,0.0,0.0,0.0,0.0,0.0,0.0,0.0,0.0,0.0,0.0,0.0,0.0,0.0,0.0,0.0,0.0,0.0,0.0,0.0,0.0,0.0,0.0,0.0,0.0,0.0,0.0,0.0,0.0,0.0,0.0,0.0,0.0,0.0,0.0,0.0,0.0,0.0,0.0,0.0,0.0,0.0,0.0,0.0,0.0,0.0,0.0,0.0,0.0,0.0,0.0,0.0,0.0,0.0,0.0,0.0,0.0,0.0,0.0,0.0,0.0,0.0,0.0,0.0,0.0,0.0,0.0,0.0,0.0,0.0,0.0,0.0,0.0,0.0,0.0,0.0,0.0,0.0,0.0,0.0,0.0,0.0,0.0,0.0,0.0,0.0,0.0,0.0,0.0,0.0,0.0,0.0,0.0,0.0,0.0,0.0,0.0,0.0,0.0,0.0,0.0,0.0,0.0,0.0,0.0,0.0,0.0,0.0,0.0,0.0,0.0,0.0,0.0,0.0,0.0,0.0,0.0,0.0,0.0,0.0,0.0,0.0,0.0,0.0,0.0,0.0,0.0,0.0,0.0,0.0,0.0,0.0,0.0,0.0,0.0,0.0,0.0,0.0,0.0,0.0,0.0,0.0,0.0,0.0,0.0,0.0,0.0,0.0,0.0,0.0,0.0,0.0,0.0,0.0,0.0,0.0,0.0,0.0,0.0,0.0,0.0,0.0,0.0,0.0,0.0,0.0,0.0,0.0,0.0,0.0,0.0,0.0,0.0,0.0,0.0,0.0,0.0,0.0,0.0,0.0,0.0,0.0,0.0,0.0,0.0,0.0,0.0,0.0,0.0,0.0,0.0,0.0,0.0,0.0,0.0,0.0,0.0,0.0,0.0,0.0,0.0,0.0,0.0,0.0,0.0,0.0,0.0,0.0,0.0,0.0,0.0,0.0,0.0,0.0,0.0,0.0,0.0,0.0,0.0,0.0,0.0,0.0,0.0,0.0,0.0,0.0,0.0,0.0,0.0,0.0,0.0,0.0,0.0,0.0,0.0,0.0,0.0,0.0,0.0,0.0,0.0,0.0,0.0,0.0,0.0,0.0,0.0,0.0,0.0,0.0,0.0,0.0,0.0,0.0,0.0,0.0,0.0,0.0,0.0,0.0,0.0,0.0,0.0,0.0,0.0,0.0,0.0,0.0,0.0,0.0,0.0,0.0,0.0,0.0,0.0,0.0,0.0,0.0,0.0,0.0,0.0,0.0,0.0,0.0,0.0,0.0,0.0,0.0,0.0,0.0,0.0,0.0,0.0,0.0,0.0,0.0,0.0,0.0,0.0,0.0,0.0,0.0,0.0,0.0,0.0,0.0,0.0,0.0,0.0,0.0,0.0,0.0,0.0,0.0,0.0,0.0,0.0,0.0,0.0,0.0,0.0,0.0,0.0,0.0,0.0,0.0,0.0,0.0,0.0,0.0,0.0,0.0,0.0,0.0,0.0,0.0,0.0,0.0,0.0,0.0,0.0,0.0,0.0,0.0,0.0,0.0,0.0,0.0,0.0,0.0,0.0,0.0,0.0,0.0,0.0,0.0,0.0,0.0,0.0,0.0,0.0,0.0,0.0,0.0,0.0,0.0,0.0,0.0,0.0,0.0,0.0,0.0,0.0,0.0,0.0,0.0,0.0,0.0,0.0,0.0,0.0,0.0,0.0,0.0,0.0,0.0,0.0,0.0,0.0,0.0,0.0,0.0,0.0,0.0,0.0,0.0,0.0,0.0,0.0,0.0,0.0,0.0,0.0,0.0,0.0,0.0,0.0,0.0,0.0,0.0,0.0,0.0,0.0,0.0,0.0,0.0,0.0,0.0,0.0,0.0,0.0,0.0,0.0,0.0,0.0,0.0,0.0,0.0,0.0,0.0,0.0,0.0,0.0,0.0,0.0,0.0,0.0,0.0,0.0,0.0,0.0,0.0,0.0,0.0,0.0,0.0,0.0,0.0,0.0,0.0,0.0,0.0,0.0,0.0,0.0,0.0,0.0,0.0,0.0,0.0,0.0,0.0,0.0,0.0,0.0,0.0,0.0,0.0,0.0,0.0,0.0,0.0,0.0,0.0,0.0,0.0,0.0,0.0,0.0,0.0,0.0,0.0,0.0,0.0,0.0,0.0,0.0,0.0,0.0,0.0,0.0,0.0,0.0,0.0,0.0,0.0,0.0,0.0,0.0,0.0,0.0,0.0,0.0,0.0,0.0,0.0,0.0,0.0,0.0,0.0,0.0,0.0,0.0,0.0,0.0,0.0,0.0,0.0,0.0,0.0,0.0,0.0,0.0,0.0,0.0,0.0,0.0,0.0,0.0,0.0,0.0,0.0,0.0,0.0,0.0,0.0,0.0,0.0,0.0,0.0,0.0,0.0,0.0,0.0,0.0,0.0,0.0,0.0,0.0,0.0,0.0,0.0,0.0,0.0,0.0,0.0,0.0,0.0,0.0,0.0,0.0,0.0,0.0,0.0,0.0,0.0,0.0,0.0,0.0,0.0,0.0,0.0,0.0,0.0,0.0,0.0,0.0,0.0,0.0,0.0,0.0,0.0,0.0,0.0,0.0,0.0,0.0,0.0,0.0,0.0,0.0,0.0,0.0,0.0,0.0,0.0,0.0,0.0,0.0,0.0,0.0,0.0,0.0,0.0,0.0,0.0,0.0,0.0,0.0,0.0,0.0,0.0,0.0,0.0,0.0,0.0,0.0,0.0,0.0,0.0,0.0,0.0,0.0,0.0,0.0,0.0,0.0,0.0,0.0,0.0,0.0,0.0,0.0,0.0,0.0,0.0,0.0,0.0,0.0,0.0,0.0,0.0,0.0,0.0,0.0,0.0,0.0,0.0,0.0,0.0,0.0,0.0,0.0,0.0,0.0,0.0,0.0,0.0,0.0,0.0,0.0,0.0,0.0,0.0,0.0,0.0,0.0,0.0,0.0,0.0,0.0,0.0,0.0,0.0,0.0,0.0,0.0,0.0,0.0,0.0,0.0,0.0,0.0,0.0,0.0,0.0,0.0,0.0,0.0,0.0,0.0,0.0,0.0,0.0,0.0,0.0,0.0,0.0,0.0,0.0,0.0,0.0,0.0,0.0,0.0,0.0,0.0,0.0,0.0,0.0,0.0,0.0,0.0,0.0,0.0,0.0,0.0,0.0,0.0,0.0,0.0,0.0,0.0,0.0,0.0,0.0,0.0,0.0,0.0,0.0,0.0,0.0,0.0,0.0,0.0,0.0,0.0,0.0,0.0,0.0,0.0,0.0,0.0,0.0,0.0,0.0,0.0,0.0,0.0,0.0,0.0,0.0,0.0,0.0,0.0,0.0,0.0,0.0,0.0,0.0,0.0,0.0,0.0,0.0,0.0,0.0,0.0,0.0,0.0,0.0,0.0,0.0,0.0,0.0,0.0,0.0,0.0,0.0,0.0,0.0,0.0,0.0,0.0,0.0,0.0,0.0,0.0,0.0,0.0,0.0,0.0,0.0,0.0,0.0,0.0,0.0,0.0,0.0,0.0,0.0,0.0,0.0,0.0,0.0,0.0,0.0,0.0,0.0,0.0,0.0,0.0,0.0,0.0,0.0,0.0,0.0,0.0,0.0,0.0,0.0,0.0,0.0,0.0,0.0,0.0,0.0,0.0,0.0,0.0,0.0,0.0,0.0,0.0,0.0,0.0,0.0,0.0,0.0,0.0,0.0,0.0,0.0,0.0,0.0,0.0,0.0,0.0,0.0,0.0,0.0,0.0,0.0,0.0,0.0,0.0,0.0,0.0,0.0,0.0,0.0,0.0,0.0,0.0,0.0,0.0,0.0,0.0,0.0,0.0,0.0,0.0,0.0,0.0,0.0,0.0,0.0,0.0,0.0,0.0,0.0,0.0,0.0,0.0,0.0,0.0,0.0,0.0,0.0,0.0,0.0,0.0,0.0,0.0,0.0,0.0,0.0,0.0,0.0,0.0,0.0,0.0,0.0,0.0,0.0,0.0,0.0,0.0,0.0,0.0,0.0,0.0,0.0,0.0,0.0,0.0,0.0,0.0,0.0,0.0,0.0,0.0,0.0,0.0,0.0,0.0,0.0,0.0,0.0,0.0,0.0,0.0,0.0,0.0,0.0,0.0,0.0,0.0,0.0,0.0,0.0,0.0,0.0,0.0,0.0,0.0,0.0,0.0,0.0,0.0,0.0,0.0,0.0,0.0,0.0,0.0,0.0,0.0,0.0,0.0,0.0,0.0,0.0,0.0,0.0,0.0,0.0,0.0,0.0,0.0,0.0,0.0,0.0,0.0,0.0,0.0,0.0,0.0,0.0,0.0,0.0,0.0,0.0,0.0,0.0,-2.0527,0.0,0.0,0.0,0.0,0.0,0.0,0.0,0.0,0.0,0.0,0.0,0.0,0.0,0.0,0.0,0.0,0.0,0.0,0.0,0.0,0.0,0.0,0.0,0.0,0.0,0.0,0.0,0.0,0.0,0.0,0.0,0.0,0.0,0.0,0.0,0.0,0.0,0.0,0.0,0.0,0.0,0.0,0.0,0.0,0.0,0.0,0.0,0.0,0.0,0.0,0.0,0.0,0.0,0.0,0.0,0.0,0.0,0.0,0.0,0.0,0.0,0.0,0.0,0.0,0.0,0.0,0.0,0.0,0.0,0.0,0.0,0.0,0.0,0.0,0.0,0.0,0.0,0.0,0.0,0.0,0.0,0.0,0.0,0.0,0.0,0.0,0.0,0.0,0.0,0.0,0.0,0.0,0.0,0.0,0.0,0.0,0.0,0.0,0.0,0.0,0.0,0.0,0.0,0.0,0.0,0.0,0.0,0.0,0.0,0.0,0.0,0.0,0.0,0.0,0.0,0.0,-2.112,0.0,0.0,0.0,0.0,0.0,0.0,0.0,0.0,0.0,0.0,0.0,0.0,0.0,0.0,0.0,0.0,0.0,0.0,0.0,0.0,0.0,0.0,0.0,0.0,0.0,0.0,0.0,0.0,0.0,0.0,0.0,0.0,0.0,0.0,0.0,0.0,0.0,0.0,0.0,0.0,0.0,0.0,0.0,0.0,0.0,0.0,0.0,0.0,0.0,0.0,0.0,0.0,0.0,0.0,0.0,0.0,0.0,0.0,0.0,0.0,0.0,0.0,0.0,0.0,0.0,0.0,0.0,0.0,0.0,0.0,0.0,0.0,0.0,0.0,0.0,0.0,0.0,0.0,0.0,0.0,0.0,0.0,0.0,0.0,0.0,0.0,0.0,0.0,0.0,0.0,0.0,0.0,0.0,0.0,0.0,0.0,0.0,0.0,0.0,0.0,0.0,0.0,0.0,0.0,0.0,0.0,0.0,0.0,-2.3751,-2.3948,-2.4245,-2.418,-2.4231,-2.4385,-2.3628,-2.319,-2.2989,-2.2484,0.0,0.0,0.0,0.0,0.0,0.0,0.0,0.0,0.0,0.0,0.0,0.0,0.0,0.0,0.0,0.0,0.0,0.0,0.0,0.0,0.0,0.0,0.0,0.0,0.0,0.0,0.0,0.0,0.0,0.0,0.0,0.0,0.0,0.0,0.0,0.0,0.0,0.0,-2.498,-2.5411,-2.5525,-2.5345,-2.5392,0.0,0.0,0.0,0.0,0.0,0.0,0.0,0.0,0.0,0.0,0.0,0.0,0.0,0.0,0.0,0.0,0.0,0.0,0.0,0.0,0.0,0.0,0.0,0.0,0.0,0.0,0.0,0.0,0.0,0.0,0.0,0.0,0.0,0.0,0.0,0.0,0.0,0.0,0.0,0.0,0.0,0.0,0.0,-2.2748,-2.2748,0.0,0.0,0.0,0.0,0.0,0.0,0.0,0.0,0.0,0.0,0.0,0.0,0.0,-2.4696,-2.4696,-2.5213,-2.564,-2.5881,-2.5694,-2.587,-2.6361,-2.6107,-2.6122,-2.6414,-2.6294,0.0,-2.3434,-2.3344,0.0,0.0,0.0,0.0,0.0,0.0,0.0,0.0,0.0,0.0,0.0,0.0,0.0,0.0,0.0,0.0,0.0,0.0,0.0,0.0,0.0,0.0,0.0,0.0,0.0,0.0,0.0,0.0,0.0,0.0,0.0,0.0,0.0,0.0,0.0,0.0,-2.5217,-2.6111,-2.6411,-2.6609,-2.6707,-2.6707,-2.6707,-2.6303,-2.5615,-2.5615,0.0,0.0,0.0,0.0,0.0,0.0,0.0,0.0,0.0,0.0,0.0,0.0,0.0,0.0,0.0,0.0,0.0,0.0,0.0,0.0,0.0,0.0,0.0,0.0,0.0,0.0,0.0,0.0,0.0,0.0,0.0,0.0,0.0,0.0,0.0,0.0,0.0,0.0,0.0,-2.3193,-2.3409,-2.3654,-2.3602,-2.3637,0.0,0.0,0.0,0.0,0.0,0.0,0.0,0.0,0.0,-2.5117,-2.5345,-2.55,-2.55,-2.6104,-2.6565,-2.684,-2.71,-2.7494,-2.7988,-2.781,-2.7864,-2.8111,-2.8111,-2.7544,-2.6576,-2.5345,-2.4571,-2.4191,0.0,0.0,0.0,0.0,-2.3415,-2.3358,0.0,0.0,0.0,0.0,0.0,0.0,0.0,0.0,0.0,0.0,0.0,0.0,0.0,0.0,0.0,-2.1736,0.0,0.0,0.0,0.0,0.0,0.0,0.0,0.0,0.0,0.0,0.0,-2.5408,-2.646,-2.7152,-2.7625,-2.7625,-2.7625,-2.7625,-2.7625,-2.7036,-2.6108,-2.6108,-2.6108,0.0,0.0,0.0,0.0,0.0,0.0,0.0,0.0,0.0,0.0,0.0,0.0,0.0,0.0,0.0,0.0,0.0,0.0,0.0,0.0,0.0,0.0,0.0,0.0,0.0,0.0,0.0,0.0,0.0,0.0,0.0,0.0,0.0,0.0,0.0,0.0,0.0,0.0,-2.4146,-2.4413,-2.4759,-2.4657,-2.4737,0.0,0.0,0.0,0.0,0.0,0.0,-2.6242,-2.6507,-2.6647,-2.6647,-2.6647,-2.6647,-2.6647,-2.7102,-2.7441,-2.7734,-2.8209,-2.8595,-2.8931,-2.8931,-2.8987,-2.9098,-2.9098,-2.9098,-2.8969,-2.7403,-2.6633,-2.644,-2.5966,-2.5797,-2.5684,-2.5239,-2.5123,-2.5297,0.0,0.0,0.0,0.0,0.0,0.0,0.0,0.0,0.0,0.0,0.0,0.0,0.0,0.0,-2.3404,-2.3303,-2.3152,-2.3033,0.0,0.0,0.0,0.0,0.0,0.0,0.0,0.0,0.0,-2.6611,-2.724,-2.7575,-2.7625,-2.7625,-2.7625,-2.7625,-2.7625,-2.758,-2.752,-2.752,-2.752,-2.741,0.0,0.0,0.0,0.0,0.0,0.0,0.0,0.0,0.0,0.0,0.0,0.0,0.0,0.0,0.0,0.0,0.0,0.0,0.0,0.0,0.0,0.0,0.0,0.0,0.0,0.0,0.0,0.0,0.0,0.0,0.0,0.0,0.0,0.0,0.0,0.0,0.0,0.0,0.0,-2.5795,-2.5809,0.0,0.0,0.0,0.0,-2.5893,-2.6718,-2.7226,-2.7226,-2.8078,-2.8579,-2.8579,-2.8579,-2.8579,-2.8579,-2.8706,-2.8817,-2.8817,-2.8972,-2.9042,-2.9098,-2.9098,-2.9098,-2.9098,-2.9098,-2.9098,-2.9098,-2.8969,-2.8577,-2.8068,-2.8068,-2.7711,-2.7187,-2.7096,-2.7228,-2.7404,0.0,0.0,0.0,0.0,0.0,0.0,0.0,0.0,0.0,0.0,0.0,0.0,0.0,-2.4399,-2.4729,-2.379,-2.4867,-2.5334,-2.4743,0.0,0.0,0.0,0.0,0.0,0.0,0.0,-2.6924,-2.8047,-2.8255,-2.8583,-2.9004,-2.9094,-2.9146,-2.9146,-2.9146,-2.9146,-2.9085,-2.8036,-2.7625,-2.7545,-2.717,-2.6373,0.0,0.0,0.0,0.0,0.0,0.0,0.0,0.0,0.0,0.0,0.0,0.0,0.0,0.0,0.0,0.0,0.0,0.0,0.0,0.0,0.0,0.0,0.0,0.0,0.0,0.0,0.0,0.0,0.0,0.0,0.0,0.0,0.0,0.0,0.0,0.0,0.0,-2.6136,-2.6326,0.0,-2.7006,-2.7049,-2.7221,-2.7679,-2.8035,-2.8338,-2.8756,-2.9102,-2.9479,-2.9885,-3.0003,-3.0046,-3.0046,-3.0661,-3.094,-3.094,-3.1397,-3.1663,-3.1812,-3.1812,-3.1857,-3.1901,-3.1901,-3.1901,-3.1901,-3.1901,-3.0717,-2.8791,-2.8791,-2.8439,-2.7982,-2.753,-2.7235,-2.6936,0.0,0.0,0.0,0.0,0.0,0.0,0.0,0.0,0.0,0.0,0.0,-2.4151,-2.3966,-2.5149,-2.5606,-2.4729,-2.6001,-2.6596,-2.6038,0.0,0.0,0.0,0.0,0.0,0.0,-2.7305,-2.7853,-2.9117,-2.9154,-2.938,-2.9818,-2.9963,-3.0,-3.0,-3.0,-3.0,-2.9955,-2.8852,-2.8439,-2.8387,-2.8336,-2.76,-2.6432,0.0,0.0,0.0,0.0,0.0,0.0,0.0,0.0,0.0,0.0,0.0,0.0,0.0,0.0,0.0,0.0,0.0,0.0,0.0,0.0,0.0,0.0,0.0,0.0,0.0,0.0,0.0,0.0,0.0,0.0,0.0,0.0,0.0,0.0,0.0,-2.6874,-2.7075,-2.7295,-2.7592,-2.8013,-2.8245,-2.855,-2.8971,-2.945,-2.9944,-3.0308,-3.0585,-3.0951,-3.1375,-3.1716,-3.1894,-3.1894,-3.2741,-3.3143,-3.3143,-3.3636,-3.3906,-3.4062,-3.4062,-3.4062,-3.4173,-3.4173,-3.4173,-3.4158,-3.3918,-3.2676,-3.0893,-3.0671,-3.0236,-2.9648,-2.9031,-2.8711,-2.8526,0.0,0.0,0.0,0.0,0.0,0.0,0.0,0.0,0.0,0.0,-2.4641,-2.5564,-2.5825,-2.5936,-2.6009,-2.6197,-2.6499,-2.6729,-2.6841,-2.6885,0.0,0.0,0.0,0.0,-2.894,-2.8442,-2.8717,-2.9848,-2.9993,-3.0008,-2.9879,-3.0023,-3.0076,-3.0061,-3.0061,-3.0061,-3.0061,-3.0061,-3.0061,-3.0061,-2.9887,-2.9024,-2.7827,0.0,0.0,0.0,0.0,0.0,0.0,0.0,0.0,0.0,0.0,0.0,0.0,0.0,0.0,0.0,0.0,0.0,0.0,0.0,0.0,0.0,0.0,0.0,0.0,0.0,0.0,0.0,0.0,0.0,0.0,0.0,0.0,0.0,-2.6933,-2.7338,-2.7998,-2.8637,-2.871,-2.8724,-2.8768,-2.9319,-2.9697,-2.974,-3.1068,-3.186,-3.1904,-3.2662,-3.3125,-3.314,-3.379,-3.413,-3.413,-3.4866,-3.5294,-3.5294,-3.5484,-3.5564,-3.5564,-3.5564,-3.5564,-3.5564,-3.5564,-3.5564,-3.5504,-3.4846,-3.4562,-3.4502,-3.3784,-3.3037,-3.2263,-3.1664,-3.1795,-3.2198,0.0,0.0,0.0,0.0,0.0,0.0,0.0,0.0,0.0,0.0,-2.4475,-2.4986,-2.4982,-2.6282,-2.7053,-2.6669,-2.7483,-2.788,-2.7682,0.0,0.0,0.0,0.0,0.0,-2.9144,-2.9379,-2.9902,-3.0815,-3.076,-3.1004,-3.153,-3.1586,-3.1625,-3.1735,-3.1735,-3.1735,-3.1735,-3.1735,-3.1735,-3.1643,-3.0303,-2.9361,-2.8609,0.0,0.0,0.0,0.0,0.0,0.0,0.0,0.0,0.0,0.0,0.0,0.0,0.0,0.0,0.0,0.0,0.0,0.0,0.0,0.0,0.0,0.0,0.0,0.0,0.0,0.0,0.0,0.0,0.0,0.0,0.0,0.0,-2.7106,-2.7481,-2.8053,-2.8652,-2.929,-2.9363,-2.9726,-3.064,-3.1023,-3.1579,-3.2499,-3.3098,-3.3794,-3.4817,-3.5038,-3.54,-3.5843,-3.6185,-3.6289,-3.6289,-3.6656,-3.6798,-3.6798,-3.6881,-3.6881,-3.6881,-3.6881,-3.6881,-3.6881,-3.6881,-3.6881,-3.6866,-3.6686,-3.6596,-3.6402,-3.4307,-3.2771,-3.1664,-3.1453,-3.0867,-3.0144,0.0,0.0,0.0,0.0,0.0,0.0,0.0,0.0,0.0,0.0,-2.4998,-2.5481,-2.5687,-2.6898,-2.7582,-2.7349,-2.7893,-2.822,-2.8103,0.0,0.0,0.0,0.0,-2.9404,-3.0109,-3.044,-3.0922,-3.161,-3.161,-3.1824,-3.2191,-3.2247,-3.2342,-3.2398,-3.2398,-3.2398,-3.2398,-3.2398,-3.2398,-3.2321,-3.1226,-3.0413,-2.9744,-2.941,-2.867,-2.7636,-2.6762,-2.5928,-2.5149,-2.4126,0.0,0.0,0.0,0.0,0.0,0.0,0.0,0.0,0.0,0.0,0.0,0.0,0.0,0.0,0.0,0.0,0.0,0.0,0.0,0.0,0.0,0.0,0.0,0.0,-2.7503,-2.8353,-2.858,-2.9095,-2.9813,-3.0727,-3.0904,-3.1358,-3.2349,-3.2825,-3.3539,-3.4582,-3.5104,-3.5659,-3.6443,-3.6541,-3.6773,-3.7129,-3.7481,-3.7699,-3.7699,-3.8038,-3.8257,-3.8257,-3.8257,-3.8257,-3.8257,-3.8257,-3.8257,-3.8257,-3.8257,-3.8257,-3.8227,-3.7943,-3.7823,0.0,0.0,0.0,0.0,0.0,-3.1685,-3.0786,0.0,0.0,0.0,0.0,0.0,0.0,0.0,0.0,0.0,0.0,0.0,-2.6497,-2.7105,-2.748,-2.7798,-2.8008,-2.8005,-2.8054,0.0,0.0,0.0,-2.9381,-2.9434,-3.0063,-3.1351,-3.1459,-3.1743,-3.2247,-3.2342,-3.2342,-3.2247,-3.2342,-3.2398,-3.2398,-3.2398,-3.2398,-3.2398,-3.2398,-3.2398,-3.2398,-3.2287,-3.1784,-3.1101,-3.0485,-2.942,-2.805,-2.745,-2.6729,-2.6015,-2.5218,0.0,0.0,0.0,0.0,0.0,0.0,0.0,0.0,0.0,0.0,0.0,0.0,0.0,0.0,0.0,0.0,0.0,0.0,0.0,0.0,0.0,0.0,0.0,0.0,-2.9182,-3.0318,-2.9955,-3.0475,-3.13,-3.2521,-3.2859,-3.3279,-3.4017,-3.4751,-3.5503,-3.6182,-3.6951,-3.7377,-3.7451,0.0,0.0,0.0,0.0,-3.8497,-3.8497,-3.911,-3.9424,-3.9424,-3.9424,-3.9424,-3.9424,-3.9424,-3.9424,-3.9424,-3.9424,-3.9424,-3.9364,-3.8751,-3.8497,-3.8281,-3.6676,-3.5682,-3.5022,-3.4044,-3.3301,-3.2843,0.0,0.0,0.0,0.0,0.0,0.0,0.0,0.0,0.0,-2.5099,-2.5821,-2.6456,-2.6965,-2.7765,-2.8194,-2.8186,-2.8137,-2.8186,0.0,0.0,-2.9223,-2.9412,-3.0428,-3.112,-3.1382,-3.1921,-3.2275,-3.2342,-3.2302,-3.2302,-3.2342,-3.2302,-3.2302,-3.2398,-3.2398,-3.2398,-3.2398,-3.2398,-3.2398,-3.2398,-3.2398,-3.221,-3.1952,-3.1728,-3.1369,-3.0774,-2.9142,-2.8376,-2.7898,-2.6192,-2.5623,-2.5484,-2.4796,0.0,0.0,0.0,0.0,0.0,0.0,0.0,0.0,0.0,0.0,0.0,0.0,0.0,0.0,0.0,0.0,0.0,0.0,0.0,0.0,-2.7816,-2.8976,-3.025,-3.1133,-3.1787,-3.2568,-3.3411,-3.4022,-3.4852,-3.6119,-3.6438,-3.6862,-3.7723,-3.8012,-3.8381,-3.8934,-3.9035,-3.9035,-3.9035,-3.9155,-3.923,-3.923,-3.9349,-3.9424,-3.9424,0.0,0.0,-3.9424,-3.9424,-3.9424,-3.9424,-3.9424,-3.9424,-3.9409,-3.9275,-3.8882,-3.8194,-3.6111,-3.5243,-3.4948,-3.3675,-3.3066,-3.3001,0.0,0.0,0.0,0.0,0.0,0.0,0.0,0.0,0.0,0.0,-2.5978,-2.6626,-2.7411,-2.8028,-2.8348,-2.8299,-2.8299,0.0,0.0,-2.9177,-2.9704,-3.0366,-3.1028,-3.1551,-3.1874,-3.2213,-3.2398,-3.2398,-3.2342,-3.2342,-3.2398,-3.2342,-3.2342,-3.2398,-3.2398,-3.2398,-3.2398,-3.2398,-3.2398,-3.2398,-3.2398,-3.2342,-3.2287,-3.2247,-3.1853,-3.1218,-3.0013,-2.9191,-2.856,-2.7267,-2.6738,-2.6609,-2.6258,-2.5922,-2.564,0.0,0.0,0.0,0.0,0.0,0.0,0.0,0.0,0.0,0.0,0.0,0.0,0.0,0.0,-2.7237,0.0,0.0,-2.8017,-2.8228,-2.962,-3.0817,-3.1106,-3.2556,-3.3952,-3.4668,-3.5049,-3.593,-3.739,-3.7649,-3.7987,-3.8728,-3.8844,-3.905,-3.9394,-3.9424,-3.9424,-3.9424,-3.9424,-3.9424,-3.9424,-3.9424,-3.9424,-3.9424,-3.9424,-3.9424,-3.9424,-3.9424,-3.9424,-3.9424,-3.9424,-3.9481,-3.9553,-3.925,-3.8929,-3.8384,-3.6476,-3.5704,-3.5565,-3.4498,-3.4033,-3.4113,0.0,0.0,0.0,0.0,0.0,0.0,0.0,0.0,0.0,0.0,-2.6339,-2.6963,-2.798,-2.8248,-2.8411,0.0,0.0,0.0,0.0,-2.9535,-3.0135,-3.1336,-3.1505,-3.1844,-3.2382,-3.2398,-3.2398,-3.2398,-3.2398,-3.2398,-3.2398,-3.2521,-3.2582,-3.2598,-3.2736,-3.2798,-3.2798,-3.2798,-3.2798,-3.2798,-3.2798,-3.2721,-3.2582,-3.2582,-3.2042,-3.116,-3.0585,-2.9813,-2.8917,-2.8222,-2.7776,-2.7523,-2.7523,-2.721,-2.6844,-2.6844,-2.6517,0.0,0.0,0.0,0.0,0.0,0.0,0.0,0.0,0.0,-2.7496,-2.7546,-2.7504,-2.7673,-2.8118,-2.8254,-2.8511,-2.9078,-3.0524,-3.1585,-3.1278,-3.3091,-3.4796,-3.5596,-3.5939,-3.6621,-3.8028,-3.8374,-3.8755,-3.9379,-3.9424,-3.9424,-3.9424,-3.9424,-3.9424,-3.9424,-3.9424,-3.9484,-3.9604,-3.9604,-3.9604,-3.9604,-3.9604,-3.9601,-3.9481,-3.9496,-3.9496,-3.9496,-3.9496,-3.9625,-3.9696,-3.9235,-3.8929,-3.8708,-3.7232,-3.6531,-3.6294,-3.5467,-3.5154,-3.5154,0.0,0.0,0.0,0.0,0.0,0.0,0.0,0.0,0.0,0.0,0.0,0.0,0.0,0.0,0.0,0.0,0.0,0.0,-2.9366,-2.9981,-3.0628,-3.1351,-3.1967,-3.2321,-3.2398,-3.2398,-3.2398,-3.2398,-3.2398,-3.2398,-3.2398,-3.3013,-3.329,-3.3321,-3.3952,-3.4245,-3.4245,-3.4245,-3.4245,-3.4245,-3.4245,-3.386,-3.329,-3.329,-3.2752,-3.2007,-3.1304,-3.0466,-2.958,-2.8917,-2.8157,-2.7523,-2.7523,-2.7484,-2.7432,-2.7432,0.0,-2.7353,-2.7419,-2.7432,-2.7445,-2.751,-2.7523,-2.7523,0.0,0.0,-2.768,-2.8177,-2.8281,-2.8464,-2.9078,-2.9529,-3.0051,-3.0624,-3.1326,-3.211,-3.3143,-3.3566,-3.4206,-3.5557,-3.6324,-3.7154,-3.8103,-3.8694,-3.9103,-3.9409,-3.9424,-3.9424,-3.9424,-3.9424,-3.9424,-3.9424,-3.9424,-3.9709,-4.0292,-4.0292,-4.0292,-4.0292,-4.0497,-4.0254,-3.9696,-3.9854,-3.9925,-3.9925,-3.9925,-3.994,-3.9925,-3.9925,-3.9553,-3.8958,-3.8098,-3.7337,-3.6702,-3.571,-3.5399,-3.5399,0.0,0.0,0.0,0.0,0.0,0.0,0.0,0.0,0.0,0.0,0.0,0.0,0.0,0.0,0.0,0.0,0.0,0.0,-2.9935,-3.0222,-3.0889,-3.1921,-3.2244,-3.2398,-3.2398,-3.2398,-3.2398,-3.2398,-3.2398,-3.2398,-3.2398,-3.309,-3.3398,-3.3429,-3.4152,-3.4475,-3.4475,-3.4475,-3.4475,-3.4475,-3.4475,-3.4306,-3.4029,-3.4029,-3.3368,-3.2355,-3.2033,-3.116,0.0,0.0,-2.8766,-2.7656,-2.7656,-2.759,-2.7523,-2.7523,-2.7523,0.0,-2.7523,-2.7523,-2.7523,0.0,-2.7523,-2.7615,-2.7941,-2.802,-2.819,-2.8778,-2.8895,-2.9183,-3.0098,-3.0464,-3.0921,0.0,-3.2476,-3.3025,-3.3522,-3.3862,-3.4301,-3.4841,-3.5691,-3.6732,-3.8098,-3.8427,-3.8811,-3.9337,-3.9424,-3.9589,-3.9963,-3.9993,-4.0172,-4.0546,-4.0561,-4.0696,-4.0965,-4.0965,-4.0965,-4.0965,-4.104,-4.1039,-4.0842,-4.0915,-4.0864,-4.0557,-4.0304,-4.0137,-4.0137,-3.9737,-3.919,-3.8442,-3.763,-3.6858,-3.6177,-3.571,-3.5562,-3.5562,0.0,0.0,0.0,0.0,0.0,0.0,0.0,0.0,0.0,0.0,0.0,0.0,0.0,0.0,0.0,0.0,0.0,0.0,0.0,-3.0582,-3.1197,-3.2336,-3.2398,-3.2398,-3.2398,-3.2398,-3.2398,-3.2398,-3.2398,-3.249,-3.269,-3.3383,-3.3798,-3.3998,-3.4706,-3.5029,-3.5029,-3.5029,-3.5029,-3.5029,-3.5029,-3.4922,-3.4752,-3.4752,-3.4071,-3.3049,-3.2796,-3.1659,0.0,0.0,-2.9586,-2.8372,-2.8146,-2.7973,-2.7812,-2.7575,-2.7523,-2.7523,-2.7523,-2.7523,-2.7562,-2.7732,-2.7771,-2.7915,-2.849,-2.8634,-2.8791,-2.9392,-2.964,-3.0045,-3.1039,-3.1352,-3.1784,-3.2777,-3.33,-3.3639,-3.3796,-3.4149,-3.4397,-3.4397,-3.495,-3.591,-3.7414,-3.7962,-3.8574,-3.9606,-3.9694,-3.9978,-4.0636,-4.0666,-4.0891,-4.1369,-4.1384,-4.1474,-4.1654,-4.1654,-4.1654,-4.1654,-4.1806,-4.1851,-4.182,-4.1895,-4.1784,-4.1401,-4.1041,-4.0806,-4.0622,-4.0137,-3.9339,-3.8399,-3.7814,-3.6922,-3.6017,-3.6017,-3.5857,-3.571,0.0,0.0,0.0,0.0,0.0,0.0,0.0,0.0,0.0,0.0,0.0,0.0,0.0,0.0,0.0,0.0,0.0,0.0,0.0,-3.1012,-3.1659,-3.2367,-3.2398,-3.2398,-3.2398,-3.2398,-3.2398,-3.2398,-3.2398,-3.2736,-3.3398,-3.4106,-3.4783,-3.5445,-3.6122,-3.643,-3.643,-3.643,-3.643,-3.643,-3.643,-3.6045,-3.546,-3.546,-3.5029,-3.437,-3.3607,0.0,0.0,0.0,-3.0487,-2.9664,-2.89,-2.866,0.0,-2.7693,-2.7523,-2.7523,-2.7523,-2.7523,-2.7667,-2.8216,-2.8347,-2.8516,-2.9118,-2.9248,-2.9418,-2.9993,-3.0555,-3.1117,-3.1705,-3.2267,-3.2842,-3.347,-3.3587,-3.377,-3.4293,-3.4384,-3.4397,-3.4397,-3.4397,-3.4799,0.0,-3.7246,-3.8839,-4.0248,-4.0367,-4.0651,-4.1309,-4.1354,-4.1354,-4.1384,-4.1384,-4.1683,-4.2327,-4.2327,-4.2327,-4.2404,-4.2803,-4.2622,-4.1984,-4.2383,-4.2586,-4.2571,-4.2556,-4.2171,-4.1571,-4.1571,-4.0614,-3.9233,-3.9233,-3.8264,-3.6858,-3.6858,-3.6401,-3.571,0.0,0.0,0.0,0.0,0.0,0.0,0.0,0.0,0.0,0.0,0.0,0.0,0.0,0.0,0.0,0.0,0.0,0.0,0.0,-3.1028,-3.169,-3.2367,-3.2398,-3.2398,-3.2398,-3.2398,-3.2398,-3.2398,-3.2398,-3.2736,-3.3413,-3.4137,-3.4845,-3.5507,-3.6184,-3.6492,-3.6492,-3.6492,-3.6492,-3.6492,-3.6492,-3.6353,-3.6153,-3.6153,-3.5199,-3.3813,0.0,0.0,0.0,0.0,0.0,-2.9992,-2.9528,-2.9462,-2.9422,-2.9016,-2.8536,-2.8177,-2.8582,-2.8399,-2.8229,-2.883,-2.8974,-2.9131,-2.9719,-2.9849,-3.0124,-3.0989,-3.1418,-3.1849,-3.2816,-3.3156,-3.347,-3.4031,-3.4123,-3.4188,-3.4371,-3.4397,-3.4397,-3.4397,-3.4397,0.0,0.0,0.0,0.0,-3.9484,-4.0486,-4.1339,-4.1998,-4.2028,-4.1974,-4.1836,-4.2342,-4.2446,-4.2173,-4.2842,-4.3265,-4.3265,-4.3638,-4.3747,-4.3518,-4.3374,-4.3248,-4.3217,-4.2802,-4.2479,-4.2263,-4.2263,-4.1645,-4.068,-4.0172,-3.9025,-3.7605,-3.7091,-3.6401,-3.571,0.0,0.0,0.0,0.0,0.0,0.0,0.0,0.0,0.0,0.0,0.0,0.0,0.0,0.0,0.0,0.0,0.0,0.0,0.0,0.0,-3.1936,-3.2367,-3.2398,-3.2398,-3.2398,-3.2398,-3.2505,-3.2752,-3.2505,-3.2875,-3.3798,-3.426,-3.4845,-3.5507,-3.6184,-3.6492,-3.6492,-3.6492,-3.6492,-3.6492,-3.6492,-3.6492,-3.6492,-3.6492,-3.548,0.0,0.0,0.0,0.0,0.0,0.0,-3.0764,-3.0338,-3.0054,-2.9754,-2.9614,-2.921,-2.8791,-2.917,-2.9,-2.8843,-2.9431,-2.9588,-2.9732,-3.0307,-3.0594,-3.096,-3.1615,-3.2176,-3.2698,-3.3456,-3.3757,-3.3992,-3.4345,-3.4397,-3.4397,-3.4397,-3.4397,-3.4397,-3.4397,-3.4397,-3.4713,0.0,0.0,0.0,-3.8968,-4.0124,-4.1017,-4.1741,-4.1785,-4.1718,-4.1547,-4.24,-4.2578,-4.199,-4.301,-4.3675,-4.3832,-4.4127,-4.4358,-4.4419,-4.4125,-4.3941,-4.391,-4.3494,-4.3171,-4.2956,-4.2646,-4.2017,-4.1265,-4.053,-3.945,-3.8131,-3.7498,-3.6719,-3.5995,0.0,0.0,0.0,0.0,0.0,0.0,0.0,0.0,0.0,0.0,0.0,0.0,0.0,0.0,0.0,0.0,0.0,0.0,0.0,0.0,0.0,-3.2342,-3.2398,-3.2398,-3.2398,-3.2398,-3.2705,-3.3352,-3.2752,-3.3136,-3.4475,-3.4506,-3.4891,-3.5568,-3.6199,-3.6492,-3.6492,-3.6492,-3.6492,-3.6492,-3.6492,-3.6492,-3.6492,-3.6429,0.0,0.0,0.0,0.0,0.0,0.0,0.0,0.0,-3.1276,-3.0428,-2.9707,-2.9707,-2.9552,-2.9398,-2.9424,-2.9411,-2.9529,-3.0032,-3.0202,-3.0359,-3.0908,-3.147,-3.1888,-3.1927,-3.2816,-3.36,-3.3626,-3.4058,-3.4397,-3.4397,-3.4397,-3.4397,-3.4397,-3.4397,-3.4397,0.0,0.0,0.0,0.0,0.0,0.0,-3.8641,0.0,-3.9901,-4.0561,-4.0603,-4.0589,-4.0504,-4.1463,-4.1908,-4.1825,-4.2739,-4.3488,-4.3972,-4.4205,-4.4435,-4.4572,-4.4572,-4.4572,-4.4572,-4.4572,-4.4202,-4.3543,-4.2665,-4.1891,-4.1141,-4.0324,-3.9453,-3.8653,-3.8036,-3.7328,-3.6524,0.0,0.0,0.0,0.0,0.0,0.0,0.0,0.0,0.0,0.0,0.0,0.0,0.0,0.0,0.0,0.0,0.0,0.0,0.0,0.0,0.0,0.0,0.0,0.0,0.0,0.0,0.0,0.0,0.0,-3.3598,-3.4491,-3.4983,-3.5584,-3.6245,-3.6415,-3.6492,-3.6492,-3.6492,-3.6492,-3.6492,0.0,-3.6492,-3.6429,0.0,0.0,0.0,0.0,0.0,0.0,0.0,0.0,0.0,0.0,-3.1626,-3.1288,-3.1143,-3.0764,-3.0427,-3.0718,-3.0593,-3.048,-3.1076,-3.1554,-3.1912,-3.1817,-3.229,-3.2752,-3.3051,-3.3378,-3.3718,-3.4123,-3.4306,-3.4397,-3.4397,-3.4397,0.0,-3.4397,-3.4397,0.0,-3.4397,0.0,-3.4633,-3.5234,-3.6029,0.0,0.0,-3.9261,-4.0435,-4.0589,-4.0603,-4.0246,-3.9549,-4.0504,-4.0603,-3.9899,-4.1684,-4.279,-4.316,-4.3927,-4.4435,-4.4572,-4.4572,-4.4572,-4.4572,-4.4572,-4.4159,-4.3359,-4.3109,-4.253,-4.1682,-4.0945,-4.0177,-3.9381,-3.8667,-3.7688,-3.6578,0.0,0.0,0.0,0.0,0.0,0.0,0.0,0.0,0.0,0.0,0.0,0.0,0.0,0.0,0.0,0.0,0.0,0.0,0.0,0.0,0.0,0.0,0.0,0.0,0.0,0.0,0.0,0.0,0.0,0.0,0.0,-3.486,-3.5399,-3.6061,-3.6353,-3.6492,-3.6492,-3.6492,0.0,0.0,0.0,0.0,0.0,0.0,0.0,0.0,0.0,0.0,0.0,0.0,0.0,-3.2036,-3.2182,-3.2036,-3.1743,-3.1743,0.0,-3.0997,-3.1341,-3.1269,-3.1183,-3.1529,-3.2035,-3.2461,-3.2143,-3.279,-3.3409,-3.3603,-3.3442,-3.3508,-3.4262,-3.4037,-3.3953,0.0,0.0,0.0,-3.4397,-3.4397,-3.4397,0.0,-3.4633,0.0,-3.56,-3.6162,-3.675,0.0,-3.8631,-3.9428,-3.9428,-3.9428,-3.9162,-3.8639,-3.9475,-4.0159,-4.0418,-4.1767,-4.2761,-4.3427,-4.4097,-4.4511,-4.4572,-4.4572,-4.4572,-4.4572,0.0,-4.3927,-4.3771,-4.26,-4.2044,-4.1864,-4.0659,-3.9942,-3.9446,-3.8766,-3.8087,-3.7311,0.0,0.0,0.0,0.0,0.0,0.0,0.0,0.0,0.0,0.0,0.0,0.0,0.0,0.0,0.0,0.0,0.0,0.0,0.0,0.0,0.0,0.0,0.0,0.0,0.0,0.0,0.0,0.0,0.0,0.0,0.0,0.0,0.0,0.0,0.0,0.0,0.0,0.0,0.0,0.0,0.0,0.0,0.0,0.0,0.0,0.0,0.0,0.0,0.0,0.0,-3.2182,-3.2182,-3.2182,-3.1963,-3.1683,-3.1817,-3.1656,-3.1421,-3.1522,-3.1609,-3.1683,-3.1683,-3.211,-3.2488,-3.2312,-3.3041,-3.3806,-3.3655,0.0,-3.3035,-3.3996,-3.3449,-3.3233,-3.4113,0.0,-3.4397,-3.4397,-3.4397,-3.4397,-3.4397,-3.4933,-3.5508,-3.6057,-3.6658,-3.726,-3.7861,-3.79,-3.79,-3.79,-3.79,-3.79,-3.79,-3.8639,-3.9826,-4.1478,-4.1947,-4.268,-4.3723,-4.4189,-4.4496,-4.4572,-4.4496,-4.4419,-4.4419,-4.3615,0.0,-4.4082,-4.185,-4.1281,-4.1645,-4.0055,-3.938,-3.9237,-3.8722,-3.8491,-3.826,0.0,0.0,0.0,0.0,0.0,0.0,0.0,0.0,0.0,0.0,-2.577,0.0,0.0,0.0,0.0,0.0,0.0,0.0,0.0,0.0,0.0,0.0,0.0,0.0,0.0,0.0,0.0,0.0,0.0,0.0,0.0,0.0,0.0,0.0,0.0,0.0,0.0,0.0,0.0,0.0,0.0,0.0,0.0,0.0,0.0,0.0,0.0,0.0,0.0,0.0,-3.2109,-3.1963,-3.2182,-3.2036,-3.1817,-3.1683,-3.1743,-3.1743,-3.1609,-3.1757,-3.189,-3.2036,-3.2556,-3.3049,-3.3074,-3.3249,0.0,0.0,-3.2585,-3.1965,-3.2813,-3.27,-3.2688,-3.3567,0.0,0.0,0.0,0.0,-3.4397,0.0,0.0,0.0,0.0,0.0,0.0,0.0,0.0,-3.79,-3.79,-3.79,-3.79,-3.79,-3.807,-3.8395,-3.8805,-3.9664,-4.076,-4.2015,-4.2871,-4.3708,-4.4587,-4.3849,-4.3521,-4.3521,-4.3364,0.0,-4.2467,-4.271,-4.2029,-4.0774,-4.0518,-3.9954,-3.9292,-3.9183,-3.8844,-3.8383,0.0,0.0,0.0,0.0,0.0,0.0,0.0,0.0,0.0,-2.4964,-2.523,-2.5453,0.0,0.0,0.0,0.0,0.0,0.0,0.0,0.0,0.0,0.0,0.0,0.0,0.0,0.0,0.0,0.0,0.0,0.0,0.0,0.0,0.0,0.0,0.0,0.0,0.0,0.0,0.0,0.0,0.0,0.0,0.0,0.0,0.0,0.0,0.0,0.0,0.0,0.0,-3.2036,-3.1817,-3.2109,-3.1963,-3.1743,-3.1743,-3.1743,-3.1757,-3.1609,-3.1683,-3.1817,-3.1963,-3.2482,-3.2907,-3.2884,0.0,0.0,0.0,-3.2213,-3.1592,-3.2527,0.0,0.0,0.0,0.0,0.0,0.0,0.0,0.0,0.0,0.0,0.0,0.0,0.0,0.0,0.0,0.0,-3.79,-3.79,-3.7979,-3.8148,-3.8253,-3.8253,-3.8512,-3.91,-3.9692,-4.0532,-4.1616,-4.2222,-4.2725,-4.3205,-4.279,-4.2886,-4.3284,-4.279,0.0,-4.3284,-4.2275,-4.1699,-4.1212,-4.0287,-3.9719,-3.9305,-3.9305,-3.9129,-3.883,0.0,0.0,0.0,0.0,0.0,0.0,0.0,-2.4569,-2.5005,-2.5005,-2.5005,-2.5005,-2.5005,-2.5797,-2.6,0.0,0.0,0.0,0.0,0.0,0.0,0.0,0.0,0.0,0.0,0.0,0.0,0.0,0.0,0.0,0.0,0.0,0.0,0.0,0.0,0.0,0.0,0.0,0.0,0.0,0.0,0.0,0.0,0.0,0.0,0.0,0.0,0.0,0.0,0.0,-3.189,-3.1683,-3.1963,-3.1817,-3.1596,-3.1743,-3.1669,-3.1535,-3.1609,-3.1609,-3.1596,-3.189,-3.224,-3.2541,-3.2408,-3.2611,0.0,0.0,-3.166,-3.1158,-3.19,0.0,-3.1065,0.0,0.0,0.0,0.0,0.0,0.0,0.0,0.0,0.0,0.0,0.0,0.0,0.0,0.0,0.0,-3.7979,-3.8135,-3.8304,-3.8602,-3.8602,-3.8948,-3.9733,-3.9881,-4.046,-4.138,-4.1645,-4.1811,-4.199,-4.1811,-4.2222,-4.2966,-4.2058,0.0,0.0,-4.1767,-4.1212,-4.1561,-4.0128,-3.9455,-3.9305,-3.9305,-3.9305,-3.9237,0.0,0.0,0.0,0.0,0.0,0.0,0.0,-2.4332,-2.5005,-2.5005,-2.5005,-2.5005,-2.5005,-2.5118,-2.5104,0.0,0.0,0.0,0.0,0.0,0.0,0.0,0.0,0.0,0.0,0.0,0.0,0.0,0.0,0.0,0.0,0.0,0.0,0.0,0.0,0.0,0.0,0.0,0.0,0.0,0.0,0.0,0.0,0.0,0.0,0.0,0.0,0.0,0.0,0.0,0.0,-3.1609,-3.1609,-3.1508,-3.1347,-3.1596,0.0,0.0,-3.1522,-3.1447,-3.1421,-3.2023,-3.193,-3.1809,-3.2315,0.0,0.0,-3.181,-3.0778,-2.9854,-2.9932,-3.0052,-3.0157,0.0,0.0,-3.2993,0.0,0.0,0.0,0.0,0.0,0.0,0.0,0.0,0.0,0.0,0.0,0.0,-3.8122,-3.82,-3.8304,-3.8602,-3.8602,-3.8769,-3.8997,-3.8984,-3.959,-4.0689,-4.0689,-4.1212,-4.199,-4.1113,-4.1212,-4.2073,-4.1113,0.0,0.0,-4.199,-4.138,-4.0689,-4.0518,-4.0041,-3.9305,-3.9305,-3.9305,-3.9292,0.0,0.0,0.0,0.0,0.0,0.0,0.0,-2.456,-2.5005,-2.5005,-2.5005,-2.5005,-2.5005,-2.5005,-2.5005,0.0,0.0,0.0,0.0,0.0,0.0,0.0,0.0,0.0,0.0,0.0,0.0,0.0,0.0,0.0,0.0,0.0,0.0,0.0,0.0,0.0,0.0,0.0,0.0,0.0,0.0,0.0,0.0,0.0,0.0,0.0,0.0,0.0,0.0,0.0,0.0,0.0,-3.1609,-3.1373,0.0,0.0,-3.1347,-3.1272,-3.1211,-3.1286,-3.1347,-3.1569,-3.1669,-3.1662,-3.1713,0.0,-3.1176,-3.0625,-3.0099,-2.9537,-2.8978,-2.9046,-2.9496,0.0,0.0,0.0,0.0,0.0,0.0,0.0,0.0,0.0,0.0,0.0,0.0,0.0,0.0,0.0,-3.8639,-3.8381,-3.8304,-3.8602,-3.8756,-3.8832,-3.8908,-3.91,-3.9367,-3.9779,-3.9779,-4.0041,-4.0402,-3.9954,-4.0287,-4.1113,-4.0774,0.0,0.0,-4.138,-4.0944,-4.0518,-4.0027,-3.9631,-3.9305,-3.9305,-3.9305,-3.9305,0.0,0.0,0.0,0.0,0.0,0.0,-2.3712,-2.4416,-2.4821,-2.5005,-2.5005,-2.5005,-2.5005,-2.5005,-2.5005,-2.5005,0.0,0.0,0.0,0.0,0.0,0.0,0.0,0.0,0.0,0.0,0.0,0.0,0.0,0.0,0.0,0.0,0.0,0.0,0.0,0.0,0.0,0.0,0.0,0.0,0.0,0.0,0.0,0.0,0.0,0.0,0.0,0.0,0.0,0.0,0.0,0.0,0.0,0.0,0.0,0.0,-3.1272,-3.1198,-3.1136,-3.1123,-3.1272,-3.136,-3.1434,-3.1373,0.0,0.0,-3.0722,-3.0177,-2.9704,-2.9147,-2.8505,-2.8716,-2.9242,0.0,0.0,-3.1311,0.0,0.0,0.0,0.0,0.0,0.0,0.0,0.0,0.0,0.0,0.0,0.0,-3.8832,-3.8485,-3.8498,-3.8782,-3.8922,-3.9011,-3.9011,-3.9203,-3.9305,-3.9305,-3.9305,-3.9305,-3.9305,-3.9305,-3.9793,-4.0603,-4.036,0.0,0.0,-4.0617,-4.0187,-4.0187,-3.9543,-3.9305,-3.9305,-3.9305,-3.9305,-3.9305,0.0,0.0,0.0,0.0,0.0,0.0,0.0,-2.3681,-2.4465,-2.4948,-2.5005,-2.5005,-2.5005,-2.5005,-2.5005,-2.5005,0.0,0.0,0.0,0.0,0.0,0.0,0.0,0.0,0.0,0.0,0.0,-2.8587,-2.8587,0.0,0.0,0.0,0.0,0.0,0.0,0.0,0.0,0.0,0.0,0.0,0.0,0.0,0.0,0.0,0.0,0.0,0.0,0.0,0.0,0.0,0.0,0.0,0.0,0.0,0.0,0.0,-3.1123,-3.1061,-3.1272,-3.1123,-3.1061,-3.1522,-3.1299,-3.1061,0.0,0.0,-2.9947,-3.0823,-2.9626,-2.8426,-2.8426,-2.9292,-2.9411,-2.7645,-2.9769,0.0,0.0,0.0,0.0,0.0,0.0,0.0,0.0,0.0,0.0,0.0,0.0,0.0,-3.8602,-3.8602,-3.8782,-3.9305,-3.9292,-3.9305,-3.9305,-3.9305,-3.9305,-3.9305,-3.9305,-3.9305,-3.9305,-3.9305,-3.9793,-4.0518,0.0,0.0,0.0,-3.9706,-3.9292,-3.9305,-3.9305,-3.9305,-3.9305,-3.9305,-3.9305,-3.9305,0.0,0.0,0.0,0.0,0.0,0.0,0.0,-2.316,-2.3872,-2.3989,-2.435,-2.4523,-2.4523,-2.4821,-2.5005,-2.5005,0.0,0.0,0.0,0.0,0.0,0.0,0.0,0.0,0.0,0.0,0.0,-2.8276,-2.8379,-2.8365,-2.8365,0.0,0.0,0.0,0.0,0.0,0.0,0.0,0.0,0.0,0.0,0.0,0.0,0.0,0.0,0.0,0.0,0.0,0.0,0.0,0.0,0.0,0.0,0.0,0.0,0.0,0.0,0.0,-3.1061,-3.1123,-3.1198,-3.1211,-3.1211,-3.1035,-3.033,0.0,-2.9471,-2.8609,-2.7971,-2.7673,-2.8081,-2.8122,-2.8521,-2.9572,-3.0267,0.0,0.0,0.0,0.0,0.0,0.0,0.0,0.0,0.0,0.0,0.0,0.0,0.0,-3.9038,-3.9038,-3.9038,-3.8872,-3.8922,-3.9011,-3.9011,-3.9203,-3.9305,-3.9305,-3.9305,-3.9305,-3.9305,-3.9305,-3.9469,0.0,0.0,0.0,0.0,-3.938,-3.9305,-3.9305,-3.9305,-3.9305,-3.9305,-3.9305,-3.9305,-3.9305,0.0,0.0,0.0,0.0,0.0,0.0,0.0,-2.2493,-2.3157,-2.3551,-2.3872,-2.406,-2.406,-2.4292,-2.4465,-2.4465,0.0,0.0,0.0,0.0,0.0,0.0,0.0,0.0,0.0,0.0,-2.8021,-2.8079,-2.8183,-2.8235,-2.8235,-2.8235,-2.8314,0.0,0.0,0.0,0.0,0.0,0.0,0.0,0.0,0.0,-2.7082,0.0,0.0,0.0,0.0,0.0,0.0,0.0,0.0,0.0,0.0,0.0,0.0,0.0,-2.8912,-3.0024,0.0,-3.0088,-3.0165,-3.0024,-3.033,0.0,0.0,0.0,-2.89,-2.7891,-2.7252,-2.716,-2.7851,-2.8064,-2.8641,-3.0178,-3.0549,0.0,0.0,0.0,0.0,0.0,0.0,0.0,0.0,0.0,0.0,0.0,0.0,0.0,-3.9305,-3.9305,-3.9127,-3.8859,-3.9024,-3.9011,-3.9011,-3.9203,-3.9305,-3.9305,-3.9305,-3.9305,-3.9305,-3.9305,-3.9305,0.0,0.0,0.0,0.0,-3.9305,-3.9305,-3.9305,-3.9305,-3.9305,-3.9305,-3.9305,-3.9305,-3.9305,0.0,0.0,0.0,0.0,0.0,0.0,0.0,0.0,0.0,0.0,-2.3492,-2.3577,-2.3577,-2.3577,-2.3577,0.0,0.0,0.0,0.0,0.0,0.0,0.0,0.0,0.0,0.0,-2.731,-2.7568,-2.8012,-2.8066,-2.8079,-2.8079,-2.8079,-2.8079,-2.8079,-2.8079,0.0,0.0,0.0,0.0,0.0,0.0,0.0,0.0,0.0,0.0,0.0,0.0,0.0,0.0,0.0,0.0,0.0,0.0,0.0,0.0,0.0,0.0,0.0,0.0,-2.8347,0.0,0.0,0.0,0.0,0.0,0.0,0.0,-2.8315,-2.736,-2.6896,-2.7877,-2.8815,-2.9546,-2.9581,-3.0749,0.0,0.0,0.0,0.0,0.0,0.0,0.0,0.0,0.0,0.0,0.0,0.0,0.0,-3.9305,-3.9305,-3.9305,-3.9305,-3.9305,-3.9305,-3.9305,-3.9305,-3.9305,-3.9305,-3.9305,-3.9305,-3.9305,-3.9305,-3.9305,0.0,0.0,0.0,0.0,-3.9305,-3.9305,-3.9305,-3.9305,-3.9305,-3.9305,-3.9305,-3.9305,-3.9292,0.0,0.0,0.0,0.0,0.0,0.0,0.0,0.0,0.0,0.0,-2.2588,-2.3078,-2.3078,-2.3352,-2.3577,0.0,0.0,0.0,0.0,0.0,0.0,0.0,0.0,0.0,0.0,-2.6645,-2.6997,-2.7013,-2.7578,-2.7855,-2.7855,-2.7855,-2.7934,-2.8079,-2.7934,-2.7643,-2.7149,0.0,0.0,0.0,0.0,0.0,0.0,0.0,0.0,0.0,-2.3706,-2.3757,0.0,0.0,0.0,0.0,0.0,0.0,0.0,0.0,-2.6373,-2.6456,-2.6456,0.0,-2.8426,-2.8426,-2.8585,-2.8505,0.0,0.0,0.0,0.0,0.0,0.0,0.0,-2.9297,-2.9662,-2.994,-3.1504,-3.2451,0.0,0.0,0.0,0.0,0.0,0.0,0.0,0.0,0.0,0.0,0.0,-3.9305,-3.9305,-3.9305,-3.9305,-3.9305,-3.9305,-3.9305,-3.9305,-3.9305,-3.9305,-3.9305,-3.9305,-3.9305,-3.9305,-3.9305,-3.9305,0.0,0.0,0.0,-3.9305,-3.9305,-3.9305,-3.9305,-3.9305,-3.9305,-3.9305,-3.9305,-3.9305,-3.9237,0.0,0.0,0.0,0.0,0.0,0.0,0.0,0.0,0.0,0.0,0.0,0.0,0.0,0.0,0.0,0.0,0.0,0.0,0.0,0.0,0.0,0.0,0.0,0.0,0.0,-2.6136,-2.654,-2.6674,-2.738,-2.7656,-2.7656,-2.7656,-2.7523,-2.7323,-2.6824,-2.6389,-2.5894,-2.5475,-2.5052,-2.4624,-2.4624,0.0,0.0,0.0,0.0,0.0,-2.3139,-2.3176,0.0,-2.4246,-2.465,-2.4978,0.0,0.0,0.0,0.0,-2.5895,-2.5895,-2.5895,-2.6528,-2.7244,-2.7244,-2.7568,-2.7649,0.0,0.0,0.0,0.0,0.0,0.0,0.0,0.0,0.0,0.0,-3.2451,0.0,0.0,0.0,0.0,0.0,0.0,0.0,0.0,0.0,0.0,0.0,0.0,-3.9305,-3.9305,-3.9305,-3.9305,-3.9305,-3.9305,-3.9305,-3.9305,-3.9305,-3.9305,-3.9305,-3.9305,-3.9305,-3.9305,-3.9305,-3.9305,0.0,0.0,0.0,-3.9305,-3.9305,-3.9305,-3.9305,-3.9305,-3.9305,-3.9305,-3.9305,-3.9129,-3.8844,0.0,0.0,0.0,0.0,0.0,0.0,0.0,0.0,0.0,0.0,0.0,0.0,0.0,0.0,0.0,0.0,0.0,0.0,0.0,0.0,0.0,0.0,0.0,0.0,-2.5223,-2.5595,-2.6046,-2.6543,-2.6998,-2.7255,-2.7323,-2.7255,-2.6837,-2.6208,-2.5441,-2.4933,-2.4564,-2.4492,-2.4082,-2.3519,-2.3519,0.0,0.0,0.0,0.0,0.0,0.0,0.0,0.0,-2.4148,-2.4486,-2.465,-2.56,0.0,0.0,0.0,0.0,0.0,-2.5895,-2.5979,-2.6063,-2.5895,-2.6467,-2.6787,-2.6063,0.0,0.0,0.0,0.0,0.0,0.0,0.0,0.0,0.0,0.0,0.0,0.0,0.0,0.0,0.0,0.0,0.0,0.0,0.0,0.0,0.0,0.0,-3.9305,-3.9305,-3.9305,-3.9305,-3.9305,-3.9305,-3.9305,-3.9305,-3.9305,-3.9305,-3.9305,-3.9305,-3.9305,-3.9305,-3.9305,-3.9305,-3.9305,0.0,0.0,-3.9305,-3.9305,-3.9305,-3.9305,-3.9305,-3.9305,-3.9292,-3.921,-3.8844,-3.8383,0.0,0.0,0.0,0.0,0.0,0.0,0.0,0.0,0.0,0.0,0.0,0.0,0.0,0.0,0.0,0.0,0.0,0.0,0.0,0.0,0.0,0.0,0.0,-2.3839,-2.4482,-2.4743,-2.5218,-2.5955,-2.5722,-2.5931,-2.6564,-2.5931,-2.5581,-2.5441,-2.4636,-2.4264,-2.412,-2.357,-2.3213,-2.3075,-2.3075,0.0,0.0,0.0,0.0,0.0,0.0,0.0,0.0,-2.4148,-2.4486,-2.465,-2.56,0.0,0.0,0.0,0.0,0.0,-2.5895,-2.6467,-2.6775,-2.6063,-2.5979,-2.6063,0.0,0.0,0.0,0.0,0.0,0.0,0.0,0.0,0.0,0.0,0.0,0.0,0.0,0.0,0.0,0.0,0.0,0.0,0.0,0.0,0.0,0.0,0.0,-3.9305,-3.9305,-3.9305,-3.9305,-3.9305,-3.9305,-3.9305,-3.9305,-3.9305,-3.9305,-3.9305,-3.9305,-3.9305,-3.9305,-3.9305,-3.9305,-3.9305,0.0,-3.9305,-3.9305,-3.9305,-3.9305,-3.9305,-3.9305,-3.9305,-3.9237,-3.8735,-3.8491,-3.8274,0.0,0.0,0.0,0.0,0.0,0.0,0.0,0.0,0.0,0.0,0.0,0.0,0.0,0.0,0.0,0.0,0.0,0.0,0.0,0.0,0.0,0.0,-2.1854,-2.2457,-2.3182,-2.3852,-2.4357,-2.468,-2.5127,-2.5441,-2.5791,-2.5004,-2.4636,-2.4636,-2.3852,-2.3486,-2.3486,-2.3139,-2.3001,-2.3001,0.0,0.0,0.0,0.0,0.0,0.0,0.0,0.0,0.0,0.0,-2.4486,-2.465,-2.56,0.0,0.0,0.0,0.0,0.0,-2.5895,-2.6229,-2.6539,-2.6622,-2.694,-2.7162,0.0,0.0,0.0,0.0,0.0,0.0,0.0,0.0,0.0,0.0,0.0,0.0,0.0,0.0,0.0,0.0,0.0,0.0,0.0,0.0,0.0,0.0,0.0,0.0,-3.9305,-3.9305,-3.9305,-3.9305,-3.9305,-3.9305,-3.9305,-3.9305,-3.9305,-3.9305,-3.9305,-3.9305,-3.9305,-3.9305,-3.9305,-3.9305,0.0,-3.9305,-3.9305,-3.9305,-3.9305,-3.9278,-3.8952,-3.8817,-3.8708,-3.7786,-3.7433,-3.7311,0.0,0.0,0.0,0.0,0.0,0.0,0.0,0.0,0.0,0.0,0.0,0.0,0.0,0.0,0.0,0.0,0.0,0.0,0.0,0.0,-2.0335,-2.0816,-2.088,-2.1302,-2.2212,-2.3006,-2.3556,-2.3688,-2.4423,-2.4731,-2.4731,-2.4131,-2.3829,-2.3841,-2.3276,-2.3001,-2.3001,-2.3001,-2.3001,-2.3001,0.0,0.0,0.0,0.0,0.0,0.0,0.0,0.0,0.0,0.0,0.0,0.0,0.0,0.0,0.0,-2.5895,-2.5895,-2.5895,-2.5895,-2.6063,-2.6302,-2.6787,0.0,0.0,0.0,0.0,0.0,0.0,0.0,0.0,0.0,0.0,0.0,0.0,0.0,0.0,0.0,0.0,0.0,0.0,0.0,0.0,0.0,0.0,0.0,0.0,0.0,0.0,-3.9305,-3.9305,-3.9305,-3.9305,-3.9305,-3.9305,-3.9305,-3.9305,-3.9305,-3.9305,-3.9305,-3.9305,-3.9305,-3.9305,-3.9305,-3.9305,-3.9305,-3.9305,-3.9292,-3.9156,-3.9102,-3.9034,-3.8437,-3.8125,-3.7881,-3.7028,-3.6688,-3.6498,0.0,0.0,0.0,0.0,0.0,0.0,0.0,0.0,0.0,0.0,0.0,0.0,0.0,0.0,0.0,0.0,0.0,0.0,0.0,0.0,-2.014,-2.014,-2.014,-2.0752,-2.2113,-2.2507,-2.3033,-2.3688,-2.3364,-2.315,-2.3139,-2.315,-2.3075,-2.3075,-2.3001,-2.3001,-2.3001,-2.3001,-2.3001,-2.3001,-2.3001,0.0,0.0,0.0,0.0,0.0,0.0,0.0,0.0,0.0,0.0,0.0,0.0,0.0,-2.5895,-2.5895,-2.5895,-2.5895,-2.5895,-2.6467,-2.694,-2.6218,-2.6063,0.0,-2.7947,-2.8431,0.0,-2.9952,0.0,0.0,0.0,0.0,0.0,0.0,0.0,0.0,0.0,0.0,0.0,0.0,0.0,0.0,0.0,0.0,0.0,0.0,0.0,0.0,-3.9305,-3.9305,-3.9305,-3.9305,-3.9305,-3.9305,-3.9305,-3.9305,-3.9305,-3.9305,-3.9305,-3.9305,-3.9305,-3.9305,-3.9305,-3.9305,-3.9305,-3.9305,-3.9264,-3.8708,-3.8477,-3.8423,-3.7826,-3.7243,-3.681,-3.7153,-3.6863,-3.6446,0.0,0.0,0.0,0.0,0.0,0.0,0.0,0.0,0.0,0.0,0.0,0.0,0.0,0.0,0.0,0.0,0.0,0.0,0.0,0.0,-2.0085,-2.0085,-2.0085,-2.0467,-2.1345,-2.1767,-2.2114,-2.2377,-2.2811,-2.3001,-2.3001,-2.3001,-2.3001,-2.3001,-2.3001,-2.3001,-2.3001,-2.3001,-2.3001,-2.3001,-2.3001,-2.3001,0.0,0.0,0.0,0.0,0.0,0.0,0.0,0.0,-2.5033,-2.5262,-2.5742,-2.5895,-2.5895,-2.5895,-2.5895,-2.5895,-2.5895,-2.6539,-2.7103,-2.6775,-2.6941,0.0,0.0,-2.9572,-3.0503,-3.0618,-3.2453,0.0,0.0,0.0,0.0,0.0,0.0,0.0,0.0,0.0,0.0,0.0,0.0,0.0,0.0,0.0,0.0,0.0,0.0,0.0,-3.8776,-3.8749,-3.8586,-3.8206,-3.8206,-3.8206,-3.8206,-3.8206,-3.8206,-3.8206,-3.8952,-3.9102,-3.8749,-3.8749,-3.8559,-3.8206,-3.8206,-3.8206,-3.8179,-3.7962,-3.7867,-3.7813,-3.7467,-3.7166,-3.6855,-3.7028,-3.6967,-3.6758,0.0,0.0,0.0,0.0,0.0,0.0,0.0,0.0,0.0,0.0,0.0,0.0,0.0,0.0,0.0,0.0,0.0,0.0,0.0,0.0,-2.0085,-2.0085,-2.0085,-2.0369,-2.0917,-2.1341,-2.1658,-2.1822,-2.2608,-2.3001,-2.3001,-2.3001,-2.3001,-2.3001,-2.3001,-2.3001,-2.3001,-2.3001,-2.3001,-2.3001,-2.3001,-2.3001,0.0,0.0,0.0,0.0,0.0,0.0,0.0,0.0,-2.5273,-2.5459,-2.5797,-2.5895,-2.5895,-2.5895,-2.5895,-2.5895,-2.5895,-2.6302,-2.6787,-2.6787,0.0,0.0,-2.8851,-3.0462,-3.1763,-3.2008,-3.3855,0.0,0.0,0.0,0.0,0.0,0.0,0.0,0.0,0.0,0.0,0.0,0.0,0.0,0.0,0.0,0.0,0.0,0.0,0.0,0.0,-3.8138,-3.7962,-3.7541,-3.7528,-3.7528,-3.7528,-3.7528,-3.7528,-3.7541,-3.8355,-3.8532,-3.8138,-3.8138,-3.7921,-3.7528,-3.7528,-3.7528,-3.7514,-3.7311,-3.7218,-3.718,-3.7016,-3.699,-3.6978,-3.7148,-3.7226,-3.7226,0.0,0.0,0.0,0.0,0.0,0.0,0.0,0.0,0.0,0.0,0.0,0.0,0.0,0.0,0.0,0.0,0.0,0.0,0.0,-2.0085,-2.0085,-2.0085,-2.0085,-2.0369,-2.086,-2.1352,-2.1843,-2.2324,-2.2772,-2.3001,-2.3001,-2.3001,-2.3001,-2.3001,-2.3001,-2.3001,-2.3001,-2.3001,-2.3001,-2.3001,-2.3001,-2.3012,-2.3012,0.0,0.0,0.0,0.0,0.0,0.0,0.0,-2.5502,-2.5895,-2.5895,0.0,-2.5895,-2.5895,-2.5895,-2.5895,-2.5895,-2.5895,-2.5895,0.0,0.0,0.0,-2.948,-3.0762,-3.2043,-3.41,0.0,-3.571,-3.571,0.0,0.0,0.0,0.0,0.0,0.0,0.0,0.0,0.0,0.0,0.0,0.0,0.0,0.0,0.0,0.0,0.0,0.0,-3.7528,-3.7528,-3.7514,-3.7514,-3.7514,-3.7514,-3.7514,-3.7514,-3.7514,-3.7514,-3.7514,-3.7528,-3.7528,-3.7528,-3.7514,-3.7514,-3.7514,-3.7473,-3.6849,-3.6511,-3.6405,-3.6405,-3.6693,-3.707,-3.7457,-3.7625,-3.7687,0.0,0.0,0.0,0.0,0.0,0.0,0.0,0.0,0.0,0.0,0.0,0.0,0.0,0.0,0.0,0.0,0.0,0.0,0.0,0.0,-2.0085,-2.0085,-2.0085,-2.0533,-2.1352,-2.2171,-2.2652,-2.2794,-2.2936,-2.3001,-2.3001,-2.3001,-2.3001,-2.3001,-2.3001,-2.3001,-2.3001,-2.3001,-2.3001,-2.3034,-2.3372,-2.3514,-2.3547,0.0,0.0,0.0,0.0,0.0,0.0,0.0,0.0,0.0,-2.5895,0.0,-2.5895,-2.5895,-2.5895,-2.5895,-2.5895,-2.6764,0.0,-2.6528,0.0,0.0,0.0,-3.1498,0.0,0.0,0.0,-3.5127,-3.5629,0.0,0.0,0.0,0.0,0.0,0.0,0.0,0.0,0.0,0.0,0.0,0.0,0.0,0.0,0.0,0.0,0.0,0.0,-3.6877,-3.6687,-3.6266,-3.6252,-3.6252,-3.6252,-3.6252,-3.6252,-3.6252,-3.6252,-3.6483,-3.6877,-3.6877,-3.6659,-3.6252,-3.6252,-3.6252,-3.6252,-3.6401,-3.6609,-3.6836,-3.7162,-3.7457,-3.7825,-3.7976,-3.8052,-3.8052,0.0,0.0,0.0,0.0,0.0,0.0,0.0,0.0,0.0,0.0,0.0,0.0,0.0,0.0,0.0,0.0,0.0,0.0,0.0,0.0,0.0,0.0,-2.0325,-2.0882,-2.1865,-2.2619,-2.3001,-2.3001,-2.3001,-2.3001,-2.3001,0.0,-2.3001,-2.3001,0.0,-2.311,-2.3296,-2.3296,-2.3405,-2.3613,-2.3908,-2.4039,-2.4061,0.0,0.0,0.0,0.0,0.0,0.0,0.0,0.0,0.0,-2.5895,0.0,-2.5895,-2.5895,-2.5895,-2.5895,-2.5895,-2.661,0.0,-2.6999,-2.8345,-3.0223,-3.1976,0.0,0.0,0.0,0.0,-3.5209,0.0,0.0,0.0,0.0,0.0,0.0,0.0,0.0,0.0,0.0,0.0,0.0,0.0,0.0,0.0,0.0,0.0,0.0,0.0,-3.6252,-3.609,-3.5723,-3.571,-3.571,-3.571,-3.571,-3.571,-3.571,-3.571,-3.59,-3.6252,-3.6252,-3.6049,-3.571,-3.571,-3.5804,-3.5978,-3.6312,-3.6693,-3.7226,-3.7534,-3.7839,-3.8202,-3.8202,-3.8202,-3.8202,0.0,0.0,0.0,0.0,0.0,0.0,0.0,0.0,0.0,0.0,0.0,0.0,0.0,0.0,0.0,0.0,0.0,0.0,0.0,0.0,0.0,0.0,0.0,0.0,0.0,-2.2772,-2.3001,-2.3001,-2.3001,0.0,0.0,0.0,-2.3001,-2.3001,0.0,-2.3307,-2.3733,-2.3777,-2.4061,-2.4497,-2.4541,-2.4552,-2.4563,-2.4607,0.0,0.0,0.0,0.0,0.0,0.0,0.0,0.0,-2.5895,-2.5895,-2.5895,-2.5895,-2.5895,-2.5895,-2.5895,0.0,0.0,-2.7313,-2.8315,0.0,-3.2983,-3.4711,-3.571,-3.571,0.0,0.0,0.0,0.0,0.0,0.0,0.0,0.0,0.0,0.0,0.0,0.0,0.0,0.0,0.0,0.0,0.0,0.0,0.0,0.0,0.0,-3.571,-3.571,-3.571,-3.571,-3.571,-3.571,-3.571,-3.571,-3.571,-3.571,-3.571,-3.571,-3.571,-3.571,-3.571,-3.5723,-3.5978,-3.6405,-3.647,-3.6929,-3.7625,-3.761,-3.7915,-3.8202,-3.8202,-3.8202,-3.8202,0.0,0.0,0.0,0.0,0.0,0.0,0.0,0.0,0.0,0.0,0.0,0.0,0.0,0.0,0.0,0.0,0.0,0.0,0.0,0.0,0.0,0.0,0.0,0.0,0.0,0.0,0.0,0.0,0.0,0.0,0.0,0.0,0.0,-2.3023,0.0,-2.3635,-2.3755,-2.4159,-2.4388,-2.4519,-2.488,-2.5022,-2.5065,-2.5448,-2.5655,0.0,0.0,0.0,0.0,0.0,0.0,0.0,-2.5895,-2.5895,-2.5895,-2.5895,-2.5895,-2.5895,-2.5895,-2.6846,0.0,0.0,-3.0082,-3.2346,-3.3416,-3.4711,-3.571,0.0,0.0,0.0,0.0,0.0,0.0,0.0,0.0,0.0,0.0,0.0,0.0,0.0,0.0,0.0,0.0,0.0,0.0,0.0,0.0,0.0,-3.571,-3.571,-3.571,-3.571,-3.571,-3.571,-3.571,-3.571,-3.571,0.0,-3.571,-3.571,-3.571,-3.571,-3.571,-3.571,-3.6058,-3.6312,-3.6484,-3.7084,-3.7471,-3.761,-3.7976,-3.8127,-3.8202,-3.8202,-3.8202,-3.8202,0.0,0.0,0.0,0.0,0.0,0.0,0.0,0.0,0.0,0.0,0.0,0.0,0.0,0.0,0.0,0.0,0.0,0.0,0.0,0.0,0.0,0.0,0.0,0.0,0.0,0.0,0.0,0.0,0.0,0.0,0.0,0.0,0.0,-2.3362,0.0,-2.3984,-2.4443,-2.4705,-2.4945,-2.5185,-2.5426,-2.5524,-2.5546,-2.5808,-2.5895,-2.5895,-2.5895,0.0,0.0,0.0,0.0,0.0,0.0,0.0,-2.5895,-2.5895,-2.5895,-2.5895,0.0,0.0,0.0,-2.8888,0.0,0.0,-3.3648,0.0,0.0,0.0,0.0,0.0,0.0,0.0,0.0,0.0,0.0,0.0,0.0,0.0,0.0,0.0,0.0,0.0,0.0,0.0,0.0,0.0,0.0,-3.571,-3.571,-3.571,-3.571,-3.571,-3.571,-3.571,-3.571,-3.571,-3.5804,-3.6058,-3.6058,-3.6138,-3.635,-3.6125,-3.6125,-3.635,-3.6615,-3.6772,-3.7007,-3.7394,-3.7687,-3.7915,-3.8127,-3.8202,-3.8202,-3.8202,-3.8202,-3.8202,0.0,0.0,0.0,0.0,0.0,0.0,0.0,0.0,0.0,0.0,0.0,0.0,0.0,0.0,0.0,0.0,0.0,0.0,0.0,0.0,0.0,0.0,0.0,0.0,0.0,0.0,0.0,0.0,0.0,0.0,0.0,0.0,0.0,-2.3733,0.0,-2.4421,-2.5175,-2.5262,-2.5524,-2.5906,-2.5728,-2.5812,-2.5906,-2.5728,-2.5812,-2.5895,-2.5895,-2.5895,-2.5895,-2.5895,0.0,0.0,0.0,0.0,-2.5895,-2.5895,-2.5895,-2.5895,0.0,0.0,-2.7799,-2.9691,0.0,0.0,0.0,0.0,0.0,0.0,0.0,0.0,0.0,0.0,0.0,0.0,0.0,0.0,0.0,0.0,0.0,0.0,0.0,0.0,0.0,0.0,0.0,0.0,0.0,-3.571,-3.571,-3.571,-3.571,-3.571,-3.571,-3.571,-3.571,-3.5804,-3.6045,-3.6536,-3.6615,-3.6915,-3.7352,-3.6993,-3.6836,-3.6978,-3.707,-3.7303,-3.7625,-3.7687,-3.7915,-3.8202,-3.8202,-3.8202,-3.8202,-3.8202,-3.8202,-3.8202,0.0,0.0,0.0,0.0,0.0,0.0,0.0,0.0,0.0,0.0,0.0,0.0,0.0,0.0,0.0,0.0,0.0,0.0,-2.0085,0.0,0.0,-2.1559,-2.2062,-2.2531,0.0,0.0,0.0,0.0,0.0,0.0,0.0,0.0,0.0,-2.3766,0.0,-2.5043,-2.5196,-2.5622,-2.5841,-2.5812,-2.5295,-2.538,-2.5812,-2.5211,-2.538,-2.5895,-2.5895,-2.5895,-2.5895,-2.5895,-2.5895,0.0,0.0,0.0,-2.5895,-2.5895,-2.5895,-2.5895,0.0,0.0,0.0,0.0,0.0,0.0,0.0,0.0,0.0,0.0,0.0,0.0,0.0,0.0,0.0,0.0,0.0,0.0,0.0,0.0,0.0,0.0,0.0,0.0,0.0,0.0,0.0,0.0,-3.571,-3.571,-3.571,-3.571,-3.571,-3.571,-3.571,-3.571,-3.571,-3.6138,-3.6587,-3.7063,-3.7462,-3.8144,-3.8957,-3.8457,-3.781,-3.6978,-3.738,-3.7534,-3.7625,-3.7991,-3.8127,-3.8202,-3.8202,-3.8202,-3.8202,-3.8202,-3.8202,-3.8202,0.0,0.0,0.0,0.0,0.0,0.0,0.0,0.0,0.0,0.0,0.0,0.0,0.0,0.0,0.0,-2.0085,-2.0085,-2.026,-2.0533,-2.1002,-2.1483,-2.1974,-2.2455,-2.2794,-2.3001,0.0,0.0,0.0,0.0,0.0,0.0,-2.3919,-2.4159,0.0,0.0,0.0,0.0,-2.5808,-2.5895,-2.5895,-2.5549,-2.5644,-2.5895,-2.5559,-2.5633,-2.5895,-2.5895,-2.5895,-2.5895,-2.5895,-2.5895,-2.5895,-2.5895,0.0,0.0,0.0,-2.5895,0.0,-2.6456,0.0,0.0,0.0,0.0,0.0,0.0,0.0,0.0,0.0,0.0,0.0,0.0,0.0,0.0,0.0,0.0,0.0,0.0,0.0,0.0,0.0,0.0,0.0,0.0,0.0,0.0,0.0,-3.571,-3.571,-3.571,-3.571,-3.571,-3.571,-3.571,-3.571,-3.571,-3.648,-3.7386,-3.8413,-3.8782,-3.9233,-3.9606,-3.9391,-3.903,-3.8664,-3.8826,-3.8899,-3.8899,-3.9045,-3.9118,-3.9118,-3.8782,-3.8723,-3.8649,-3.8352,-3.8202,-3.8202,0.0,0.0,0.0,0.0,0.0,0.0,0.0,0.0,0.0,0.0,0.0,0.0,0.0,0.0,0.0,0.0,-2.0194,-2.0533,-2.1013,-2.1505,-2.1942,-2.2302,-2.2761,-2.3001,-2.3001,0.0,0.0,0.0,0.0,0.0,-2.3744,-2.4246,-2.4552,0.0,-2.5153,-2.5557,0.0,0.0,0.0,-2.5906,-2.5728,-2.5728,-2.5895,-2.5728,-2.5728,-2.5895,-2.5895,-2.5895,-2.5895,-2.5895,-2.5895,-2.5895,-2.5895,-2.5895,0.0,0.0,0.0,0.0,0.0,0.0,0.0,0.0,0.0,0.0,0.0,0.0,0.0,0.0,0.0,0.0,0.0,0.0,0.0,0.0,0.0,0.0,0.0,0.0,0.0,0.0,0.0,0.0,0.0,0.0,0.0,0.0,-3.571,-3.571,-3.571,-3.571,-3.571,-3.571,-3.571,-3.579,-3.6017,-3.7127,-3.8324,-3.9677,-3.9819,-4.003,-4.0324,-4.0185,-4.0185,-4.0324,-4.003,-3.9889,-3.9889,-3.9889,-3.9889,-3.9889,-3.9436,-3.9235,-3.9031,-3.8575,-3.8352,-3.8202,0.0,0.0,0.0,0.0,0.0,0.0,0.0,0.0,0.0,0.0,0.0,0.0,0.0,-2.0085,-2.0085,-2.0085,-2.0555,-2.1035,-2.1516,-2.2007,-2.2291,-2.2313,-2.2761,0.0,-2.3001,-2.3001,0.0,0.0,0.0,0.0,-2.3744,-2.4246,-2.4727,-2.5153,-2.5644,-2.5874,-2.5895,0.0,0.0,0.0,0.0,0.0,0.0,0.0,0.0,0.0,0.0,-2.5895,-2.5895,-2.5895,-2.5895,-2.5895,-2.5895,-2.5895,-2.5895,0.0,0.0,0.0,0.0,0.0,0.0,0.0,0.0,0.0,0.0,0.0,0.0,0.0,0.0,0.0,0.0,0.0,0.0,0.0,0.0,0.0,0.0,0.0,0.0,0.0,0.0,0.0,0.0,0.0,0.0,0.0,-3.571,-3.571,-3.571,-3.571,-3.571,-3.571,-3.571,-3.6097,-3.6858,-3.819,-3.952,-4.073,-4.0185,-4.0462,-4.1507,-4.0987,-4.1055,-4.144,-4.0393,-3.9889,-3.9889,-3.9889,-3.9889,-3.9889,-3.9889,-3.9565,-3.9104,-3.9031,-3.8723,-3.8202,0.0,0.0,0.0,0.0,0.0,0.0,0.0,0.0,0.0,0.0,0.0,0.0,0.0,-2.0085,-2.0271,-2.0577,-2.1046,-2.1538,-2.2029,-2.2226,-2.2444,-2.2739,-2.2914,-2.3001,-2.3001,-2.3001,0.0,0.0,0.0,-2.3416,-2.4224,-2.441,-2.4902,-2.5644,-2.5819,-2.5895,-2.5895,-2.5895,0.0,0.0,0.0,0.0,0.0,0.0,0.0,0.0,0.0,0.0,0.0,-2.6218,-2.6135,-2.5895,-2.5895,-2.5895,-2.5895,-2.5895,0.0,0.0,0.0,0.0,0.0,0.0,0.0,0.0,0.0,0.0,0.0,0.0,0.0,0.0,0.0,0.0,0.0,0.0,0.0,0.0,0.0,0.0,0.0,0.0,0.0,0.0,0.0,0.0,0.0,0.0,0.0,-3.571,-3.571,-3.571,-3.571,-3.571,-3.5978,-3.6744,-3.7933,-3.8796,-3.9748,-4.0799,-4.0904,-4.1225,-4.1588,-4.139,-4.139,-4.1588,-4.1158,-4.1024,-4.1024,-4.1024,-4.1024,-4.0956,-4.0615,-4.0355,-4.0161,-3.9793,-3.9292,-3.8811,0.0,0.0,0.0,0.0,0.0,0.0,0.0,0.0,0.0,0.0,0.0,0.0,0.0,0.0,-2.0642,-2.1297,-2.1647,-2.2029,-2.251,-2.2542,-2.2684,-2.299,-2.3001,-2.3001,-2.3001,-2.2848,-2.2848,0.0,0.0,0.0,0.0,-2.465,-2.5142,-2.5895,-2.5895,-2.5895,0.0,0.0,0.0,-2.5295,0.0,0.0,-2.5295,0.0,0.0,0.0,0.0,0.0,0.0,0.0,0.0,0.0,-2.6135,-2.6135,0.0,0.0,0.0,0.0,-2.6951,0.0,0.0,0.0,0.0,0.0,0.0,0.0,0.0,0.0,0.0,0.0,0.0,0.0,0.0,0.0,0.0,0.0,0.0,0.0,0.0,0.0,0.0,0.0,0.0,0.0,0.0,0.0,0.0,0.0,-3.571,-3.571,-3.571,-3.571,-3.6494,-3.7477,-3.859,-3.9247,-4.0115,-4.1055,-4.1256,-4.1456,-4.1588,-4.1588,-4.1588,-4.1588,-4.1588,-4.1588,-4.1588,-4.1588,-4.1588,-4.1588,-4.1189,-4.0935,-4.073,-4.0115,-3.9692,-3.9292,0.0,0.0,0.0,0.0,0.0,0.0,0.0,0.0,0.0,0.0,0.0,0.0,0.0,0.0,0.0,-2.2237,-2.2335,-2.2531,-2.2968,-2.3001,-2.3001,-2.3001,-2.3001,-2.3001,-2.3001,-2.2564,-2.2564,0.0,0.0,0.0,0.0,0.0,-2.5426,-2.5895,-2.5895,-2.5895,-2.5895,0.0,-2.5906,-2.5895,0.0,-2.5895,-2.5895,0.0,0.0,0.0,-2.6373,-2.6528,0.0,-2.7103,0.0,0.0,0.0,0.0,0.0,0.0,0.0,0.0,0.0,0.0,0.0,0.0,0.0,0.0,0.0,0.0,0.0,0.0,0.0,0.0,0.0,0.0,0.0,0.0,0.0,0.0,0.0,0.0,0.0,0.0,0.0,0.0,0.0,0.0,0.0,0.0,-3.571,-3.571,-3.571,-3.571,-3.571,-3.571,-3.7281,-3.825,-3.8679,-3.9677,-4.0615,-4.1522,-4.1055,-4.1055,-4.1588,-4.1588,-4.1588,-4.1588,-4.1588,-4.1588,-4.1588,-4.1588,-4.1588,-4.1588,-4.1588,-4.1256,-4.0715,-4.02,-3.996,-3.9748,0.0,0.0,0.0,0.0,0.0,0.0,0.0,0.0,0.0,0.0,0.0,0.0,0.0,0.0,-2.2029,-2.2291,-2.2619,-2.2859,-2.299,-2.3001,-2.3001,-2.3001,-2.3001,-2.3001,-2.3001,-2.2881,-2.3045,0.0,0.0,0.0,0.0,0.0,0.0,0.0,-2.5895,-2.5895,-2.5895,-2.5895,0.0,-2.5211,-2.5728,-2.579,0.0,0.0,0.0,0.0,0.0,-2.7278,-2.7103,0.0,-2.7452,-2.7185,0.0,0.0,0.0,0.0,0.0,0.0,-2.7881,0.0,0.0,0.0,0.0,0.0,0.0,0.0,0.0,0.0,0.0,0.0,0.0,0.0,0.0,0.0,0.0,0.0,0.0,0.0,0.0,0.0,0.0,0.0,0.0,0.0,0.0,0.0,-3.571,-3.571,-3.571,-3.571,-3.5884,-3.6232,-3.6886,-3.7491,-3.7886,-3.8929,-3.9722,-4.0393,-4.0631,-4.1055,-4.1588,-4.1588,-4.1588,-4.1588,-4.1588,-4.1588,-4.1588,-4.1588,-4.1588,-4.1588,-4.1588,-4.1522,-4.139,-4.1174,-4.06,-3.9819,0.0,0.0,0.0,0.0,0.0,0.0,0.0,0.0,0.0,0.0,0.0,0.0,0.0,0.0,-2.2608,-2.2608,-2.2848,-2.3001,-2.3001,-2.3001,-2.3001,-2.3001,-2.3001,-2.3001,-2.3001,-2.3001,-2.3241,0.0,0.0,0.0,0.0,0.0,0.0,0.0,0.0,0.0,0.0,0.0,0.0,0.0,-2.5968,0.0,0.0,-2.6599,-2.694,0.0,0.0,0.0,-2.7534,-2.803,-2.7869,0.0,0.0,0.0,0.0,0.0,0.0,0.0,0.0,0.0,0.0,0.0,0.0,0.0,-2.9341,-2.9639,0.0,0.0,0.0,0.0,0.0,0.0,0.0,0.0,0.0,0.0,0.0,0.0,0.0,0.0,0.0,0.0,0.0,-3.4774,-3.4977,-3.4977,-3.4977,-3.5086,-3.533,-3.5574,-3.5898,-3.6405,-3.6978,-3.7505,-3.7976,-3.887,-3.9666,-4.027,-4.0646,-4.1055,-4.1588,-4.1588,-4.1588,-4.1588,-4.1588,-4.1588,-4.1588,-4.1588,-4.1588,-4.1588,-4.1588,-4.1588,-4.1588,-4.1323,-4.0972,-4.0531,0.0,0.0,0.0,0.0,0.0,0.0,0.0,0.0,0.0,0.0,0.0,0.0,0.0,0.0,0.0,0.0,-2.3001,-2.3001,-2.3001,-2.3001,-2.3001,-2.3001,-2.3001,-2.3023,-2.3078,-2.3078,-2.3351,0.0,0.0,0.0,0.0,0.0,0.0,0.0,0.0,0.0,0.0,0.0,0.0,-2.6063,-2.6362,-2.6528,0.0,0.0,-2.7348,-2.7429,-2.7788,-2.7962,-2.8042,-2.8351,-2.8283,0.0,0.0,0.0,0.0,0.0,-2.851,0.0,0.0,0.0,0.0,0.0,0.0,0.0,-2.9197,-2.9263,-2.9639,0.0,0.0,0.0,0.0,0.0,0.0,0.0,0.0,0.0,0.0,0.0,0.0,0.0,0.0,0.0,-3.3774,-3.3842,-3.3869,-3.3869,-3.3869,-3.4099,-3.4706,-3.5235,-3.5694,-3.6119,-3.6916,-3.762,-3.8221,-3.9118,-3.995,-4.0715,-4.0799,-4.1055,-4.1588,-4.1588,-4.1588,-4.1588,-4.1588,-4.1588,-4.1588,-4.1588,-4.1588,-4.1588,-4.1588,-4.1588,-4.1522,-4.1055,-4.1122,-4.1323,0.0,0.0,0.0,0.0,0.0,0.0,0.0,0.0,0.0,0.0,0.0,0.0,0.0,0.0,0.0,0.0,-2.3001,-2.3001,-2.3001,-2.3001,-2.3001,-2.3001,-2.3001,-2.3187,-2.358,-2.3591,-2.4017,0.0,0.0,0.0,0.0,0.0,0.0,0.0,0.0,0.0,0.0,0.0,0.0,-2.694,-2.661,0.0,-2.7103,-2.7545,-2.795,-2.8259,-2.8351,-2.8351,-2.8351,-2.851,-2.8431,-2.8431,0.0,0.0,0.0,0.0,0.0,0.0,0.0,0.0,0.0,0.0,0.0,0.0,-2.8669,-2.8657,-2.8882,0.0,0.0,0.0,0.0,0.0,0.0,0.0,0.0,0.0,0.0,0.0,0.0,0.0,0.0,0.0,-3.324,-3.3661,-3.3869,-3.3869,-3.3869,-3.3923,-3.4032,-3.4153,-3.4299,-3.4376,-3.5369,-3.6157,-3.6538,-3.8001,-3.919,-4.0045,-4.0578,-4.1055,-4.1588,-4.1588,-4.1588,-4.1588,-4.1588,-4.1588,-4.1588,-4.1588,-4.1588,-4.1588,-4.1588,-4.1588,-4.1588,-4.1456,-4.1256,-4.0851,0.0,0.0,0.0,0.0,0.0,0.0,0.0,0.0,0.0,0.0,0.0,0.0,0.0,0.0,0.0,0.0,0.0,0.0,0.0,-2.3362,-2.3482,-2.3733,-2.3744,-2.3853,-2.4104,-2.4334,-2.4683,0.0,0.0,0.0,0.0,0.0,0.0,0.0,0.0,0.0,0.0,0.0,-2.6775,-2.7185,-2.7196,0.0,-2.7615,-2.803,-2.8351,-2.851,-2.851,-2.851,-2.851,-2.851,-2.851,0.0,0.0,-2.851,-2.851,0.0,-2.851,-2.851,0.0,0.0,0.0,-2.851,0.0,0.0,0.0,-2.851,-2.8657,0.0,0.0,0.0,0.0,0.0,0.0,0.0,0.0,0.0,0.0,0.0,0.0,0.0,0.0,0.0,-3.2616,-3.2888,-3.3064,-3.3064,-3.3335,-3.3498,-3.3498,-3.3783,-3.4023,-3.4251,-3.4768,-3.5224,-3.5616,-3.691,-3.7923,-3.8696,-3.9748,-4.054,-4.1099,-4.143,-4.1588,-4.1588,-4.1588,-4.1588,-4.1588,-4.1588,-4.1588,-4.1588,-4.1588,-4.1588,-4.1588,-4.1588,-4.1256,-4.0715,0.0,0.0,0.0,0.0,0.0,0.0,0.0,0.0,0.0,0.0,0.0,0.0,0.0,0.0,0.0,0.0,0.0,0.0,0.0,0.0,-2.404,-2.4465,-2.4566,-2.4598,-2.4618,-2.5139,-2.5462,-2.5469,0.0,0.0,0.0,0.0,0.0,0.0,0.0,0.0,0.0,0.0,0.0,-2.751,0.0,-2.7962,-2.7962,-2.8363,-2.851,-2.851,-2.851,-2.851,-2.851,-2.851,-2.851,-2.851,-2.851,-2.851,0.0,0.0,0.0,0.0,0.0,0.0,0.0,0.0,0.0,-2.851,0.0,0.0,0.0,0.0,0.0,0.0,0.0,0.0,0.0,0.0,0.0,0.0,0.0,0.0,0.0,0.0,0.0,0.0,0.0,-3.2182,-3.2182,-3.2182,-3.2616,-3.2901,-3.2901,-3.3349,-3.3758,-3.4134,-3.4245,-3.4524,-3.491,-3.5899,-3.6722,-3.7291,-3.8718,-3.9676,-4.0275,-4.081,-4.1128,-4.1193,-4.1193,-4.1193,-4.1193,-4.1193,-4.1193,-4.1209,-4.1478,-4.1588,-4.1588,-4.1456,-4.1189,-4.073,-2.2604,-2.2249,0.0,0.0,0.0,0.0,0.0,0.0,0.0,0.0,0.0,0.0,0.0,0.0,0.0,0.0,0.0,0.0,-2.4234,0.0,0.0,-2.4465,-2.4859,-2.5047,-2.5087,-2.5949,-2.6347,-2.6356,0.0,0.0,0.0,0.0,0.0,0.0,-2.7185,0.0,0.0,0.0,-2.795,0.0,-2.8431,-2.8203,0.0,-2.8363,-2.851,-2.851,-2.851,-2.851,-2.851,0.0,-2.851,-2.851,0.0,-2.851,-2.851,-2.851,0.0,0.0,0.0,0.0,0.0,0.0,-2.851,0.0,0.0,0.0,0.0,-2.859,0.0,-2.8445,-2.8041,0.0,0.0,0.0,0.0,0.0,0.0,0.0,0.0,0.0,0.0,0.0,0.0,-3.2182,-3.2182,-3.2182,-3.2236,-3.2277,-3.2277,-3.2345,-3.2459,-3.2445,-3.2962,-3.3457,-3.39,-3.5324,-3.6299,-3.6722,-3.7707,-3.8453,-3.9023,-3.9085,-3.9374,-3.974,-3.974,-3.974,-3.974,-3.974,-3.974,-3.9866,-4.1099,-4.1588,-4.1522,-4.1055,-4.0867,-4.0662,-2.2791,-2.2537,0.0,0.0,0.0,0.0,0.0,0.0,0.0,0.0,0.0,0.0,0.0,0.0,0.0,0.0,0.0,-2.5279,0.0,0.0,0.0,0.0,-2.6245,-2.6336,-2.6389,-2.6713,-2.6897,-2.694,-2.7103,0.0,0.0,0.0,0.0,0.0,-2.7846,0.0,-2.8191,0.0,-2.8122,0.0,0.0,0.0,0.0,-2.8431,-2.851,-2.851,-2.851,-2.851,-2.851,0.0,-2.851,0.0,0.0,0.0,0.0,0.0,0.0,0.0,0.0,0.0,0.0,0.0,0.0,0.0,-2.851,0.0,-2.851,0.0,0.0,0.0,0.0,0.0,0.0,0.0,-2.741,0.0,0.0,0.0,0.0,0.0,0.0,0.0,0.0,0.0,0.0,0.0,-3.2182,-3.2182,-3.2182,-3.2182,-3.2182,-3.2182,-3.2426,-3.2622,-3.2841,-3.4172,-3.4903,-3.5111,-3.6914,-3.7926,-3.8213,-3.8888,-3.9314,-3.9503,-3.9503,-3.9503,-3.9503,-3.9503,-3.9503,-3.9566,-4.0151,-4.0372,-4.0372,-4.013,-3.9869,-3.9539,-2.326,0.0,0.0,0.0,0.0,0.0,0.0,0.0,0.0,0.0,0.0,0.0,-2.3787,-2.4759,0.0,0.0,-2.5923,-2.6233,0.0,0.0,-2.6828,0.0,0.0,0.0,0.0,-2.7429,-2.7522,-2.736,-2.7522,0.0,0.0,0.0,0.0,0.0,0.0,-2.851,-2.851,0.0,0.0,-2.851,-2.8203,-2.8283,-2.851,-2.851,-2.851,-2.851,-2.851,-2.851,-2.851,-2.851,-2.851,0.0,-2.851,0.0,0.0,0.0,0.0,0.0,-2.851,0.0,0.0,0.0,0.0,0.0,0.0,0.0,0.0,0.0,0.0,0.0,0.0,0.0,-2.661,0.0,0.0,-2.7065,0.0,0.0,0.0,0.0,0.0,0.0,0.0,0.0,0.0,0.0,0.0,-3.1938,-3.1938,-3.2087,-3.2182,-3.2182,-3.2182,-3.2241,-3.2314,-3.3311,-3.3837,-3.3988,-3.606,-3.709,-3.7232,-3.8263,-3.881,-3.895,-3.895,-3.895,-3.895,-3.895,-3.895,-3.895,-3.895,-3.895,-3.8997,-3.9172,-3.906,-3.8688,-2.4218,-2.4085,0.0,0.0,0.0,0.0,0.0,0.0,0.0,0.0,0.0,0.0,0.0,0.0,0.0,0.0,0.0,-2.6924,-2.7035,0.0,-2.7135,0.0,0.0,-2.7626,0.0,0.0,-2.8271,-2.7881,0.0,0.0,0.0,0.0,0.0,0.0,0.0,-2.851,-2.851,-2.851,-2.851,-2.851,-2.851,-2.851,-2.851,0.0,-2.851,-2.851,-2.851,0.0,0.0,-2.851,-2.851,0.0,0.0,0.0,0.0,0.0,0.0,0.0,0.0,0.0,0.0,-2.851,0.0,0.0,0.0,0.0,-2.8366,0.0,0.0,0.0,0.0,-2.6142,0.0,0.0,0.0,0.0,0.0,0.0,0.0,0.0,0.0,0.0,0.0,0.0,0.0,0.0,0.0,0.0,-3.1327,-3.187,-3.2182,-3.2182,-3.2182,-3.2372,-3.2704,-3.3129,-3.3479,-3.3839,-3.4787,-3.5509,-3.6006,-3.6569,-3.7091,-3.7543,-3.7543,-3.7543,-3.7543,-3.7543,-3.7543,-3.7543,-3.7543,-3.7543,-3.7642,-3.8464,-3.8688,-3.8608,0.0,0.0,0.0,0.0,0.0,0.0,0.0,-2.4722,0.0,0.0,0.0,0.0,0.0,-2.6983,-2.7431,0.0,0.0,-2.7975,-2.7985,-2.7997,0.0,0.0,0.0,-2.8191,0.0,0.0,0.0,0.0,0.0,0.0,0.0,0.0,0.0,0.0,0.0,-2.851,0.0,0.0,0.0,0.0,0.0,-2.851,-2.851,0.0,0.0,-2.851,-2.851,-2.851,0.0,-2.851,-2.851,-2.851,-2.851,-2.851,-2.851,-2.851,-2.851,0.0,0.0,0.0,-2.851,-2.851,0.0,0.0,0.0,0.0,0.0,0.0,0.0,0.0,0.0,0.0,0.0,0.0,0.0,0.0,0.0,0.0,0.0,0.0,0.0,0.0,0.0,0.0,0.0,0.0,-3.0304,0.0,-3.0703,-3.1273,-3.1728,-3.1913,-3.2297,-3.2704,-3.3058,-3.3479,-3.3701,-3.3839,-3.4773,-3.5285,-3.5479,-3.5928,-3.6243,-3.643,-3.643,-3.6631,-3.6968,-3.6968,-3.7165,-3.748,-3.748,-3.748,-3.7528,-3.782,-3.767,-3.728,-2.5312,0.0,0.0,0.0,0.0,0.0,0.0,0.0,0.0,0.0,-2.6569,0.0,-2.7193,0.0,-2.8122,0.0,-2.8351,-2.851,-2.851,-2.851,0.0,-2.851,-2.851,0.0,0.0,0.0,0.0,0.0,0.0,-2.851,0.0,0.0,0.0,0.0,0.0,0.0,-2.851,0.0,-2.851,0.0,0.0,-2.851,0.0,0.0,-2.851,-2.851,0.0,-2.851,-2.851,-2.851,-2.851,-2.851,-2.851,-2.851,-2.851,-2.851,-2.851,-2.851,-2.851,-2.851,0.0,-2.851,-2.851,0.0,-2.851,0.0,0.0,0.0,0.0,0.0,0.0,0.0,0.0,0.0,0.0,0.0,0.0,-2.5312,0.0,0.0,0.0,0.0,0.0,0.0,0.0,-2.8924,-2.9672,-3.0079,0.0,0.0,-3.1101,-3.1474,-3.2068,-3.2667,-3.3154,-3.3587,-3.3839,-3.3991,-3.4839,-3.5169,-3.5234,-3.5672,-3.5976,-3.618,-3.618,-3.6383,-3.6723,-3.6723,-3.6769,-3.6952,-3.6952,-3.6952,-3.6952,-3.7345,-3.7285,-3.6907,0.0,0.0,0.0,0.0,-2.5781,0.0,0.0,0.0,-2.7164,0.0,-2.7765,-2.7957,-2.8498,-2.8546,-2.8558,-2.8595,-2.8595,-2.857,-2.8546,-2.8546,0.0,0.0,-2.851,-2.851,-2.851,0.0,0.0,0.0,0.0,0.0,0.0,0.0,0.0,0.0,-2.851,0.0,-2.851,-2.851,-2.851,-2.851,-2.851,-2.851,-2.851,-2.851,-2.851,-2.851,-2.851,-2.851,-2.851,-2.851,-2.851,-2.851,-2.851,-2.851,-2.851,-2.851,-2.851,-2.851,-2.851,-2.851,-2.851,-2.851,0.0,0.0,0.0,0.0,-2.8186,0.0,0.0,0.0,0.0,0.0,0.0,0.0,0.0,0.0,0.0,0.0,0.0,0.0,0.0,0.0,0.0,0.0,-2.7242,-2.7709,-2.8838,-2.9494,0.0,0.0,-3.0556,-3.092,-3.1515,-3.2192,-3.2911,-3.3496,-3.4016,-3.4414,-3.492,-3.5169,-3.5169,-3.5608,-3.6117,-3.66,-3.66,-3.6585,-3.6662,-3.6662,-3.6321,-3.5913,-3.5913,-3.5913,-3.6039,-3.7013,-3.7464,-3.7421,-2.5312,-2.5624,-2.6033,0.0,-2.6286,-2.637,0.0,0.0,0.0,0.0,-2.8306,-2.851,-2.9039,-2.9088,-2.9256,-2.9641,-2.9689,0.0,0.0,0.0,0.0,-2.8522,-2.851,-2.851,-2.851,-2.851,0.0,-2.851,0.0,0.0,-2.851,0.0,0.0,0.0,0.0,0.0,-2.851,-2.851,-2.851,-2.851,-2.851,-2.851,0.0,0.0,-2.851,-2.851,-2.851,-2.851,-2.851,-2.851,-2.851,-2.851,-2.851,-2.851,-2.851,-2.851,-2.851,-2.851,-2.851,-2.851,-2.851,-2.851,-2.851,-2.851,0.0,0.0,0.0,0.0,0.0,0.0,0.0,0.0,0.0,0.0,0.0,0.0,0.0,0.0,0.0,-2.5312,0.0,0.0,0.0,-2.6414,-2.704,-2.7175,-2.8448,-2.9206,-2.9206,0.0,0.0,-3.0984,-3.1579,-3.2345,-3.3324,-3.3483,-3.3868,-3.4414,-3.4534,-3.4601,-3.4601,-3.4721,-3.4854,-3.4986,-3.4986,-3.5249,-3.5559,-3.5559,-3.5737,-3.5913,-3.5913,-3.6117,-3.6461,-3.6383,-3.6831,-3.7345,-2.5612,0.0,0.0,-2.7188,0.0,0.0,-2.7633,0.0,0.0,-2.8823,-2.9051,0.0,-2.9617,-2.9641,-2.9761,-3.0062,-3.0086,0.0,-2.9665,0.0,0.0,-2.8871,-2.8643,-2.851,-2.851,-2.851,0.0,-2.851,0.0,0.0,-2.851,0.0,0.0,0.0,0.0,-2.851,0.0,-2.851,-2.851,-2.851,-2.851,0.0,0.0,-2.851,-2.851,-2.851,-2.851,-2.851,-2.851,-2.851,-2.851,-2.851,-2.851,-2.851,-2.851,-2.851,-2.851,-2.851,-2.851,-2.851,-2.851,-2.851,-2.8578,-2.8657,-2.8657,-2.8506,-2.8147,0.0,0.0,0.0,0.0,0.0,0.0,0.0,0.0,0.0,0.0,0.0,0.0,0.0,-2.5535,0.0,0.0,-2.6151,-2.6769,-2.7095,-2.7829,-2.843,0.0,0.0,0.0,-3.0611,-3.1197,-3.1904,-3.2614,-3.318,-3.3645,-3.4008,-3.4283,-3.4414,-3.4414,-3.4414,-3.4534,-3.4721,-3.4721,-3.492,-3.5169,-3.5169,-3.5234,-3.5285,-3.5479,-3.607,-3.6646,-3.6383,-3.6769,-3.7405,0.0,0.0,0.0,0.0,0.0,0.0,0.0,-2.8703,0.0,-2.9304,0.0,-3.011,-3.0182,-3.0194,-3.0218,-3.029,0.0,-3.0266,-3.0194,-2.9761,-2.9448,-2.9304,-2.8859,-2.8582,-2.851,-2.851,-2.851,0.0,0.0,0.0,0.0,0.0,0.0,0.0,0.0,0.0,0.0,-2.851,-2.851,-2.851,-2.851,-2.851,-2.851,-2.851,-2.859,-2.859,-2.859,-2.851,-2.851,-2.851,-2.851,-2.851,-2.851,-2.851,-2.851,-2.851,-2.859,-2.859,-2.859,-2.859,-2.859,-2.859,-2.8736,-2.8882,-2.8882,-2.8961,-2.8848,-2.784,-2.757,-2.7286,0.0,0.0,0.0,0.0,0.0,0.0,0.0,0.0,0.0,0.0,0.0,0.0,0.0,0.0,-2.6496,-2.7095,-2.7229,-2.7696,0.0,0.0,0.0,-3.0111,-3.0673,-3.1113,-3.1526,0.0,-3.3296,-3.3485,-3.4022,-3.4327,-3.4414,-3.4414,-3.4668,-3.5103,-3.5103,-3.5103,-3.5103,-3.5103,-3.4854,-3.4534,-3.5169,-3.5879,-3.6585,-3.6646,-3.6968,-3.7225,0.0,0.0,0.0,0.0,0.0,-2.9027,-2.9027,-2.9184,-2.9304,-2.9304,-2.9761,-3.0254,-3.0687,-3.0735,-3.0915,-3.1348,-3.1384,0.0,0.0,0.0,0.0,-2.934,-2.9208,-2.8955,-2.8522,-2.851,-2.851,0.0,0.0,0.0,0.0,0.0,0.0,0.0,0.0,0.0,-2.851,-2.851,0.0,-2.851,-2.851,-2.8578,-2.8724,-2.8724,-2.8882,-2.8973,-2.8973,-2.8749,-2.851,-2.8724,-2.8657,-2.851,-2.8724,-2.8724,-2.8724,-2.8724,-2.8882,-2.8973,-2.8973,-2.8973,-2.8973,-2.8973,-2.9052,-2.9052,-2.9052,-2.9052,-2.8946,-2.8523,-2.8052,-2.7556,-2.6959,0.0,0.0,0.0,0.0,0.0,0.0,0.0,0.0,0.0,0.0,-2.591,0.0,0.0,0.0,0.0,0.0,0.0,0.0,0.0,0.0,0.0,-3.0623,0.0,0.0,0.0,-3.2411,-3.347,-3.3587,-3.3906,-3.4414,-3.4414,-3.4481,-3.4534,-3.4534,-3.4534,-3.4534,-3.4534,-3.4735,-3.5169,-3.607,-3.6258,-3.6117,-3.6523,-3.6445,-3.6305,0.0,0.0,0.0,0.0,0.0,0.0,0.0,-3.0096,0.0,-3.011,-3.0579,-3.0999,-3.1252,-3.1288,-3.1384,-3.1637,-3.1661,-3.1553,-3.13,-3.1023,-3.0651,-3.0146,-2.9593,0.0,-2.8931,-2.8655,-2.851,-2.851,0.0,0.0,0.0,0.0,0.0,0.0,0.0,-2.851,0.0,0.0,0.0,-2.851,-2.8578,-2.8724,-2.8791,-2.8882,-2.9052,-2.9131,-2.9131,-2.8973,-2.8828,-2.8882,-2.8895,-2.8816,-2.8895,-2.8973,-2.8973,-2.8973,-2.904,-2.9131,-2.9131,-2.9131,-2.9131,-2.9131,-2.9197,-2.9275,-2.9275,-2.9365,-2.9294,-2.8875,-2.8338,-2.764,-2.6735,-2.6293,0.0,0.0,0.0,0.0,0.0,0.0,0.0,0.0,0.0,0.0,0.0,0.0,0.0,0.0,0.0,0.0,0.0,0.0,0.0,0.0,0.0,0.0,0.0,0.0,0.0,-3.2469,-3.3151,-3.363,-3.3935,-3.4269,-3.4414,-3.4414,-3.4414,-3.4414,-3.4414,-3.4414,-3.4735,-3.5234,-3.5752,-3.5928,-3.5913,-3.618,-3.6321,-3.6383,0.0,-2.8955,0.0,0.0,-3.0297,0.0,-3.0662,-3.1113,-3.1332,-3.0977,-3.1336,-3.1749,-3.1761,-3.1761,-3.1761,-3.1849,-3.1849,-3.1849,-3.1849,-3.145,-3.1172,-3.1051,-3.0144,-2.9588,-2.9467,-2.8947,-2.859,0.0,0.0,0.0,0.0,0.0,0.0,0.0,0.0,0.0,0.0,0.0,-2.859,-2.8669,-2.8803,-2.8882,-2.8949,-2.9118,-2.9209,-2.9221,-2.9221,-2.9221,-2.9221,-2.9221,-2.9209,-2.9131,-2.9131,-2.9131,-2.9131,-2.9131,-2.9209,-2.9221,-2.9221,-2.9221,-2.9221,-2.9221,-2.9365,-2.9509,-2.9509,-2.9611,-2.9666,-2.9202,-2.8574,-2.7698,-2.6469,-2.627,0.0,0.0,0.0,0.0,0.0,0.0,0.0,0.0,0.0,0.0,-2.627,0.0,0.0,0.0,0.0,0.0,0.0,0.0,0.0,0.0,0.0,-3.0568,-3.0568,0.0,-3.138,-3.1526,-3.2556,-3.3195,-3.3485,-3.3978,-3.4283,-3.4414,-3.4414,-3.4414,-3.4414,-3.4534,-3.4787,-3.5234,-3.5299,-3.5544,-3.5913,-3.5785,-3.5991,-3.6399,0.0,0.0,0.0,0.0,0.0,0.0,-3.1515,-3.1958,-3.1956,-3.1026,-3.1336,-3.1749,-3.1937,-3.195,-3.2038,-3.23,-3.23,-3.23,-3.23,-3.2264,-3.2006,-3.1516,-3.0928,-3.0388,-2.9991,-2.9346,-2.8973,0.0,0.0,-2.8403,0.0,0.0,0.0,0.0,0.0,0.0,0.0,-2.8803,-2.8882,-2.9052,-2.9052,-2.9197,-2.9341,-2.9341,-2.9521,-2.9714,-2.9714,-2.9714,-2.9714,-2.9714,-2.9456,-2.9131,-2.9353,-2.9341,-2.9341,-2.9341,-2.9521,-2.9714,-2.9714,-2.9714,-2.9714,-2.9714,-2.9792,-2.9792,-2.9792,-2.9792,-2.9779,-2.9729,-2.885,-2.777,-2.6666,-2.6465,-2.6465,0.0,0.0,0.0,0.0,0.0,0.0,0.0,0.0,0.0,0.0,-2.6465,0.0,0.0,0.0,0.0,0.0,0.0,0.0,-3.0568,0.0,-3.0568,-3.0568,-3.064,-3.0945,-3.1526,-3.1642,-3.2324,-3.347,-3.3529,-3.3862,-3.4414,-3.4414,-3.4414,-3.4414,-3.4905,-3.5169,-3.5234,-3.5672,-3.5849,-3.5849,-3.5415,-3.5299,-3.5365,0.0,0.0,0.0,0.0,0.0,0.0,0.0,-3.2414,-3.2389,-3.1833,-3.1991,-3.2125,-3.2213,-3.2213,-3.23,-3.24,-3.24,-3.24,-3.24,-3.24,-3.2302,-3.2081,-3.1552,-3.1011,-3.047,-2.9917,-2.9383,0.0,0.0,0.0,0.0,0.0,0.0,0.0,0.0,-2.8895,-2.8961,-2.8961,-2.9052,-2.9131,-2.9197,-2.9341,-2.9419,-2.9599,-2.9702,-2.9792,-2.9792,-2.9792,-2.9792,-2.9792,-2.9714,-2.9546,-2.9611,-2.9611,-2.9611,-2.9611,-2.9702,-2.9792,-2.9792,-2.9792,-2.9792,-2.9792,-2.9792,-2.9792,-2.9792,-2.9792,-2.9792,-2.9792,-2.8888,-2.777,-2.6666,-2.6533,-2.6533,0.0,0.0,0.0,0.0,0.0,0.0,0.0,0.0,0.0,0.0,0.0,0.0,0.0,0.0,0.0,0.0,0.0,0.0,-3.0007,0.0,-3.0568,-3.0568,-3.0568,-3.0698,-3.0945,-3.1337,-3.1787,-3.2324,-3.3108,-3.3819,-3.4414,-3.4414,-3.4414,-3.4414,-3.4601,-3.4735,-3.4735,-3.492,-3.4971,-3.4971,-3.4787,-3.492,-3.5169,-3.1112,0.0,-3.1953,0.0,-3.2548,-3.281,-3.281,-3.281,-3.281,-3.2649,-3.2649,-3.2562,-3.2475,-3.2475,-3.2562,-3.2562,-3.2649,-3.2649,-3.2649,-3.2649,-3.2649,-3.2649,-3.2031,0.0,-3.1026,-3.0412,-2.9856,-2.9197,-2.904,0.0,0.0,0.0,0.0,0.0,-2.9131,-2.9131,-2.9197,-2.9197,-2.9209,-2.93,-2.9443,-2.9509,-2.9521,-2.9702,-2.9792,-2.9792,-2.9792,-2.9792,-2.9792,-2.9792,-2.9792,-2.9792,-2.9792,-2.9792,-2.9792,-2.9792,-2.9792,-2.9792,-2.9792,-2.9792,-2.9792,-2.9792,-2.9792,-2.9792,-2.9792,-2.9792,-2.9691,-2.9365,-2.8662,-2.777,-2.6666,-2.6533,-2.6533,-2.6533,0.0,0.0,0.0,0.0,0.0,0.0,-2.6533,-2.6533,-2.6533,-2.6533,0.0,0.0,0.0,0.0,0.0,0.0,0.0,0.0,0.0,0.0,0.0,-3.0568,-3.0568,-3.0582,-3.1032,-3.1337,-3.1569,-3.2875,-3.3703,-3.4153,-3.4327,-3.4414,-3.4414,-3.4414,-3.4414,-3.4414,-3.4414,-3.4481,-3.4601,-3.4481,-3.4854,-3.5415,-3.2018,-3.2059,-3.2162,-3.2968,-3.3068,-3.3081,-3.3081,-3.3081,-3.3068,-3.3081,-3.3081,-3.2982,-3.2723,-3.2711,-3.2797,-3.3068,-3.3081,-3.3081,-3.3081,-3.3081,-3.3081,0.0,0.0,-3.1951,-3.1399,-3.0884,-3.0161,-2.9419,0.0,0.0,-2.8332,0.0,-2.8627,-2.9131,-2.9131,-2.9197,-2.9419,-2.9419,-2.9521,-2.9792,-2.9792,-2.9792,-2.9792,-2.9792,-2.9792,-2.9792,-2.9792,-2.9792,-2.9792,-2.9792,-2.9792,-2.9792,-2.9792,-2.9792,-2.9792,-2.9792,-2.9792,-2.9792,-2.9792,-2.9792,-2.9792,-2.9792,-2.9792,-2.9792,-2.9792,-2.9792,-2.9478,-2.836,-2.8109,-2.777,-2.6666,-2.6533,-2.6533,-2.6533,0.0,0.0,0.0,0.0,0.0,0.0,-2.6533,-2.6533,-2.6533,-2.6533,0.0,0.0,0.0,0.0,0.0,0.0,0.0,-3.0568,-3.0568,0.0,-3.0568,-3.0568,-3.0568,-3.0568,-3.0582,-3.0916,-3.1569,-3.2875,-3.347,-3.3514,-3.4138,-3.4414,-3.4414,-3.4414,-3.4414,-3.4414,-3.4414,-3.4735,-3.5103,-3.4601,-3.5037,-3.5864,-3.2692,-3.2719,-3.2782,-3.3043,-3.3081,-3.3081,-3.3081,-3.3081,-3.3081,-3.3081,-3.3081,-3.3068,-3.2982,-3.2982,-3.2982,0.0,-3.3081,-3.3081,0.0,-3.3081,-3.3081,-3.3081,-3.2905,-3.2541,-3.1964,-3.1424,-3.0871,-3.0253,0.0,0.0,0.0,-2.9015,-2.9269,-2.9546,-2.9546,-2.9624,-2.9689,-2.9689,-2.9702,-2.9792,-2.9792,-2.9792,-2.9792,-2.9792,-2.9792,-2.9792,-2.9792,-2.9792,-2.9792,-2.9792,-2.9792,-2.9792,-2.9792,-2.9792,-2.9792,-2.9792,-2.9792,-2.9792,-2.9792,-2.9792,-2.9792,-2.9792,-2.9792,-2.9792,-2.9792,-2.9792,-2.9478,-2.8335,-2.8109,-2.777,-2.6666,-2.6533,-2.6533,-2.6533,-2.6533,0.0,0.0,0.0,0.0,0.0,-2.6533,-2.6533,0.0,-2.6533,0.0,0.0,0.0,0.0,0.0,0.0,0.0,0.0,-3.0387,0.0,-3.0568,-3.0568,-3.0568,-3.0568,-3.0568,-3.0916,-3.1526,-3.1946,-3.2629,-3.3485,-3.3674,-3.4008,-3.4414,-3.4414,-3.4414,-3.437,-3.3935,-3.3893,-3.3966,-3.3347,-3.3544,-3.402,-3.3006,-3.3081,-3.3081,-3.3081,-3.3081,-3.3081,-3.3081,-3.3081,-3.3081,-3.3081,-3.3081,-3.3081,-3.3081,-3.3081,0.0,-3.3081,-3.3081,-3.3081,-3.3081,-3.3081,-3.3081,-3.3081,-3.3081,-3.2805,-3.2227,-3.1675,0.0,-3.062,-2.9874,-2.9521,-2.9521,-2.9521,-2.9611,-2.9792,-2.9792,-2.9792,-2.9792,-2.9792,-2.9792,-2.9792,-2.9792,-2.9792,-2.9792,-2.9792,-2.9792,-2.9792,-2.9792,-2.9792,-2.9792,-2.9792,-2.9792,-2.9792,-2.9792,-2.9792,-2.9792,-2.9792,-2.9792,-2.9792,-2.9792,-2.9792,-2.9792,-2.9792,-2.9792,-2.9792,-2.9792,-2.9792,-2.9478,-2.8335,-2.8109,-2.777,-2.6666,-2.6533,-2.6533,-2.6533,-2.6533,-2.6533,-2.6533,0.0,0.0,0.0,0.0,0.0,0.0,-2.6533,-2.6533,0.0,0.0,0.0,0.0,0.0,0.0,-2.956,-3.0251,0.0,-3.0568,-3.0568,-3.0568,-3.0568,-3.0568,-3.0785,-3.1177,-3.1409,-3.1961,-3.2774,-3.3253,-3.3688,-3.4051,-3.4051,-3.4051,-3.3993,-3.3369,-3.3237,-3.3372,-3.2898,-3.3161,-3.3744,-3.3081,-3.3081,-3.3081,0.0,-3.3081,0.0,-3.3081,-3.3081,-3.3081,-3.3081,-3.3081,-3.3081,-3.3081,-3.3081,-3.3081,-3.3081,0.0,0.0,0.0,-3.3081,-3.3081,-3.3081,-3.3081,-3.283,-3.2277,-3.17,-3.1122,-3.0557,-3.0043,-2.9792,-2.9792,-2.9792,-2.9792,-2.9792,-2.9792,-2.9792,-2.9792,-2.9792,-2.9792,-2.9792,-2.9792,-2.9792,-2.9792,-2.9792,-2.9792,-2.9792,-2.9792,-2.9792,-2.9792,-2.9792,-2.9792,-2.9792,-2.9792,-2.9792,-2.9792,-2.9792,-2.9792,-2.9792,-2.9792,-2.9792,-2.9792,-2.9792,-2.9792,-2.9792,-2.9792,-2.9792,-2.9478,-2.8335,-2.8109,-2.777,-2.6666,-2.6533,-2.6533,-2.6533,-2.6533,-2.6533,-2.6533,0.0,0.0,0.0,0.0,0.0,0.0,-2.6533,-2.6533,0.0,0.0,0.0,0.0,0.0,-2.8826,-2.956,-3.0251,-3.0568,-3.0568,-3.0568,-3.0568,-3.0568,-3.0568,-3.0568,-3.0597,-3.1177,-3.1496,-3.1656,-3.2875,-3.3427,-3.347,-3.347,-3.3441,-3.334,-3.2701,-3.2742,-3.3087,-3.3104,-3.3668,-3.4434,0.0,0.0,-3.3081,-3.3081,-3.3081,-3.3081,-3.3081,-3.3081,-3.3081,-3.3081,-3.3081,-3.3081,-3.3081,-3.3081,-3.3081,-3.3081,-3.3081,-3.3081,-3.3081,-3.3081,-3.3081,-3.3081,-3.3081,-3.3018,-3.288,-3.1901,-3.0934,-2.9993,-2.9854,-2.9792,-2.9792,-2.9792,-2.9792,-2.9792,-2.9792,-2.9792,-2.9792,-2.9792,-2.9792,-2.9792,-2.9792,-2.9792,-2.9792,-2.9792,-2.9792,-2.9792,-2.9792,-2.9792,-2.9792,-2.9792,-2.9792,-2.9792,-2.9792,-2.9792,-2.9792,-2.9792,-2.9792,-2.9792,-2.9792,-2.9792,-2.9792,-2.9792,-2.9792,-2.9792,-2.9792,-2.9792,-2.9478,-2.8335,-2.8109,-2.777,-2.6666,-2.6533,-2.6533,-2.6533,-2.6533,-2.6533,-2.6533,-2.6533,0.0,0.0,-2.6533,-2.6533,-2.6533,-2.6533,-2.6533,0.0,0.0,0.0,0.0,-2.7855,-2.8826,-2.956,-3.0251,-3.0568,-3.0568,-3.0568,-3.0568,-3.0568,-3.0568,-3.0568,-3.0568,-3.0727,-3.1337,-3.2295,-3.2614,-3.3021,-3.347,-3.347,-3.318,-3.2672,-3.2379,-3.2115,-3.1918,-3.2123,-3.2349,-3.2577,-3.3081,-3.3081,-3.3081,-3.3081,-3.3081,-3.3081,-3.3081,-3.3081,-3.3081,-3.3081,-3.3081,-3.3081,-3.3081,-3.3081,-3.3081,-3.3081,-3.3081,-3.3081,-3.3081,-3.3081,-3.3081,-3.3081,-3.3081,-3.3081,-3.3081,-3.1964,-3.0871,-2.9792,-2.9792,-2.9792,-2.9792,-2.9792,-2.9792,-2.9792,-2.9792,-2.9792,-2.9792,-2.9792,-2.9792,-2.9792,-2.9792,-2.9792,-2.9792,-2.9792,-2.9792,-2.9792,-2.9792,-2.9792,-2.9792,-2.9792,-2.9792,-2.9792,-2.9792,-2.9792,-2.9792,-2.9792,-2.9792,-2.9792,-2.9792,-2.9792,-2.9792,-2.9792,-2.9792,-2.9792,-2.9792,-2.9792,-2.9478,-2.8335,-2.8109,-2.777,-2.6666,-2.6533,-2.6533,-2.6533,-2.6533,-2.6533,-2.6533,-2.6533,0.0,-2.6533,-2.6533,-2.6533,-2.6533,-2.6533,-2.6533,-2.6533,-2.6533,0.0,-2.6533,-2.7802,-2.8684,-2.9093,-3.0054,-3.0568,-3.0568,-3.0568,-3.0568,-3.0568,-3.0568,-3.0568,-3.0582,-3.0872,-3.1395,-3.2092,-3.2687,-3.3151,-3.3441,-3.3151,-3.2832,-3.2425,-3.176,-3.1439,-3.1455,-3.1787,-3.2048,-3.2312,-3.3081,-3.3081,-3.3081,-3.3081,-3.3081,-3.3081,-3.3081,-3.3081,-3.3081,-3.3081,-3.3081,-3.3081,-3.3081,-3.3081,-3.3081,-3.3081,-3.3081,-3.3081,-3.3081,-3.3081,-3.3081,-3.3081,-3.3081,-3.3081,-3.3081,-3.1964,-3.0871,-2.9792,-2.9792,-2.9792,-2.9792,-2.9792,-2.9792,-2.9792,-2.9792,-2.9792,-2.9792,-2.9792,-2.9792,-2.9792,-2.9792,-2.9792,-2.9792,-2.9792,-2.9792,-2.9792,-2.9792,-2.9792,-2.9792,-2.9792,-2.9792,-2.9792,-2.9792,-2.9792,-2.9792,-2.9792,-2.9792,-2.9792,-2.9792,-2.9792,-2.9792,-2.9792,-2.9792,-2.9792,-2.9792,-2.9792,-2.9478,-2.8335,-2.8109,-2.777,-2.6666,-2.6533,-2.6533,-2.6533,-2.6533,-2.6533,-2.6533,0.0,-2.6533,-2.6533,-2.6533,-2.6533,-2.6533,-2.6533,-2.6533,-2.6533,-2.6533,-2.6533,-2.6533,-2.7802,-2.8492,-2.8492,-2.9856,-3.0568,-3.0568,-3.0568,-3.0568,-3.0568,-3.0669,-3.0727,-3.0742,-3.138,-3.1729,-3.1874,-3.2991,-3.347,-3.3493,-3.289,-3.2542,-3.2251,-3.1209,-3.1013,-3.1336,-3.1823,-3.2256,-3.2749,-3.3081,-3.3081,-3.3081,-3.3081,-3.3081,-3.3081,-3.3081,-3.3081,-3.3081,-3.3081,-3.3081,-3.3081,-3.3081,-3.3081,-3.3081,-3.3081,-3.3081,-3.3081,-3.3081,-3.3081,-3.3081,-3.3081,-3.3081,-3.3081,-3.3081,-3.1964,-3.0871,-2.9792,-2.9792,-2.9792,-2.9792,-2.9792,-2.9792,-2.9792,-2.9792,-2.9792,-2.9792,-2.9792,-2.9792,-2.9792,-2.9792,-2.9792,-2.9792,-2.9792,-2.9792,-2.9792,-2.9792,-2.9792,-2.9792,-2.9792,-2.9792,-2.9792,-2.9792,-2.9792,-2.9792,-2.9792,-2.9792,-2.9792,-2.9792,-2.9792,-2.9792,-2.9792,-2.9792,-2.9792,-2.9792,-2.9792,-2.9478,-2.8335,-2.8109,-2.777,-2.6666,-2.6533,-2.6533,-2.6533,-2.6533,-2.6533,-2.6533,0.0,-2.6533,-2.6533,-2.6533,-2.6533,-2.6533,-2.6533,-2.6533,-2.6533,-2.6533,-2.6533,-2.6533,-2.7802,-2.8492,-2.8492,-2.9856,-3.0568,-3.0568,-3.0568,-3.0568,-3.0582,-3.1119,-3.1366,-3.1395,-3.2063,-3.2658,-3.318,-3.3383,-3.347,-3.3456,-3.3369,-3.2672,-3.1656,-3.1867,-3.1708,-3.1394,-3.2216,-3.2695,-3.2949,-3.3823,-3.3411,-3.3081,-3.3081,-3.3081,-3.3081,-3.3081,-3.3081,-3.3081,-3.3081,-3.3081,-3.3081,-3.3081,-3.3081,-3.3081,-3.3081,-3.3081,-3.3081,-3.3081,-3.3081,-3.3081,-3.3081,-3.3081,-3.2792,-3.2177,-3.1662,-3.0871,-2.9792,-2.9792,-2.9792,-2.9792,-2.9792,-2.9792,-2.9792,-2.9792,-2.9792,-2.9792,-2.9792,-2.9792,-2.9792,-2.9792,-2.9792,-2.9792,-2.9792,-2.9792,-2.9792,-2.9792,-2.9792,-2.9792,-2.9792,-2.9792,-2.9792,-2.9792,-2.9792,-2.9792,-2.9792,-2.9792,-2.9792,-2.9792,-2.9792,-2.9792,-2.9792,-2.9792,-2.9792,-2.9792,-2.9792,-2.9553,-2.8725,-2.831,-2.7858,-2.7055,-2.6653,-2.6533,-2.6533,-2.6533,0.0,0.0,-2.6533,-2.6533,-2.6533,-2.6533,-2.6533,-2.6533,-2.6533,-2.6533,-2.6533,-2.685,-2.704,-2.704,-2.8312,-2.9093,-2.9093,-3.0054,-3.0568,-3.0568,-3.0568,-3.0742,-3.109,-3.138,-3.1714,-3.2077,-3.273,-3.3195,-3.3485,-3.3819,-3.3978,-3.3949,-3.3601,-3.3122,-3.2562,-3.2281,-3.1885,-3.1515,-3.2129,-3.2477,-3.2718,-3.4147,-3.3581,-3.3081,-3.3081,-3.3081,-3.3081,-3.3081,-3.3081,-3.3081,-3.3081,-3.3081,-3.3081,-3.3081,-3.3081,-3.3081,-3.3081,-3.3081,-3.3081,-3.3081,-3.3081,-3.3081,-3.3081,-3.2955,-3.2403,-3.1411,-3.1273,-3.0746,-2.9792,-2.9792,-2.9792,-2.9792,-2.9792,-2.9792,-2.9792,-2.9792,-2.9792,-2.9792,-2.9792,-2.9792,-2.9792,-2.9792,-2.9792,-2.9792,-2.9792,-2.9792,-2.9792,-2.9792,-2.9792,-2.9792,-2.9792,-2.9792,-2.9792,-2.9792,-2.9792,-2.9792,-2.9792,-2.9792,-2.9792,-2.9792,-2.9792,-2.9792,-2.9792,-2.9792,-2.9792,-2.9792,-2.9792,-2.9628,-2.9051,-2.8586,-2.8084,-2.7406,-2.6929,-2.6684,-2.6546,0.0,0.0,0.0,-2.6533,-2.6533,-2.6533,-2.6533,-2.6533,-2.6533,-2.6658,-2.6714,-2.6714,-2.7351,-2.7736,-2.7736,-2.8903,-2.9685,-2.9808,-3.0312,-3.0568,-3.0568,-3.0727,-3.1032,-3.1526,-3.183,-3.2237,-3.2759,-3.3398,-3.3688,-3.3717,-3.4196,-3.4414,-3.437,-3.3891,-3.3601,-3.342,-3.257,-3.2027,-3.1684,-3.2065,-3.2351,-3.2648,-3.3326,-3.3154,-3.3081,-3.3081,-3.3081,-3.3081,-3.3081,-3.3081,-3.3081,-3.3081,-3.3081,-3.3081,-3.3081,-3.3081,-3.3081,-3.3081,-3.3081,-3.3081,-3.3081,-3.3081,-3.3081,-3.3081,-3.2566,-3.2001,-3.1399,-3.0922,-3.0382,-2.9792,-2.9792,-2.9792,-2.9792,-2.9792,-2.9792,-2.9792,-2.9792,-2.9792,-2.9792,-2.9792,-2.9792,-2.9792,-2.9792,-2.9792,-2.9792,-2.9792,-2.9792,-2.9792,-2.9792,-2.9792,-2.9792,-2.9792,-2.9792,-2.9792,-2.9792,-2.9792,-2.9792,-2.9792,-2.9792,-2.9792,-2.9792,-2.9792,-2.9792,-2.9792,-2.9792,-2.9792,-2.9792,-2.9792,-2.9628,-2.9051,-2.89,-2.8549,-2.7482,-2.7256,-2.7055,-2.6609,0.0,0.0,-2.6533,-2.6533,-2.6533,-2.6533,-2.6533,-2.6533,-2.6533,-2.704,-2.7417,-2.7417,-2.8051,-2.8427,-2.8427,-2.9156,-2.987,-3.0507,-3.0568,-3.0568,-3.0568,-3.1148,-3.1482,-3.1526,-3.2745,-3.3354,-3.3427,-3.4051,-3.4341,-3.4356,-3.4385,-3.4414,-3.4414,-3.4356,-3.3993,-3.3398,-3.278,-3.2313,-3.2169,-3.2262,-3.2703,-3.3391,-3.4746,-3.3797,-3.3081,-3.3081,-3.3081,-3.3081,-3.3081,-3.3081,-3.3081,-3.3081,-3.3081,-3.3081,-3.3081,-3.3081,-3.3081,-3.3081,-3.3081,-3.3081,-3.3081,-3.3081,-3.3081,-3.3081,-3.2516,-3.1951,-3.1399,-3.0884,-3.0344,-2.9792,-2.9792,-2.9792,-2.9792,-2.9792,-2.9792,-2.9792,-2.9792,-2.9792,-2.9792,-2.9792,-2.9792,-2.9792,-2.9792,-2.9792,-2.9792,-2.9792,-2.9792,-2.9792,-2.9792,-2.9792,-2.9792,-2.9792,-2.9792,-2.9792,-2.9792,-2.9792,-2.9792,-2.9792,-2.9792,-2.9792,-2.9792,-2.9792,-2.9792,-2.9792,-2.9792,-2.9792,-2.9792,-2.9792,-2.9729,-2.9515,-2.9176,-2.88,-2.8386,-2.7745,-2.7218,-2.7005,0.0,-2.6533,-2.6533,-2.6533,-2.6658,-2.7095,-2.7095,-2.7297,-2.767,-2.7986,-2.8117,-2.8117,-2.8762,-2.9156,-2.9156,-3.0177,-3.0902,-3.1163,-3.1555,-3.1584,-3.1163,-3.1816,-3.2338,-3.273,-3.3238,-3.3674,-3.4066,-3.4312,-3.4414,-3.4414,-3.4414,-3.4414,-3.4414,-3.4414,-3.4089,-3.3579,-3.3191,-3.2883,-3.2613,-3.2598,-3.3024,-3.37,-3.5615,-3.4664,-3.3797,-3.3569,-3.3725,-3.3797,-3.3569,-3.3484,-3.3484,-3.3484,-3.324,-3.3081,-3.3081,-3.3081,-3.3081,-3.3081,-3.3081,-3.3081,-3.3081,-3.2905,-3.2805,-3.2805,-3.2252,-3.17,-3.116,-3.0633,-3.0168,-2.9792,-2.9792,-2.9792,-2.9792,-2.9792,-2.9792,-2.9792,-2.9792,-2.9792,-2.9792,-2.9792,-2.9792,-2.9792,-2.9792,-2.9792,-2.9792,-2.9792,-2.9792,-2.9792,-2.9792,-2.9792,-2.9792,-2.9792,-2.9792,-2.9792,-2.9792,-2.9792,-2.9792,-2.9792,-2.9792,-2.9792,-2.9792,-2.9792,-2.9792,-2.9792,-2.9792,-2.9792,-2.9792,-2.9792,-2.9792,-2.9792,-2.9478,-2.9139,-2.8963,-2.831,-2.7745,-2.757,-2.708,-2.6716,-2.6716,-2.6634,-2.6658,-2.7095,-2.7351,-2.7604,-2.7855,-2.8441,-2.8762,-2.8634,-2.9421,-3.0031,-3.0216,-3.1219,-3.183,-3.183,-3.2469,-3.26,-3.2135,-3.2585,-3.3035,-3.347,-3.3674,-3.3993,-3.4414,-3.4414,-3.4414,-3.4414,-3.4414,-3.4414,-3.4399,-3.4263,-3.3966,-3.3665,-3.3376,-3.311,-3.2904,-3.3076,-3.3391,-3.3836,-3.5775,-3.5615,-3.5305,-3.4551,-3.5087,-3.5305,-3.4468,-3.4397,-3.4397,-3.4397,-3.3654,-3.3081,-3.3081,-3.3081,-3.3081,-3.3081,-3.3081,-3.3081,-3.3068,-3.2528,-3.2215,-3.2202,-3.1675,-3.1135,-3.062,-3.0068,-2.9792,-2.9792,-2.9792,-2.9792,-2.9792,-2.9792,-2.9792,-2.9792,-2.9792,-2.9792,-2.9792,-2.9792,-2.9792,-2.9792,-2.9792,-2.9792,-2.9792,-2.9792,-2.9792,-2.9792,-2.9792,-2.9792,-2.9792,-2.9792,-2.9792,-2.9792,-2.9792,-2.9792,-2.9792,-2.9792,-2.9792,-2.9792,-2.9792,-2.9792,-2.9792,-2.9792,-2.9792,-2.9792,-2.9792,-2.9792,-2.9792,-2.9792,-2.9792,-2.9616,-2.9038,-2.8925,-2.875,-2.8197,-2.7657,-2.7293,-2.7293,-2.6816,-2.6546,-2.6546,-2.7108,-2.7242,-2.6602,-2.8417,-2.9387,-2.8881,-2.9946,-3.0872,-3.1496,-3.2164,-3.2527,-3.2527,-3.3137,-3.3536,-3.3536,-3.3485,-3.3485,-3.3485,-3.4109,-3.4414,-3.4414,-3.4414,-3.4414,-3.4414,-3.4414,-3.4414,-3.4356,-3.3901,-3.3688,-3.3607,-3.3096,-3.2922,-3.3005,-3.3577,-3.3786,-3.3903,-3.6517,-3.5575,-3.4703,-3.4468,-3.405,-3.3797,-3.3484,-3.3496,-3.3496,-3.3496,-3.324,-3.3081,-3.3081,-3.3081,-3.3081,-3.3081,-3.3081,-3.2905,-3.2503,-3.2303,-3.1876,-3.1122,-3.0934,-3.0771,-3.062,-3.0068,-2.9792,-2.9792,-2.9792,-2.9792,-2.9792,-2.9792,-2.9792,-2.9792,-2.9792,-2.9792,-2.9792,-2.9792,-2.9792,-2.9792,-2.9792,-2.9792,-2.9792,-2.9792,-2.9792,-2.9792,-2.9792,-2.9792,-2.9792,-2.9792,-2.9792,-2.9792,-2.9792,-2.9792,-2.9792,-2.9792,-2.9792,-2.9792,-2.9792,-2.9792,-2.9792,-2.9792,-2.9792,-2.9792,-2.9792,-2.9792,-2.9792,-2.9792,-2.9792,-2.9741,-2.9566,-2.9202,-2.8875,-2.8712,-2.8222,-2.7858,-2.7858,-2.772,-2.8023,-2.9032,-2.9374,-2.9781,-3.0657,-3.1411,-3.1743,-3.1411,-3.1743,-3.2019,-3.2208,-3.2946,-3.3296,-3.318,-3.4054,-3.4457,-3.4339,-3.4205,-3.4124,-3.4124,-3.4312,-3.4414,-3.4414,-3.4563,-3.4631,-3.4631,-3.475,-3.4486,-3.4112,-3.3986,-3.3654,-3.3291,-3.3117,-3.3355,-3.3778,-3.3931,-3.4267,-3.461,-3.7567,-3.6624,-3.583,-3.5426,-3.5251,-3.5006,-3.469,-3.4607,-3.4607,-3.4607,-3.405,-3.3569,-3.3569,-3.3326,-3.3081,-3.3081,-3.2867,-3.2491,-3.1926,-3.1687,-3.1286,-3.0645,-3.0407,-3.0281,-3.0281,-2.9967,-2.9792,-2.9792,-2.9792,-2.9792,-2.9792,-2.9792,-2.9792,-2.9792,-2.9792,-2.9792,-2.9792,-2.9792,-2.9792,-2.9792,-2.9792,-2.9792,-2.9792,-2.9792,-2.9792,-2.9792,-2.9792,-2.9792,-2.9792,-2.9792,-2.9792,-2.9792,-2.9792,-2.9792,-2.9792,-2.9792,-2.9792,-2.9792,-2.9792,-2.9792,-2.9792,-2.9792,-2.9792,-2.9792,-2.9792,-2.9792,-2.9792,-2.9792,-2.9792,-2.9792,-2.9792,-2.9503,-2.9277,-2.9277,-2.88,-2.8436,-2.8436,-2.8527,-2.8879,-2.9771,-3.0392,-3.1068,-3.173,-3.2306,-3.2655,-3.2591,-3.2937,-3.3083,-3.3083,-3.3797,-3.4149,-3.4032,-3.4596,-3.4868,-3.475,-3.4683,-3.4601,-3.4601,-3.4549,-3.4549,-3.4601,-3.4698,-3.4698,-3.4735,-3.4604,-3.433,-3.3997,-3.3764,-3.3412,-3.3108,-3.3395,-3.3752,-3.4151,-3.4349,-3.4594,-3.4899,-3.8516,-3.8352,-3.7886,-3.7092,-3.7567,-3.772,-3.6922,-3.6844,-3.6766,-3.6844,-3.5426,-3.4397,-3.4397,-3.3654,-3.3056,-3.3006,-3.2466,-3.1901,-3.1348,-3.0884,-3.0595,-3.0545,-3.0068,-2.9792,-2.9869,-2.9792,-2.9792,-2.9792,-2.9792,-2.9792,-2.9792,-2.9792,-2.9792,-2.9792,-2.9792,-2.9792,-2.9792,-2.9792,-2.9792,-2.9792,-2.9792,-2.9792,-2.9792,-2.9792,-2.9792,-2.9792,-2.9792,-2.9792,-2.9792,-2.9792,-2.9792,-2.9792,-2.9792,-2.9792,-2.9792,-2.9792,-2.9792,-2.9792,-2.9792,-2.9792,-2.9792,-2.9792,-2.9792,-2.9792,-2.9792,-2.9792,-2.9792,-2.9792,-2.9792,-2.9792,-2.9792,-2.9792,-2.9792,-2.9792,-2.9352,-2.9001,-2.9063,-2.9284,-2.9521,-2.9649,-3.0842,-3.1503,-3.1098,-3.2097,-3.2815,-3.2957,-3.3677,-3.405,-3.405,-3.461,-3.4935,-3.4935,-3.4935,-3.4935,-3.4935,-3.4935,-3.4935,-3.4935,-3.4765,-3.475,-3.4868,-3.4817,-3.4787,-3.4817,-3.4357,-3.4031,-3.3888,-3.3423,-3.315,-3.3141,-3.385,-3.4101,-3.4151,-3.4691,-3.4899,-3.4899,-3.8723,-3.8159,-3.7601,-3.7372,-3.6816,-3.6411,-3.6383,-3.6081,-3.5949,-3.6108,-3.5087,-3.4397,-3.4397,-3.3654,-3.2893,-3.2441,-3.1888,-3.1348,-3.0821,-3.067,-3.0419,-2.9993,-2.9854,-2.9869,-3.0011,-2.9869,-2.9792,-2.9792,-2.9792,-2.9792,-2.9792,-2.9792,-2.9792,-2.9792,-2.9792,-2.9792,-2.9792,-2.9792,-2.9792,-2.9792,-2.9792,-2.9792,-2.9792,-2.9792,-2.9792,-2.9792,-2.9792,-2.9792,-2.9792,-2.9792,-2.9792,-2.9792,-2.9792,-2.9792,-2.9792,-2.9792,-2.9792,-2.9792,-2.9792,-2.9792,-2.9792,-2.9792,-2.9792,-2.9792,-2.9792,-2.9792,-2.9792,-2.9792,-2.9792,-2.9792,-2.9792,-2.9792,-2.9792,-2.9792,-2.9691,-2.9885,-3.0563,-3.0607,-3.1103,-3.2612,-3.2834,-3.3109,-3.3935,-3.4244,-3.4391,-3.4456,-3.4574,-3.4714,-3.4714,-3.4993,-3.5082,-3.4935,-3.5213,-3.5294,-3.5148,-3.5294,-3.5213,-3.4935,-3.4868,-3.4868,-3.4935,-3.5016,-3.4801,-3.4396,-3.48,-3.4455,-3.3523,-3.3846,-3.3654,-3.3244,-3.388,-3.4101,-3.4151,-3.4691,-3.4899,-3.4899,-3.8943,-3.8472,-3.8144,-3.8144,-3.7677,-3.7357,-3.7405,-3.7266,-3.7204,-3.7281,-3.6122,-3.5238,-3.4942,-3.3731,-3.2688,-3.1825,-3.1496,-3.109,-3.0557,-3.0519,-3.0379,-3.0088,-3.0075,-3.0152,-3.0228,-3.0152,-3.0011,-2.9934,-2.9934,-2.9869,-2.9792,-2.9792,-2.9792,-2.9792,-2.9792,-2.9792,-2.9792,-2.9792,-2.9792,-2.9792,-2.9792,-2.9792,-2.9792,-2.9792,-2.9792,-2.9792,-2.9792,-2.9792,-2.9792,-2.9792,-2.9792,-2.9792,-2.9792,-2.9792,-2.9792,-2.9792,-2.9792,-2.9792,-2.9792,-2.9792,-2.9792,-2.9792,-2.9792,-2.9792,-2.9792,-2.9792,-2.9792,-2.9792,-2.9792,-2.9792,-2.9792,-2.9792,-2.9792,-2.9792,-2.9792,-3.0062,-3.097,-3.1315,-3.2046,-3.3353,-3.3796,-3.4221,-3.4854,-3.5001,-3.5001,-3.5001,-3.5001,-3.5067,-3.5148,-3.5294,-3.5294,-3.5213,-3.5359,-3.5439,-3.5359,-3.5439,-3.5359,-3.5213,-3.5082,-3.4904,-3.4723,-3.4723,-3.4431,-3.3853,-3.3955,-3.3605,-3.298,-3.3212,-3.3278,-3.3251,-3.3866,-3.425,-3.4497,-3.4804,-3.4899,-3.4899,-3.9177,-3.9017,-3.887,-3.887,-3.887,-3.887,-3.887,-3.8855,-3.8738,-3.8708,-3.7306,-3.6128,-3.5502,-3.3821,-3.2401,-3.1291,-3.1124,-3.0855,-3.0394,-3.0368,-3.0368,-3.0368,-3.0368,-3.0444,-3.0444,-3.0444,-3.0368,-3.0152,-3.0152,-3.0075,-2.9856,-2.9856,-2.9869,-2.9869,-2.9869,-2.9869,-2.9792,-2.9792,-2.9792,-2.9792,-2.9792,-2.9792,-2.9869,-2.9869,-2.9869,-2.9856,-2.9869,-2.9869,-2.9792,-2.9792,-2.9792,-2.9792,-2.9792,-2.9792,-2.9792,-2.9792,-2.9792,-2.9792,-2.9869,-2.9869,-2.9869,-2.9869,-2.9856,-2.9856,-2.9856,-2.9869,-2.9869,-2.9869,-2.9869,-2.9869,-2.9869,-2.9934,-2.9998,-2.9998,-3.0075,-3.0432,-3.1267,-3.196,-3.2692,-3.3437,-3.4438,-3.5001,-3.4935,-3.5082,-3.5228,-3.5213,-3.5213,-3.5294,-3.5504,-3.5504,-3.5504,-3.5504,-3.5504,-3.5504,-3.5504,-3.5385,-3.5325,-3.5325,-3.5061,-3.4778,-3.4472,-3.4226,-3.3809,-3.329,-3.2871,-3.2615,-3.2464,-3.2613,-3.2911,-3.3251,-3.3968,-3.4448,-3.4787,-3.4851,-3.4899,-3.4899,-3.9337,-3.9337,-3.9337,-3.9337,-3.9177,-3.9104,-3.9265,-3.9017,-3.8663,-3.8261,-3.7184,-3.6244,-3.562,-3.3663,-3.2031,-3.1292,-3.0766,-3.0445,-3.0368,-3.0368,-3.0368,-3.0368,-3.0368,-3.0444,-3.0698,-3.0698,-3.0533,-3.0368,-3.0368,-3.0368,-3.0292,-3.0292,-3.0228,-3.0088,-3.0088,-2.9934,-2.9792,-2.9792,-2.9792,-2.9792,-2.9792,-2.9856,-3.0088,-3.0088,-3.0152,-3.0292,-3.0152,-2.9934,-2.9792,-2.9792,-2.9792,-2.9792,-2.9792,-2.9792,-2.9792,-2.9792,-2.9792,-2.9869,-3.0011,-3.0088,-3.0075,-3.0292,-3.0292,-3.0292,-3.0292,-3.0152,-3.0088,-3.0088,-3.0088,-3.0088,-3.0088,-3.0419,-3.0758,-3.0758,-3.1355,-3.2074,-3.3003,-3.3143,-3.3575,-3.4787,-3.5213,-3.5294,-3.4935,-3.5228,-3.5359,-3.5213,-3.5359,-3.5439,-3.5504,-3.5504,-3.5504,-3.5504,-3.5504,-3.5504,-3.5504,-3.4906,-3.4622,-3.4607,-3.4038,-3.4008,-3.4457,-3.3888,-3.326,-3.2647,-3.3115,-3.2962,-3.2465,-3.345,-3.3594,-3.3303,-3.4366,-3.4546,-3.425,-3.4756,-3.4899,-3.4899,-3.9424,-3.9424,-3.9424,-3.9424,-3.9023,-3.877,-3.8841,-3.837,-3.7957,-3.7744,-3.6894,-3.6115,-3.5481,-3.3467,-3.2038,-3.1752,-3.1104,-3.0748,-3.0748,-3.0748,-3.0748,-3.0748,-3.0748,-3.0761,-3.0836,-3.0836,-3.0836,-3.0748,-3.0609,-3.0533,-3.0368,-3.0368,-3.0368,-3.0292,-3.0292,-3.0228,-3.0152,-3.0152,-3.0152,-3.0152,-3.0152,-3.0228,-3.0292,-3.0292,-3.0216,-3.0228,-3.0011,-2.9934,-2.9934,-2.9934,-3.0011,-3.0152,-3.0152,-3.0152,-3.0152,-3.0152,-3.0152,-3.0152,-3.0228,-3.0292,-3.0292,-3.0368,-3.0368,-3.0368,-3.0368,-3.0292,-3.0292,-3.0292,-3.0152,-3.0075,-3.0075,-3.0558,-3.0895,-3.0895,-3.1563,-3.2434,-3.3367,-3.3506,-3.4002,-3.5213,-3.5359,-3.5294,-3.5228,-3.5424,-3.5439,-3.5359,-3.5439,-3.5504,-3.5504,-3.5504,-3.5504,-3.5504,-3.5504,-3.5325,-3.4936,-3.4622,-3.4292,-3.3918,-3.326,-3.3095,-3.3365,-3.308,-3.2587,-3.1973,-3.2562,-3.2675,-3.2453,-3.2926,-3.3351,-3.3697,-3.3901,-3.4202,-3.4594,-3.4787,-3.4899,-3.4899]},{"header":{"parameterUnit":"m.s-1","parameterCategory":1,"la1":30.6,"la2":28.766,"lo1":-90.7593,"lo2":-88.6598,"dy":0.0162,"dx":0.0183,"nx":116,"ny":114,"refTime":"2023-05-24T12:00:00:Z","depth":0,"parameterNumber":3,"parameterNumberName":"V-component_of_WINDS"},"data":[0.0,0.0,0.0,0.0,0.0,0.0,0.0,0.0,0.0,0.0,0.0,0.0,0.0,0.0,0.0,0.0,0.0,0.0,0.0,0.0,0.0,0.0,0.0,0.0,0.0,0.0,0.0,0.0,0.0,0.0,0.0,0.0,0.0,0.0,0.0,0.0,0.0,0.0,0.0,0.0,0.0,0.0,0.0,0.0,0.0,0.0,0.0,0.0,0.0,0.0,0.0,0.0,0.0,0.0,0.0,0.0,0.0,0.0,0.0,0.0,0.0,0.0,0.0,0.0,0.0,0.0,0.0,0.0,0.0,0.0,0.0,0.0,0.0,0.0,0.0,0.0,0.0,0.0,0.0,0.0,0.0,0.0,0.0,0.0,0.0,0.0,0.0,0.0,0.0,0.0,0.0,0.0,0.0,0.0,0.0,0.0,0.0,0.0,0.0,0.0,0.0,0.0,0.0,0.0,0.0,0.0,0.0,0.0,0.0,0.0,0.0,0.0,0.0,0.0,0.0,0.0,0.0,0.0,0.0,0.0,0.0,0.0,0.0,0.0,0.0,0.0,0.0,0.0,0.0,0.0,0.0,0.0,0.0,0.0,0.0,0.0,0.0,0.0,0.0,0.0,0.0,0.0,0.0,0.0,0.0,0.0,0.0,0.0,0.0,0.0,0.0,0.0,0.0,0.0,0.0,0.0,0.0,0.0,0.0,0.0,0.0,0.0,0.0,0.0,0.0,0.0,0.0,0.0,0.0,0.0,0.0,0.0,0.0,0.0,0.0,0.0,0.0,0.0,0.0,0.0,0.0,0.0,0.0,0.0,0.0,0.0,0.0,0.0,0.0,0.0,0.0,0.0,0.0,0.0,0.0,0.0,0.0,0.0,0.0,0.0,0.0,0.0,0.0,0.0,0.0,0.0,0.0,0.0,0.0,0.0,0.0,0.0,0.0,0.0,0.0,0.0,0.0,0.0,0.0,0.0,0.0,0.0,0.0,0.0,0.0,0.0,0.0,0.0,0.0,0.0,0.0,0.0,0.0,0.0,0.0,0.0,0.0,0.0,0.0,0.0,0.0,0.0,0.0,0.0,0.0,0.0,0.0,0.0,0.0,0.0,0.0,0.0,0.0,0.0,0.0,0.0,0.0,0.0,0.0,0.0,0.0,0.0,0.0,0.0,0.0,0.0,0.0,0.0,0.0,0.0,0.0,0.0,0.0,0.0,0.0,0.0,0.0,0.0,0.0,0.0,0.0,0.0,0.0,0.0,0.0,0.0,0.0,0.0,0.0,0.0,0.0,0.0,0.0,0.0,0.0,0.0,0.0,0.0,0.0,0.0,0.0,0.0,0.0,0.0,0.0,0.0,0.0,0.0,0.0,0.0,0.0,0.0,0.0,0.0,0.0,0.0,0.0,0.0,0.0,0.0,0.0,0.0,0.0,0.0,0.0,0.0,0.0,0.0,0.0,0.0,0.0,0.0,0.0,0.0,0.0,0.0,0.0,0.0,0.0,0.0,0.0,0.0,0.0,0.0,0.0,0.0,0.0,0.0,0.0,0.0,0.0,0.0,0.0,0.0,0.0,0.0,0.0,0.0,0.0,0.0,0.0,0.0,0.0,0.0,0.0,0.0,0.0,0.0,0.0,0.0,0.0,0.0,0.0,0.0,0.0,0.0,0.0,0.0,0.0,0.0,0.0,0.0,0.0,0.0,0.0,0.0,0.0,0.0,0.0,0.0,0.0,0.0,0.0,0.0,0.0,0.0,0.0,0.0,0.0,0.0,0.0,0.0,0.0,0.0,0.0,0.0,0.0,0.0,0.0,0.0,0.0,0.0,0.0,0.0,0.0,0.0,0.0,0.0,0.0,0.0,0.0,0.0,0.0,0.0,0.0,0.0,0.0,0.0,0.0,0.0,0.0,0.0,0.0,0.0,0.0,0.0,0.0,0.0,0.0,0.0,0.0,0.0,0.0,0.0,0.0,0.0,0.0,0.0,0.0,0.0,0.0,0.0,0.0,0.0,0.0,0.0,0.0,0.0,0.0,0.0,0.0,0.0,0.0,0.0,0.0,0.0,0.0,0.0,0.0,0.0,0.0,0.0,0.0,0.0,0.0,0.0,0.0,0.0,0.0,0.0,0.0,0.0,0.0,0.0,0.0,0.0,0.0,0.0,0.0,0.0,0.0,0.0,0.0,0.0,0.0,0.0,0.0,0.0,0.0,0.0,0.0,0.0,0.0,0.0,0.0,0.0,0.0,0.0,0.0,0.0,0.0,0.0,0.0,0.0,0.0,0.0,0.0,0.0,0.0,0.0,0.0,0.0,0.0,0.0,0.0,0.0,0.0,0.0,0.0,0.0,0.0,0.0,0.0,0.0,0.0,0.0,0.0,0.0,0.0,0.0,0.0,0.0,0.0,0.0,0.0,0.0,0.0,0.0,0.0,0.0,0.0,0.0,0.0,0.0,0.0,0.0,0.0,0.0,0.0,0.0,0.0,0.0,0.0,0.0,0.0,0.0,0.0,0.0,0.0,0.0,0.0,0.0,0.0,0.0,0.0,0.0,0.0,0.0,0.0,0.0,0.0,0.0,0.0,0.0,0.0,0.0,0.0,0.0,0.0,0.0,0.0,0.0,0.0,0.0,0.0,0.0,0.0,0.0,0.0,0.0,0.0,0.0,0.0,0.0,0.0,0.0,0.0,0.0,0.0,0.0,0.0,0.0,0.0,0.0,0.0,0.0,0.0,0.0,0.0,0.0,0.0,0.0,0.0,0.0,0.0,0.0,0.0,0.0,0.0,0.0,0.0,0.0,0.0,0.0,0.0,0.0,0.0,0.0,0.0,0.0,0.0,0.0,0.0,0.0,0.0,0.0,0.0,0.0,0.0,0.0,0.0,0.0,0.0,0.0,0.0,0.0,0.0,0.0,0.0,0.0,0.0,0.0,0.0,0.0,0.0,0.0,0.0,0.0,0.0,0.0,0.0,0.0,0.0,0.0,0.0,0.0,0.0,0.0,0.0,0.0,0.0,0.0,0.0,0.0,0.0,0.0,0.0,0.0,0.0,0.0,0.0,0.0,0.0,0.0,0.0,0.0,0.0,0.0,0.0,0.0,0.0,0.0,0.0,0.0,0.0,0.0,0.0,0.0,0.0,0.0,0.0,0.0,0.0,0.0,0.0,0.0,0.0,0.0,0.0,0.0,0.0,0.0,0.0,0.0,0.0,0.0,0.0,0.0,0.0,0.0,0.0,0.0,0.0,0.0,0.0,0.0,0.0,0.0,0.0,0.0,0.0,0.0,0.0,0.0,0.0,0.0,0.0,0.0,0.0,0.0,0.0,0.0,0.0,0.0,0.0,0.0,0.0,0.0,0.0,0.0,0.0,0.0,0.0,0.0,0.0,0.0,0.0,0.0,0.0,0.0,0.0,0.0,0.0,0.0,0.0,0.0,0.0,0.0,0.0,0.0,0.0,0.0,0.0,0.0,0.0,0.0,0.0,0.0,0.0,0.0,0.0,0.0,0.0,0.0,0.0,0.0,0.0,0.0,0.0,0.0,0.0,0.0,0.0,0.0,0.0,0.0,0.0,0.0,0.0,0.0,0.0,0.0,0.0,0.0,0.0,0.0,0.0,0.0,0.0,0.0,0.0,0.0,0.0,0.0,0.0,0.0,0.0,0.0,0.0,0.0,0.0,0.0,0.0,0.0,0.0,0.0,0.0,0.0,0.0,0.0,0.0,0.0,0.0,0.0,0.0,0.0,0.0,0.0,0.0,0.0,0.0,0.0,0.0,0.0,0.0,0.0,0.0,0.0,0.0,0.0,0.0,0.0,0.0,0.0,0.0,0.0,0.0,0.0,0.0,0.0,0.0,0.0,0.0,0.0,0.0,0.0,0.0,0.0,0.0,0.0,0.0,0.0,0.0,0.0,0.0,0.0,0.0,0.0,0.0,0.0,0.0,0.0,0.0,0.0,0.0,0.0,0.0,0.0,0.0,0.0,0.0,0.0,0.0,0.0,0.0,0.0,0.0,0.0,0.0,0.0,0.0,0.0,0.0,0.0,0.0,0.0,0.0,0.0,0.0,0.0,0.0,0.0,0.0,0.0,0.0,0.0,0.0,0.0,0.0,0.0,0.0,0.0,0.0,0.0,0.0,0.0,0.0,0.0,0.0,0.0,0.0,0.0,0.0,0.0,0.0,0.0,0.0,0.0,0.0,0.0,0.0,0.0,0.0,0.0,0.0,0.0,0.0,0.0,0.0,0.0,0.0,0.0,0.0,0.0,0.0,0.0,0.0,0.0,0.0,0.0,0.0,0.0,0.0,0.0,0.0,0.0,0.0,0.0,0.0,0.0,0.0,0.0,0.0,0.0,0.0,0.0,0.0,0.0,0.0,0.0,0.0,0.0,0.0,0.0,0.0,0.0,0.0,0.0,0.0,0.0,0.0,0.0,0.0,0.0,0.0,0.0,0.0,0.0,0.0,0.0,0.0,0.0,0.0,0.0,0.0,0.0,0.0,0.0,0.0,0.0,0.0,0.0,0.0,0.0,0.0,0.0,0.0,0.0,0.0,0.0,0.0,0.0,0.0,0.0,0.0,0.0,0.0,0.0,0.0,0.0,0.0,0.0,0.0,0.0,0.0,0.0,0.0,0.0,0.0,0.0,0.0,0.0,0.0,0.0,0.0,0.0,0.0,0.0,0.0,0.0,0.0,0.0,0.0,0.0,0.0,0.0,0.0,0.0,0.0,0.0,0.0,0.0,0.0,0.0,0.0,0.0,0.0,0.0,0.0,0.0,0.0,0.0,0.0,0.0,0.0,0.0,0.0,0.0,0.0,0.0,0.0,0.0,0.0,0.0,0.0,0.0,0.0,0.0,0.0,0.0,0.0,0.0,0.0,0.0,0.0,0.0,0.0,0.0,0.0,0.0,0.0,0.0,0.0,0.0,0.0,0.0,0.0,0.0,0.0,0.0,0.0,0.0,0.0,0.0,0.0,0.0,0.0,0.0,0.0,0.0,0.0,0.0,0.0,0.0,0.0,0.0,0.0,0.0,0.0,0.0,0.0,0.0,0.0,0.0,0.0,0.0,0.0,0.0,0.0,0.0,0.0,0.0,0.0,0.0,0.0,0.0,0.0,0.0,0.0,0.0,0.0,0.0,0.0,0.0,0.0,0.0,0.0,0.0,0.0,0.0,0.0,0.0,0.0,0.0,0.0,0.0,0.0,0.0,0.0,0.0,0.0,0.0,0.0,0.0,0.0,0.0,0.0,0.0,0.0,0.0,0.0,0.0,0.0,0.0,0.0,0.0,0.0,0.0,0.0,0.0,0.0,0.0,0.0,0.0,0.0,0.0,0.0,0.0,0.0,0.0,0.0,0.0,0.0,0.0,0.0,0.0,0.0,0.0,0.0,0.0,0.0,0.0,0.0,0.0,0.0,0.0,0.0,0.0,0.0,0.0,0.0,0.0,0.0,0.0,0.0,0.0,0.0,0.0,0.0,0.0,0.0,0.0,0.0,0.0,0.0,0.0,0.0,0.0,0.0,0.0,0.0,0.0,0.0,0.0,0.0,0.0,0.0,0.0,0.0,0.0,0.0,0.0,0.0,0.0,0.0,0.0,0.0,0.0,0.0,0.0,0.0,0.0,0.0,0.0,0.0,0.0,0.0,0.0,0.0,0.0,0.0,0.0,0.0,0.0,0.0,0.0,0.0,0.0,0.0,0.0,0.0,0.0,0.0,0.0,0.0,0.0,0.0,0.0,0.0,0.0,0.0,0.0,0.0,0.0,0.0,0.0,0.0,0.0,0.0,0.0,0.0,0.0,0.0,0.0,0.0,0.0,0.0,0.0,0.0,0.0,0.0,0.0,0.0,0.0,0.0,0.0,0.0,0.0,0.0,0.0,0.0,0.0,0.0,0.0,0.0,0.0,0.0,0.0,0.0,0.0,0.0,0.0,0.0,0.0,0.0,0.0,0.0,0.0,0.0,0.0,0.0,0.0,0.0,0.0,0.0,0.0,0.0,0.0,0.0,0.0,0.0,0.0,0.0,0.0,0.0,0.0,0.0,0.0,0.0,0.0,0.0,0.0,0.0,0.0,0.0,0.0,0.0,0.0,0.0,0.0,-2.3718,0.0,0.0,0.0,0.0,0.0,0.0,0.0,0.0,0.0,0.0,0.0,0.0,0.0,0.0,0.0,0.0,0.0,0.0,0.0,0.0,0.0,0.0,0.0,0.0,0.0,0.0,0.0,0.0,0.0,0.0,0.0,0.0,0.0,0.0,0.0,0.0,0.0,0.0,0.0,0.0,0.0,0.0,0.0,0.0,0.0,0.0,0.0,0.0,0.0,0.0,0.0,0.0,0.0,0.0,0.0,0.0,0.0,0.0,0.0,0.0,0.0,0.0,0.0,0.0,0.0,0.0,0.0,0.0,0.0,0.0,0.0,0.0,0.0,0.0,0.0,0.0,0.0,0.0,0.0,0.0,0.0,0.0,0.0,0.0,0.0,0.0,0.0,0.0,0.0,0.0,0.0,0.0,0.0,0.0,0.0,0.0,0.0,0.0,0.0,0.0,0.0,0.0,0.0,0.0,0.0,0.0,0.0,0.0,0.0,0.0,0.0,0.0,0.0,0.0,0.0,0.0,-2.3978,0.0,0.0,0.0,0.0,0.0,0.0,0.0,0.0,0.0,0.0,0.0,0.0,0.0,0.0,0.0,0.0,0.0,0.0,0.0,0.0,0.0,0.0,0.0,0.0,0.0,0.0,0.0,0.0,0.0,0.0,0.0,0.0,0.0,0.0,0.0,0.0,0.0,0.0,0.0,0.0,0.0,0.0,0.0,0.0,0.0,0.0,0.0,0.0,0.0,0.0,0.0,0.0,0.0,0.0,0.0,0.0,0.0,0.0,0.0,0.0,0.0,0.0,0.0,0.0,0.0,0.0,0.0,0.0,0.0,0.0,0.0,0.0,0.0,0.0,0.0,0.0,0.0,0.0,0.0,0.0,0.0,0.0,0.0,0.0,0.0,0.0,0.0,0.0,0.0,0.0,0.0,0.0,0.0,0.0,0.0,0.0,0.0,0.0,0.0,0.0,0.0,0.0,0.0,0.0,0.0,0.0,0.0,0.0,-2.417,-2.3948,-2.3619,-2.3658,-2.3605,-2.3446,-2.4044,-2.4225,-2.412,-2.4644,0.0,0.0,0.0,0.0,0.0,0.0,0.0,0.0,0.0,0.0,0.0,0.0,0.0,0.0,0.0,0.0,0.0,0.0,0.0,0.0,0.0,0.0,0.0,0.0,0.0,0.0,0.0,0.0,0.0,0.0,0.0,0.0,0.0,0.0,0.0,0.0,0.0,0.0,-2.2198,-2.1703,-2.1418,-2.1267,-2.1212,0.0,0.0,0.0,0.0,0.0,0.0,0.0,0.0,0.0,0.0,0.0,0.0,0.0,0.0,0.0,0.0,0.0,0.0,0.0,0.0,0.0,0.0,0.0,0.0,0.0,0.0,0.0,0.0,0.0,0.0,0.0,0.0,0.0,0.0,0.0,0.0,0.0,0.0,0.0,0.0,0.0,0.0,0.0,-2.3971,-2.3971,0.0,0.0,0.0,0.0,0.0,0.0,0.0,0.0,0.0,0.0,0.0,0.0,0.0,-2.4163,-2.4163,-2.4668,-2.4761,-2.4453,-2.4705,-2.4549,-2.405,-2.4239,-2.4253,-2.3992,-2.4094,0.0,-2.3742,-2.3858,0.0,0.0,0.0,0.0,0.0,0.0,0.0,0.0,0.0,0.0,0.0,0.0,0.0,0.0,0.0,0.0,0.0,0.0,0.0,0.0,0.0,0.0,0.0,0.0,0.0,0.0,0.0,0.0,0.0,0.0,0.0,0.0,0.0,0.0,0.0,0.0,-2.3619,-2.3101,-2.2757,-2.2526,-2.241,-2.241,-2.241,-2.2071,-2.1493,-2.1493,0.0,0.0,0.0,0.0,0.0,0.0,0.0,0.0,0.0,0.0,0.0,0.0,0.0,0.0,0.0,0.0,0.0,0.0,0.0,0.0,0.0,0.0,0.0,0.0,0.0,0.0,0.0,0.0,0.0,0.0,0.0,0.0,0.0,0.0,0.0,0.0,0.0,0.0,0.0,-2.3705,-2.3821,-2.3551,-2.3602,-2.3844,0.0,0.0,0.0,0.0,0.0,0.0,0.0,0.0,0.0,-2.415,-2.4476,-2.4625,-2.4625,-2.5208,-2.532,-2.5029,-2.5494,-2.5415,-2.487,-2.504,-2.4979,-2.4761,-2.4761,-2.4693,-2.4567,-2.4476,-2.4678,-2.505,0.0,0.0,0.0,0.0,-2.5777,-2.5828,0.0,0.0,0.0,0.0,0.0,0.0,0.0,0.0,0.0,0.0,0.0,0.0,0.0,0.0,0.0,-2.1547,0.0,0.0,0.0,0.0,0.0,0.0,0.0,0.0,0.0,0.0,0.0,-2.3901,-2.3825,-2.3603,-2.3078,-2.3078,-2.3078,-2.3078,-2.3078,-2.2686,-2.1907,-2.1907,-2.1907,0.0,0.0,0.0,0.0,0.0,0.0,0.0,0.0,0.0,0.0,0.0,0.0,0.0,0.0,0.0,0.0,0.0,0.0,0.0,0.0,0.0,0.0,0.0,0.0,0.0,0.0,0.0,0.0,0.0,0.0,0.0,0.0,0.0,0.0,0.0,0.0,0.0,0.0,-2.3832,-2.3782,-2.3393,-2.3501,-2.3784,0.0,0.0,0.0,0.0,0.0,0.0,-2.5121,-2.5154,-2.5177,-2.5177,-2.5177,-2.5177,-2.5177,-2.5606,-2.5701,-2.5414,-2.5849,-2.5861,-2.5484,-2.5484,-2.5421,-2.5294,-2.5294,-2.5294,-2.5293,-2.511,-2.5164,-2.531,-2.574,-2.591,-2.6022,-2.6481,-2.659,-2.6425,0.0,0.0,0.0,0.0,0.0,0.0,0.0,0.0,0.0,0.0,0.0,0.0,0.0,0.0,-1.9813,-1.9991,-2.1308,-2.2146,0.0,0.0,0.0,0.0,0.0,0.0,0.0,0.0,0.0,-2.4066,-2.3471,-2.3138,-2.3078,-2.3078,-2.3078,-2.3078,-2.3078,-2.304,-2.299,-2.299,-2.299,-2.3,0.0,0.0,0.0,0.0,0.0,0.0,0.0,0.0,0.0,0.0,0.0,0.0,0.0,0.0,0.0,0.0,0.0,0.0,0.0,0.0,0.0,0.0,0.0,0.0,0.0,0.0,0.0,0.0,0.0,0.0,0.0,0.0,0.0,0.0,0.0,0.0,0.0,0.0,0.0,-2.491,-2.4924,0.0,0.0,0.0,0.0,-2.5005,-2.5244,-2.5388,-2.5388,-2.5616,-2.5733,-2.5733,-2.5733,-2.5733,-2.5733,-2.5621,-2.5495,-2.5495,-2.5408,-2.5358,-2.5294,-2.5294,-2.5294,-2.5294,-2.5294,-2.5294,-2.5294,-2.5293,-2.5618,-2.606,-2.606,-2.6412,-2.6951,-2.7096,-2.6992,-2.6813,0.0,0.0,0.0,0.0,0.0,0.0,0.0,0.0,0.0,0.0,0.0,0.0,0.0,-1.9495,-1.9582,-2.0772,-2.0682,-2.0884,-2.1699,0.0,0.0,0.0,0.0,0.0,0.0,0.0,-2.4243,-2.3849,-2.3603,-2.3667,-2.4016,-2.3876,-2.3813,-2.3813,-2.3813,-2.3813,-2.3763,-2.3317,-2.3078,-2.3113,-2.3103,-2.3746,0.0,0.0,0.0,0.0,0.0,0.0,0.0,0.0,0.0,0.0,0.0,0.0,0.0,0.0,0.0,0.0,0.0,0.0,0.0,0.0,0.0,0.0,0.0,0.0,0.0,0.0,0.0,0.0,0.0,0.0,0.0,0.0,0.0,0.0,0.0,0.0,0.0,-2.4694,-2.4549,0.0,-2.4964,-2.5004,-2.5163,-2.5474,-2.5577,-2.5853,-2.6235,-2.6319,-2.6543,-2.6909,-2.6778,-2.67,-2.67,-2.6889,-2.7015,-2.7015,-2.7293,-2.7403,-2.729,-2.729,-2.7208,-2.7126,-2.7126,-2.7126,-2.7126,-2.7126,-2.6467,-2.5584,-2.5584,-2.5946,-2.6438,-2.6936,-2.7235,-2.753,0.0,0.0,0.0,0.0,0.0,0.0,0.0,0.0,0.0,0.0,0.0,-1.921,-1.9932,-1.9297,-1.9471,-2.1028,-2.0775,-2.0873,-2.1656,0.0,0.0,0.0,0.0,0.0,0.0,-2.4051,-2.4106,-2.4002,-2.3926,-2.4112,-2.4471,-2.4263,-2.4186,-2.4186,-2.4186,-2.4186,-2.4149,-2.3678,-2.3443,-2.3505,-2.3567,-2.4099,-2.4865,0.0,0.0,0.0,0.0,0.0,0.0,0.0,0.0,0.0,0.0,0.0,0.0,0.0,0.0,0.0,0.0,0.0,0.0,0.0,0.0,0.0,0.0,0.0,0.0,0.0,0.0,0.0,0.0,0.0,0.0,0.0,0.0,0.0,0.0,0.0,-2.4734,-2.4919,-2.4793,-2.4844,-2.5223,-2.5432,-2.5707,-2.6086,-2.64,-2.6726,-2.717,-2.7298,-2.7504,-2.788,-2.7937,-2.7971,-2.7971,-2.8336,-2.8558,-2.8558,-2.8855,-2.8959,-2.8836,-2.8836,-2.8836,-2.8674,-2.8674,-2.8674,-2.8662,-2.8461,-2.7662,-2.6502,-2.6311,-2.6633,-2.7286,-2.7913,-2.8214,-2.8402,0.0,0.0,0.0,0.0,0.0,0.0,0.0,0.0,0.0,0.0,-1.8317,-1.7734,-1.8849,-1.893,-1.9422,-2.0559,-2.165,-2.223,-2.2126,-2.3165,0.0,0.0,0.0,0.0,-2.354,-2.4078,-2.4418,-2.4496,-2.4288,-2.43,-2.4521,-2.4312,-2.4247,-2.4235,-2.4235,-2.4235,-2.4235,-2.4235,-2.4235,-2.4235,-2.4418,-2.457,-2.4728,0.0,0.0,0.0,0.0,0.0,0.0,0.0,0.0,0.0,0.0,0.0,0.0,0.0,0.0,0.0,0.0,0.0,0.0,0.0,0.0,0.0,0.0,0.0,0.0,0.0,0.0,0.0,0.0,0.0,0.0,0.0,0.0,0.0,-2.5896,-2.5382,-2.521,-2.5785,-2.585,-2.5863,-2.5903,-2.6399,-2.6739,-2.6778,-2.7608,-2.8187,-2.8226,-2.8518,-2.8669,-2.8682,-2.9244,-2.9538,-2.9538,-2.991,-3.0011,-3.0011,-2.9907,-2.9842,-2.9842,-2.9842,-2.9842,-2.9842,-2.9842,-2.9842,-2.9792,-2.9239,-2.9001,-2.895,-2.8348,-2.8592,-2.9434,-3.0048,-2.991,-2.9504,0.0,0.0,0.0,0.0,0.0,0.0,0.0,0.0,0.0,0.0,-1.9556,-1.9697,-2.014,-2.0258,-2.0665,-2.1596,-2.1861,-2.2177,-2.2517,0.0,0.0,0.0,0.0,0.0,-2.3286,-2.3897,-2.4431,-2.4731,-2.4798,-2.4995,-2.5306,-2.5237,-2.5156,-2.5018,-2.5018,-2.5018,-2.5018,-2.5018,-2.5018,-2.4945,-2.4649,-2.4746,-2.52,0.0,0.0,0.0,0.0,0.0,0.0,0.0,0.0,0.0,0.0,0.0,0.0,0.0,0.0,0.0,0.0,0.0,0.0,0.0,0.0,0.0,0.0,0.0,0.0,0.0,0.0,0.0,0.0,0.0,0.0,0.0,0.0,-2.7225,-2.6538,-2.5932,-2.5798,-2.6373,-2.6438,-2.6765,-2.7589,-2.7689,-2.8062,-2.8879,-2.9027,-2.9507,-3.0266,-3.0458,-3.0637,-3.1021,-3.1042,-3.1131,-3.1131,-3.1032,-3.1014,-3.1014,-3.0947,-3.0947,-3.0947,-3.0947,-3.0947,-3.0947,-3.0947,-3.0947,-3.0934,-3.0783,-3.0708,-3.0545,-2.8787,-2.8866,-3.0048,-3.0241,-3.0867,-3.1627,0.0,0.0,0.0,0.0,0.0,0.0,0.0,0.0,0.0,0.0,-1.9269,-1.973,-2.0069,-2.0546,-2.126,-2.2246,-2.2287,-2.2347,-2.2555,0.0,0.0,0.0,0.0,-2.3494,-2.3736,-2.4105,-2.4597,-2.5144,-2.5144,-2.5314,-2.5606,-2.5535,-2.5382,-2.5312,-2.5312,-2.5312,-2.5312,-2.5312,-2.5312,-2.5252,-2.5061,-2.507,-2.5291,-2.5679,-2.6156,-2.6687,-2.6879,-2.7442,-2.8053,-2.8248,0.0,0.0,0.0,0.0,0.0,0.0,0.0,0.0,0.0,0.0,0.0,0.0,0.0,0.0,0.0,0.0,0.0,0.0,0.0,0.0,0.0,0.0,0.0,0.0,-2.8856,-2.8353,-2.8208,-2.725,-2.6844,-2.7667,-2.7704,-2.7988,-2.8872,-2.9041,-2.9413,-3.0327,-3.0381,-3.0726,-3.1401,-3.1347,-3.1407,-3.1711,-3.1871,-3.1915,-3.1915,-3.2059,-3.2102,-3.2102,-3.2102,-3.2102,-3.2102,-3.2102,-3.2102,-3.2102,-3.2102,-3.2102,-3.2077,-3.1838,-3.1738,0.0,0.0,0.0,0.0,0.0,-3.3099,-3.4042,0.0,0.0,0.0,0.0,0.0,0.0,0.0,0.0,0.0,0.0,0.0,-1.8987,-1.9513,-2.0521,-2.1523,-2.258,-2.2678,-2.2616,0.0,0.0,0.0,-2.2955,-2.3204,-2.37,-2.4494,-2.4578,-2.4912,-2.5535,-2.5382,-2.5382,-2.5535,-2.5382,-2.5312,-2.5312,-2.5312,-2.5312,-2.5312,-2.5312,-2.5312,-2.5312,-2.5453,-2.5395,-2.5185,-2.5807,-2.6258,-2.6735,-2.7212,-2.7921,-2.864,-2.9138,0.0,0.0,0.0,0.0,0.0,0.0,0.0,0.0,0.0,0.0,0.0,0.0,0.0,0.0,0.0,0.0,0.0,0.0,0.0,0.0,0.0,0.0,0.0,0.0,-3.0087,-2.9923,-3.0615,-2.9173,-2.8431,-2.9411,-2.9327,-2.9443,-2.9964,-3.0342,-3.0727,-3.1315,-3.1559,-3.1782,-3.1845,0.0,0.0,0.0,0.0,-3.2303,-3.2303,-3.2817,-3.3081,-3.3081,-3.3081,-3.3081,-3.3081,-3.3081,-3.3081,-3.3081,-3.3081,-3.3081,-3.3031,-3.2516,-3.2303,-3.2407,-3.2735,-3.3274,-3.3968,-3.4948,-3.5711,-3.6158,0.0,0.0,0.0,0.0,0.0,0.0,0.0,0.0,0.0,-1.9521,-1.9993,-2.0577,-2.1257,-2.1692,-2.2127,-2.242,-2.2482,-2.242,0.0,0.0,-2.2935,-2.2979,-2.3773,-2.4314,-2.4518,-2.4939,-2.5216,-2.5382,-2.5465,-2.5465,-2.5382,-2.5465,-2.5465,-2.5312,-2.5312,-2.5312,-2.5312,-2.5312,-2.5312,-2.5312,-2.5312,-2.5392,-2.553,-2.5807,-2.609,-2.64,-2.7057,-2.7523,-2.7898,-2.8584,-2.8834,-2.8931,-2.9421,0.0,0.0,0.0,0.0,0.0,0.0,0.0,0.0,0.0,0.0,0.0,0.0,0.0,0.0,0.0,0.0,0.0,0.0,0.0,0.0,-3.1718,-3.1622,-3.1877,-3.2951,-3.2347,-3.1588,-3.1156,-3.0634,-3.07,-3.1536,-3.1675,-3.1902,-3.2219,-3.218,-3.2349,-3.2814,-3.2754,-3.2754,-3.2754,-3.2855,-3.2918,-3.2918,-3.3018,-3.3081,-3.3081,0.0,0.0,-3.3081,-3.3081,-3.3081,-3.3081,-3.3081,-3.3081,-3.3068,-3.2955,-3.3208,-3.3643,-3.3674,-3.3738,-3.4044,-3.5331,-3.5928,-3.6014,0.0,0.0,0.0,0.0,0.0,0.0,0.0,0.0,0.0,0.0,-2.0205,-2.0803,-2.1129,-2.18,-2.2247,-2.2309,-2.2309,0.0,0.0,-2.2898,-2.3207,-2.3725,-2.4242,-2.465,-2.4903,-2.5168,-2.5312,-2.5312,-2.5382,-2.5382,-2.5312,-2.5382,-2.5382,-2.5312,-2.5312,-2.5312,-2.5312,-2.5312,-2.5312,-2.5312,-2.5312,-2.5382,-2.5453,-2.5535,-2.6025,-2.6663,-2.7262,-2.7944,-2.856,-2.924,-2.9566,-2.9682,-2.9941,-2.982,-2.9625,0.0,0.0,0.0,0.0,0.0,0.0,0.0,0.0,0.0,0.0,0.0,0.0,0.0,0.0,-3.1057,0.0,0.0,-3.2088,-3.2473,-3.2753,-3.3192,-3.4095,-3.386,-3.3219,-3.2471,-3.2117,-3.1928,-3.2217,-3.2155,-3.2301,-3.2786,-3.2739,-3.2767,-3.3056,-3.3081,-3.3081,-3.3081,-3.3081,-3.3081,-3.3081,-3.3081,-3.3081,-3.3081,-3.3081,-3.3081,-3.3081,-3.3081,-3.3081,-3.3081,-3.3081,-3.2982,-3.2896,-3.3227,-3.3543,-3.3959,-3.4766,-3.5086,-3.5256,-3.6354,-3.6816,-3.6742,0.0,0.0,0.0,0.0,0.0,0.0,0.0,0.0,0.0,0.0,-2.012,-2.0783,-2.0799,-2.1675,-2.2197,0.0,0.0,0.0,0.0,-2.3075,-2.3544,-2.4482,-2.4614,-2.4879,-2.53,-2.5312,-2.5312,-2.5312,-2.5312,-2.5312,-2.5312,-2.5408,-2.5456,-2.5468,-2.5576,-2.5624,-2.5624,-2.5624,-2.5624,-2.5624,-2.5624,-2.5564,-2.5456,-2.5456,-2.5947,-2.6731,-2.7298,-2.8168,-2.917,-2.987,-3.0312,-3.0568,-3.0568,-3.0219,-2.9813,-2.9813,-2.945,0.0,0.0,0.0,0.0,0.0,0.0,0.0,0.0,0.0,-3.0671,-3.0862,-3.0951,-3.1141,-3.1921,-3.2217,-3.2511,-3.3157,-3.3752,-3.4318,-3.5044,-3.5023,-3.4644,-3.4076,-3.3514,-3.3118,-3.2912,-3.263,-3.2663,-3.3043,-3.3081,-3.3081,-3.3081,-3.3081,-3.3081,-3.3081,-3.3081,-3.3131,-3.3232,-3.3232,-3.3232,-3.3232,-3.3232,-3.3082,-3.2982,-3.2995,-3.2995,-3.2995,-3.2995,-3.281,-3.2723,-3.3215,-3.3543,-3.3797,-3.5332,-3.6056,-3.6294,-3.7211,-3.7534,-3.7534,0.0,0.0,0.0,0.0,0.0,0.0,0.0,0.0,0.0,0.0,0.0,0.0,0.0,0.0,0.0,0.0,0.0,0.0,-2.2943,-2.3424,-2.3929,-2.4494,-2.4975,-2.5252,-2.5312,-2.5312,-2.5312,-2.5312,-2.5312,-2.5312,-2.5312,-2.5793,-2.6009,-2.6033,-2.6526,-2.6755,-2.6755,-2.6755,-2.6755,-2.6755,-2.6755,-2.6454,-2.6009,-2.6009,-2.5936,-2.5804,-2.6501,-2.7432,-2.8441,-2.917,-2.9931,-3.0568,-3.0568,-3.0524,-3.0466,-3.0466,0.0,-3.0379,-3.0451,-3.0466,-3.048,-3.0553,-3.0568,-3.0568,0.0,0.0,-3.0742,-3.1293,-3.1409,-3.1613,-3.2295,-3.294,-3.3522,-3.4161,-3.4791,-3.5662,-3.6809,-3.6953,-3.6842,-3.6501,-3.4925,-3.3896,-3.4158,-3.3636,-3.325,-3.3068,-3.3081,-3.3081,-3.3081,-3.3081,-3.3081,-3.3081,-3.3081,-3.3319,-3.3809,-3.3809,-3.3809,-3.3809,-3.3532,-3.3183,-3.2723,-3.2562,-3.2475,-3.2475,-3.2475,-3.2487,-3.2475,-3.2475,-3.2896,-3.3569,-3.4454,-3.5277,-3.591,-3.6978,-3.7303,-3.7303,0.0,0.0,0.0,0.0,0.0,0.0,0.0,0.0,0.0,0.0,0.0,0.0,0.0,0.0,0.0,0.0,0.0,0.0,-2.3388,-2.3718,-2.4133,-2.4939,-2.5192,-2.5312,-2.5312,-2.5312,-2.5312,-2.5312,-2.5312,-2.5312,-2.5312,-2.5853,-2.6093,-2.6117,-2.6683,-2.6935,-2.6935,-2.6935,-2.6935,-2.6935,-2.6935,-2.6803,-2.6586,-2.6586,-2.6542,-2.6553,-2.6879,-2.7327,0.0,0.0,-2.9918,-3.0447,-3.0447,-3.0507,-3.0568,-3.0568,-3.0568,0.0,-3.0568,-3.0568,-3.0568,0.0,-3.0568,-3.0669,-3.1032,-3.1119,-3.1308,-3.1961,-3.2092,-3.2411,-3.3427,-3.3833,-3.4341,0.0,-3.6069,-3.6678,-3.723,-3.7607,-3.7763,-3.7691,-3.6479,-3.5318,-3.4454,-3.4147,-3.3738,-3.3154,-3.3081,-3.3219,-3.3533,-3.3558,-3.3709,-3.4022,-3.4035,-3.4148,-3.4374,-3.4374,-3.4374,-3.4374,-3.4285,-3.3981,-3.3667,-3.3578,-3.3239,-3.2843,-3.2347,-3.2213,-3.2213,-3.2612,-3.3177,-3.4011,-3.4937,-3.5749,-3.6494,-3.6978,-3.7148,-3.7148,0.0,0.0,0.0,0.0,0.0,0.0,0.0,0.0,0.0,0.0,0.0,0.0,0.0,0.0,0.0,0.0,0.0,0.0,0.0,-2.3893,-2.4374,-2.5264,-2.5312,-2.5312,-2.5312,-2.5312,-2.5312,-2.5312,-2.5312,-2.5384,-2.554,-2.6081,-2.6406,-2.6562,-2.7115,-2.7368,-2.7368,-2.7368,-2.7368,-2.7368,-2.7368,-2.7284,-2.7152,-2.7152,-2.7101,-2.7123,-2.7398,-2.7765,0.0,0.0,-3.0238,-3.0692,-3.0582,-3.0661,-3.0754,-3.0626,-3.0568,-3.0568,-3.0568,-3.0568,-3.0611,-3.08,-3.0843,-3.1003,-3.1642,-3.1801,-3.1975,-3.2643,-3.2919,-3.3369,-3.4472,-3.482,-3.5299,-3.6402,-3.6983,-3.736,-3.7535,-3.7926,-3.8202,-3.8202,-3.7644,-3.6702,-3.5196,-3.4634,-3.4127,-3.3381,-3.3307,-3.3545,-3.4098,-3.4123,-3.4311,-3.4713,-3.4726,-3.4801,-3.4951,-3.4951,-3.4951,-3.4951,-3.4769,-3.45,-3.4168,-3.4077,-3.3686,-3.3228,-3.2645,-3.2313,-3.2168,-3.2648,-3.3303,-3.3972,-3.465,-3.5655,-3.6652,-3.6652,-3.6808,-3.6978,0.0,0.0,0.0,0.0,0.0,0.0,0.0,0.0,0.0,0.0,0.0,0.0,0.0,0.0,0.0,0.0,0.0,0.0,0.0,-2.423,-2.4735,-2.5288,-2.5312,-2.5312,-2.5312,-2.5312,-2.5312,-2.5312,-2.5312,-2.5576,-2.6093,-2.6647,-2.7176,-2.7693,-2.8222,-2.8462,-2.8462,-2.8462,-2.8462,-2.8462,-2.8462,-2.8162,-2.7705,-2.7705,-2.7368,-2.6974,-2.7827,0.0,0.0,0.0,-3.116,-3.1811,-3.1401,-3.1277,0.0,-3.0756,-3.0568,-3.0568,-3.0568,-3.0568,-3.0727,-3.1337,-3.1482,-3.1671,-3.2338,-3.2483,-3.2672,-3.3311,-3.3935,-3.4559,-3.5212,-3.5836,-3.6475,-3.7172,-3.7302,-3.7506,-3.8086,-3.8188,-3.8202,-3.8202,-3.8202,-3.781,0.0,-3.5345,-3.4211,-3.3922,-3.3872,-3.411,-3.4663,-3.47,-3.47,-3.4726,-3.4726,-3.4977,-3.5516,-3.5516,-3.5516,-3.5424,-3.4972,-3.4514,-3.3998,-3.3562,-3.3272,-3.326,-3.3248,-3.2947,-3.2478,-3.2478,-3.2742,-3.3066,-3.3066,-3.4152,-3.5749,-3.5749,-3.6243,-3.6978,0.0,0.0,0.0,0.0,0.0,0.0,0.0,0.0,0.0,0.0,0.0,0.0,0.0,0.0,0.0,0.0,0.0,0.0,0.0,-2.4242,-2.4759,-2.5288,-2.5312,-2.5312,-2.5312,-2.5312,-2.5312,-2.5312,-2.5312,-2.5576,-2.6105,-2.6671,-2.7224,-2.7741,-2.827,-2.851,-2.851,-2.851,-2.851,-2.851,-2.851,-2.8402,-2.8246,-2.8246,-2.8504,-2.9007,0.0,0.0,0.0,0.0,0.0,-3.1744,-3.1804,-3.1732,-3.169,-3.1665,-3.1416,-3.1293,-3.1743,-3.154,-3.1351,-3.2019,-3.2179,-3.2353,-3.3006,-3.3151,-3.3456,-3.4569,-3.4893,-3.5372,-3.6446,-3.6823,-3.7172,-3.7796,-3.7897,-3.797,-3.8173,-3.8202,-3.8202,-3.8202,-3.8202,0.0,0.0,0.0,0.0,-3.4779,-3.4578,-3.4688,-3.524,-3.5265,-3.5691,-3.6689,-3.6164,-3.6252,-3.6985,-3.6269,-3.5824,-3.5824,-3.5338,-3.4954,-3.4771,-3.404,-3.3789,-3.3765,-3.344,-3.3188,-3.302,-3.302,-3.3423,-3.3984,-3.3709,-3.4679,-3.6157,-3.5818,-3.6243,-3.6978,0.0,0.0,0.0,0.0,0.0,0.0,0.0,0.0,0.0,0.0,0.0,0.0,0.0,0.0,0.0,0.0,0.0,0.0,0.0,0.0,-2.4951,-2.5288,-2.5312,-2.5312,-2.5312,-2.5312,-2.5396,-2.5588,-2.5396,-2.5685,-2.6406,-2.6767,-2.7224,-2.7741,-2.827,-2.851,-2.851,-2.851,-2.851,-2.851,-2.851,-2.851,-2.851,-2.851,-2.9118,0.0,0.0,0.0,0.0,0.0,0.0,-3.2277,-3.225,-3.2088,-3.2047,-3.2177,-3.2017,-3.1975,-3.2396,-3.2208,-3.2034,-3.2687,-3.2861,-3.3021,-3.3659,-3.3978,-3.4385,-3.5267,-3.5735,-3.6315,-3.7157,-3.7491,-3.7752,-3.8144,-3.8202,-3.8202,-3.8202,-3.8202,-3.8202,-3.8202,-3.8202,-3.8048,0.0,0.0,0.0,-3.6021,-3.597,-3.6289,-3.6767,-3.6806,-3.7235,-3.8238,-3.7348,-3.7176,-3.7808,-3.6734,-3.6003,-3.5812,-3.5416,-3.5126,-3.5017,-3.4475,-3.433,-3.4306,-3.3982,-3.3729,-3.3561,-3.3922,-3.4329,-3.4625,-3.4616,-3.5521,-3.6822,-3.6212,-3.656,-3.7274,0.0,0.0,0.0,0.0,0.0,0.0,0.0,0.0,0.0,0.0,0.0,0.0,0.0,0.0,0.0,0.0,0.0,0.0,0.0,0.0,0.0,-2.5382,-2.5312,-2.5312,-2.5312,-2.5312,-2.5552,-2.6057,-2.5588,-2.5889,-2.6935,-2.6959,-2.726,-2.7789,-2.8282,-2.851,-2.851,-2.851,-2.851,-2.851,-2.851,-2.851,-2.851,-2.859,0.0,0.0,0.0,0.0,0.0,0.0,0.0,0.0,-3.2814,-3.2487,-3.2277,-3.2277,-3.2392,-3.2507,-3.2535,-3.2521,-3.2651,-3.3354,-3.3543,-3.3717,-3.4327,-3.4951,-3.5415,-3.5459,-3.6446,-3.7317,-3.7346,-3.7825,-3.8202,-3.8202,-3.8202,-3.8202,-3.8202,-3.8202,-3.8202,0.0,0.0,0.0,0.0,0.0,0.0,-3.7642,0.0,-3.87,-3.9169,-3.921,-3.9197,-3.9285,-3.8328,-3.79,-3.7991,-3.6989,-3.6168,-3.5608,-3.532,-3.503,-3.4823,-3.4823,-3.4823,-3.4823,-3.4823,-3.4535,-3.4173,-3.5171,-3.5307,-3.4983,-3.5833,-3.6791,-3.749,-3.6892,-3.7166,-3.7821,0.0,0.0,0.0,0.0,0.0,0.0,0.0,0.0,0.0,0.0,0.0,0.0,0.0,0.0,0.0,0.0,0.0,0.0,0.0,0.0,0.0,0.0,0.0,0.0,0.0,0.0,0.0,0.0,0.0,-2.625,-2.6947,-2.7332,-2.7801,-2.8318,-2.845,-2.851,-2.851,-2.851,-2.851,-2.851,0.0,-2.851,-2.859,0.0,0.0,0.0,0.0,0.0,0.0,0.0,0.0,0.0,0.0,-3.3182,-3.326,-3.3397,-3.3135,-3.2915,-3.3523,-3.324,-3.2973,-3.3618,-3.4134,-3.4522,-3.4874,-3.5394,-3.6057,-3.6707,-3.707,-3.7447,-3.7897,-3.8101,-3.8202,-3.8202,-3.8202,0.0,-3.8202,-3.8202,0.0,-3.8202,0.0,-3.8463,-3.9131,-3.9491,0.0,0.0,-3.9432,-3.9047,-3.9197,-3.921,-3.9549,-4.0246,-3.9285,-3.921,-3.9899,-3.803,-3.6871,-3.6377,-3.5571,-3.503,-3.4823,-3.4823,-3.4823,-3.4823,-3.4823,-3.5126,-3.5742,-3.6013,-3.6485,-3.704,-3.6867,-3.7302,-3.803,-3.7504,-3.7524,-3.7878,0.0,0.0,0.0,0.0,0.0,0.0,0.0,0.0,0.0,0.0,0.0,0.0,0.0,0.0,0.0,0.0,0.0,0.0,0.0,0.0,0.0,0.0,0.0,0.0,0.0,0.0,0.0,0.0,0.0,0.0,0.0,-2.7236,-2.7657,-2.8174,-2.8402,-2.851,-2.851,-2.851,0.0,0.0,0.0,0.0,0.0,0.0,0.0,0.0,0.0,0.0,0.0,0.0,0.0,-3.3466,-3.3326,-3.3466,-3.3744,-3.3744,0.0,-3.3532,-3.3905,-3.3679,-3.3439,-3.3811,-3.4354,-3.4811,-3.5078,-3.5784,-3.662,-3.7157,-3.7799,-3.8209,-3.8219,-3.8472,-3.8546,0.0,0.0,0.0,-3.8202,-3.8202,-3.8202,0.0,-3.8463,0.0,-3.9538,-4.0162,-4.0815,0.0,-4.0887,-4.0474,-4.0474,-4.0474,-4.0731,-4.1254,-4.0346,-3.9637,-3.9373,-3.7939,-3.6845,-3.6118,-3.5391,-3.4932,-3.4823,-3.4823,-3.4823,-3.4823,0.0,-3.5571,-3.5763,-3.7031,-3.7691,-3.7861,-3.8416,-3.891,-3.9274,-3.8766,-3.8588,-3.8636,0.0,0.0,0.0,0.0,0.0,0.0,0.0,0.0,0.0,0.0,0.0,0.0,0.0,0.0,0.0,0.0,0.0,0.0,0.0,0.0,0.0,0.0,0.0,0.0,0.0,0.0,0.0,0.0,0.0,0.0,0.0,0.0,0.0,0.0,0.0,0.0,0.0,0.0,0.0,0.0,0.0,0.0,0.0,0.0,0.0,0.0,0.0,0.0,0.0,0.0,-3.3326,-3.3326,-3.3326,-3.3536,-3.3827,-3.3675,-3.3799,-3.3991,-3.3951,-3.3896,-3.3827,-3.3827,-3.4284,-3.4839,-3.5109,-3.6057,-3.6893,-3.7214,0.0,-3.885,-3.809,-3.8649,-3.8911,-3.8221,0.0,-3.8202,-3.8202,-3.8202,-3.8202,-3.8202,-3.8797,-3.9436,-4.0046,-4.0713,-4.1381,-4.2049,-4.2092,-4.2092,-4.2092,-4.2092,-4.2092,-4.2092,-4.1254,-4.0,-3.8342,-3.7769,-3.6938,-3.5883,-3.5307,-3.492,-3.4823,-3.492,-3.5017,-3.5017,-3.5953,0.0,-3.5379,-3.7848,-3.8496,-3.816,-3.9881,-4.0602,-4.0631,-4.0097,-3.9859,-3.962,0.0,0.0,0.0,0.0,0.0,0.0,0.0,0.0,0.0,0.0,-2.5104,0.0,0.0,0.0,0.0,0.0,0.0,0.0,0.0,0.0,0.0,0.0,0.0,0.0,0.0,0.0,0.0,0.0,0.0,0.0,0.0,0.0,0.0,0.0,0.0,0.0,0.0,0.0,0.0,0.0,0.0,0.0,0.0,0.0,0.0,0.0,0.0,0.0,0.0,0.0,-3.3396,-3.3536,-3.3326,-3.3466,-3.3675,-3.3827,-3.3744,-3.3744,-3.3896,-3.3758,-3.3605,-3.3466,-3.386,-3.4524,-3.5468,-3.5812,0.0,0.0,-3.7485,-3.7426,-3.6764,-3.7617,-3.8273,-3.7609,0.0,0.0,0.0,0.0,-3.8202,0.0,0.0,0.0,0.0,0.0,0.0,0.0,0.0,-4.2092,-4.2092,-4.2092,-4.2092,-4.2092,-4.1912,-4.1535,-4.1071,-4.0187,-3.9019,-3.7665,-3.6777,-3.587,-3.4835,-3.5667,-3.6036,-3.6036,-3.6225,0.0,-3.7243,-3.6964,-3.7678,-3.9033,-3.9299,-3.9954,-4.0688,-4.0575,-4.0224,-3.9746,0.0,0.0,0.0,0.0,0.0,0.0,0.0,0.0,0.0,-2.5851,-2.5674,-2.5453,0.0,0.0,0.0,0.0,0.0,0.0,0.0,0.0,0.0,0.0,0.0,0.0,0.0,0.0,0.0,0.0,0.0,0.0,0.0,0.0,0.0,0.0,0.0,0.0,0.0,0.0,0.0,0.0,0.0,0.0,0.0,0.0,0.0,0.0,0.0,0.0,0.0,0.0,-3.3466,-3.3675,-3.3396,-3.3536,-3.3744,-3.3744,-3.3744,-3.3758,-3.3896,-3.3827,-3.3675,-3.3536,-3.3931,-3.4525,-3.511,0.0,0.0,0.0,-3.7057,-3.7154,-3.6443,0.0,0.0,0.0,0.0,0.0,0.0,0.0,0.0,0.0,0.0,0.0,0.0,0.0,0.0,0.0,0.0,-4.2092,-4.2092,-4.1995,-4.1814,-4.1745,-4.1745,-4.148,-4.0845,-4.0215,-3.9312,-3.8134,-3.752,-3.6977,-3.6414,-3.6871,-3.679,-3.632,-3.6871,0.0,-3.632,-3.7402,-3.8043,-3.8599,-3.959,-4.0243,-4.0702,-4.0702,-4.0519,-4.021,0.0,0.0,0.0,0.0,0.0,0.0,0.0,-2.5554,-2.5893,-2.5893,-2.5893,-2.5893,-2.5893,-2.5021,-2.4781,0.0,0.0,0.0,0.0,0.0,0.0,0.0,0.0,0.0,0.0,0.0,0.0,0.0,0.0,0.0,0.0,0.0,0.0,0.0,0.0,0.0,0.0,0.0,0.0,0.0,0.0,0.0,0.0,0.0,0.0,0.0,0.0,0.0,0.0,0.0,-3.3605,-3.3827,-3.3536,-3.3675,-3.3882,-3.3744,-3.3813,-3.3965,-3.3896,-3.3896,-3.3882,-3.3605,-3.3974,-3.4441,-3.4754,-3.5125,0.0,0.0,-3.6581,-3.6805,-3.6215,0.0,-3.8879,0.0,0.0,0.0,0.0,0.0,0.0,0.0,0.0,0.0,0.0,0.0,0.0,0.0,0.0,0.0,-4.1995,-4.18,-4.1619,-4.1396,-4.1396,-4.1043,-4.0257,-4.0055,-3.9414,-3.8419,-3.816,-3.7978,-3.7808,-3.7978,-3.752,-3.6696,-3.7704,0.0,0.0,-3.7939,-3.8599,-3.8251,-3.9779,-4.0502,-4.0702,-4.0702,-4.0702,-4.0631,0.0,0.0,0.0,0.0,0.0,0.0,0.0,-2.5753,-2.5893,-2.5893,-2.5893,-2.5893,-2.5893,-2.5784,-2.577,0.0,0.0,0.0,0.0,0.0,0.0,0.0,0.0,0.0,0.0,0.0,0.0,0.0,0.0,0.0,0.0,0.0,0.0,0.0,0.0,0.0,0.0,0.0,0.0,0.0,0.0,0.0,0.0,0.0,0.0,0.0,0.0,0.0,0.0,0.0,0.0,-3.3896,-3.3896,-3.3937,-3.4059,-3.3882,0.0,0.0,-3.3951,-3.402,-3.3991,-3.3452,-3.3648,-3.4111,-3.4654,0.0,0.0,-3.5328,-3.5562,-3.5579,-3.5514,-3.7112,-3.8427,0.0,0.0,-3.932,0.0,0.0,0.0,0.0,0.0,0.0,0.0,0.0,0.0,0.0,0.0,0.0,-4.1785,-4.1688,-4.1619,-4.1396,-4.1396,-4.1213,-4.0916,-4.0901,-4.0287,-3.9121,-3.9121,-3.8599,-3.7808,-3.8675,-3.8599,-3.7717,-3.8675,0.0,0.0,-3.7808,-3.8419,-3.9121,-3.9299,-3.9867,-4.0702,-4.0702,-4.0702,-4.0688,0.0,0.0,0.0,0.0,0.0,0.0,0.0,-2.5994,-2.5893,-2.5893,-2.5893,-2.5893,-2.5893,-2.5893,-2.5893,0.0,0.0,0.0,0.0,0.0,0.0,0.0,0.0,0.0,0.0,0.0,0.0,0.0,0.0,0.0,0.0,0.0,0.0,0.0,0.0,0.0,0.0,0.0,0.0,0.0,0.0,0.0,0.0,0.0,0.0,0.0,0.0,0.0,0.0,0.0,0.0,0.0,-3.3896,-3.4088,0.0,0.0,-3.4059,-3.4128,-3.421,-3.4142,-3.4059,-3.3854,-3.3813,-3.3954,-3.4307,0.0,-3.4322,-3.523,-3.5398,-3.5514,-3.5946,-3.7683,-3.8789,0.0,0.0,0.0,0.0,0.0,0.0,0.0,0.0,0.0,0.0,0.0,0.0,0.0,0.0,0.0,-4.1254,-4.1521,-4.1619,-4.1396,-4.1198,-4.11,-4.1001,-4.0845,-4.0588,-4.0128,-4.0128,-3.9867,-3.953,-3.9954,-3.959,-3.8675,-3.9033,0.0,0.0,-3.8419,-3.8854,-3.9299,-3.9853,-4.0329,-4.0702,-4.0702,-4.0702,-4.0702,0.0,0.0,0.0,0.0,0.0,0.0,-2.622,-2.6183,-2.6042,-2.5893,-2.5893,-2.5893,-2.5893,-2.5893,-2.5893,-2.5893,0.0,0.0,0.0,0.0,0.0,0.0,0.0,0.0,0.0,0.0,0.0,0.0,0.0,0.0,0.0,0.0,0.0,0.0,0.0,0.0,0.0,0.0,0.0,0.0,0.0,0.0,0.0,0.0,0.0,0.0,0.0,0.0,0.0,0.0,0.0,0.0,0.0,0.0,0.0,0.0,-3.4128,-3.4196,-3.4278,-3.4264,-3.4128,-3.4074,-3.4005,-3.4088,0.0,0.0,-3.4572,-3.5023,-3.54,-3.5834,-3.6322,-3.7935,-3.8982,0.0,0.0,-4.0622,0.0,0.0,0.0,0.0,0.0,0.0,0.0,0.0,0.0,0.0,0.0,0.0,-4.11,-4.1451,-4.1465,-4.1227,-4.1015,-4.093,-4.093,-4.0773,-4.0702,-4.0702,-4.0702,-4.0702,-4.0702,-4.0702,-4.0142,-3.921,-3.9489,0.0,0.0,-3.9224,-3.9664,-3.9664,-4.0416,-4.0702,-4.0702,-4.0702,-4.0702,-4.0702,0.0,0.0,0.0,0.0,0.0,0.0,0.0,-2.63,-2.6351,-2.5948,-2.5893,-2.5893,-2.5893,-2.5893,-2.5893,-2.5893,0.0,0.0,0.0,0.0,0.0,0.0,0.0,0.0,0.0,0.0,0.0,-2.9602,-2.9602,0.0,0.0,0.0,0.0,0.0,0.0,0.0,0.0,0.0,0.0,0.0,0.0,0.0,0.0,0.0,0.0,0.0,0.0,0.0,0.0,0.0,0.0,0.0,0.0,0.0,0.0,0.0,-3.4264,-3.4346,-3.4128,-3.4264,-3.4346,-3.3951,-3.4157,-3.4346,0.0,0.0,-3.5219,-3.4534,-3.5464,-3.6384,-3.6384,-3.7492,-3.8854,-4.0224,-4.0415,0.0,0.0,0.0,0.0,0.0,0.0,0.0,0.0,0.0,0.0,0.0,0.0,0.0,-4.1396,-4.1396,-4.1227,-4.0702,-4.0688,-4.0702,-4.0702,-4.0702,-4.0702,-4.0702,-4.0702,-4.0702,-4.0702,-4.0702,-4.0142,-3.9299,0.0,0.0,0.0,-4.0229,-4.0688,-4.0702,-4.0702,-4.0702,-4.0702,-4.0702,-4.0702,-4.0702,0.0,0.0,0.0,0.0,0.0,0.0,0.0,-2.676,-2.6864,-2.6759,-2.6457,-2.6297,-2.6297,-2.6042,-2.5893,-2.5893,0.0,0.0,0.0,0.0,0.0,0.0,0.0,0.0,0.0,0.0,0.0,-2.9927,-2.9775,-2.9761,-2.9761,0.0,0.0,0.0,0.0,0.0,0.0,0.0,0.0,0.0,0.0,0.0,0.0,0.0,0.0,0.0,0.0,0.0,0.0,0.0,0.0,0.0,0.0,0.0,0.0,0.0,0.0,0.0,-3.4346,-3.4264,-3.4196,-3.421,-3.421,-3.4317,-3.489,0.0,-3.5593,-3.629,-3.6784,-3.7228,-3.7606,-3.8885,-3.9801,-3.9783,-4.0532,0.0,0.0,0.0,0.0,0.0,0.0,0.0,0.0,0.0,0.0,0.0,0.0,0.0,-4.0958,-4.0958,-4.0958,-4.1142,-4.1015,-4.093,-4.093,-4.0773,-4.0702,-4.0702,-4.0702,-4.0702,-4.0702,-4.0702,-4.0516,0.0,0.0,0.0,0.0,-4.0602,-4.0702,-4.0702,-4.0702,-4.0702,-4.0702,-4.0702,-4.0702,-4.0702,0.0,0.0,0.0,0.0,0.0,0.0,0.0,-2.6688,-2.6994,-2.7093,-2.6864,-2.6721,-2.6721,-2.651,-2.6351,-2.6351,0.0,0.0,0.0,0.0,0.0,0.0,0.0,0.0,0.0,0.0,-2.9657,-3.0111,-2.996,-2.9884,-2.9884,-2.9884,-2.9837,0.0,0.0,0.0,0.0,0.0,0.0,0.0,0.0,0.0,-3.0881,0.0,0.0,0.0,0.0,0.0,0.0,0.0,0.0,0.0,0.0,0.0,0.0,0.0,-3.6024,-3.5154,0.0,-3.5073,-3.5008,-3.5154,-3.489,0.0,0.0,0.0,-3.6009,-3.6845,-3.7682,-3.8253,-3.8333,-3.9527,-4.0339,-3.9866,-4.054,0.0,0.0,0.0,0.0,0.0,0.0,0.0,0.0,0.0,0.0,0.0,0.0,0.0,-4.0702,-4.0702,-4.0873,-4.1128,-4.0944,-4.093,-4.093,-4.0773,-4.0702,-4.0702,-4.0702,-4.0702,-4.0702,-4.0702,-4.0702,0.0,0.0,0.0,0.0,-4.0702,-4.0702,-4.0702,-4.0702,-4.0702,-4.0702,-4.0702,-4.0702,-4.0702,0.0,0.0,0.0,0.0,0.0,0.0,0.0,0.0,0.0,0.0,-2.7144,-2.7122,-2.7122,-2.7122,-2.7122,0.0,0.0,0.0,0.0,0.0,0.0,0.0,0.0,0.0,0.0,-2.8905,-2.9305,-3.004,-3.0097,-3.0111,-3.0111,-3.0111,-3.0111,-3.0111,-3.0111,0.0,0.0,0.0,0.0,0.0,0.0,0.0,0.0,0.0,0.0,0.0,0.0,0.0,0.0,0.0,0.0,0.0,0.0,0.0,0.0,0.0,0.0,0.0,0.0,-3.6446,0.0,0.0,0.0,0.0,0.0,0.0,0.0,-3.6569,-3.8181,-3.9317,-3.8724,-3.9661,-4.0481,-4.0529,-4.0437,0.0,0.0,0.0,0.0,0.0,0.0,0.0,0.0,0.0,0.0,0.0,0.0,0.0,-4.0702,-4.0702,-4.0702,-4.0702,-4.0702,-4.0702,-4.0702,-4.0702,-4.0702,-4.0702,-4.0702,-4.0702,-4.0702,-4.0702,-4.0702,0.0,0.0,0.0,0.0,-4.0702,-4.0702,-4.0702,-4.0702,-4.0702,-4.0702,-4.0702,-4.0702,-4.0688,0.0,0.0,0.0,0.0,0.0,0.0,0.0,0.0,0.0,0.0,-2.7523,-2.7625,-2.7625,-2.7342,-2.7122,0.0,0.0,0.0,0.0,0.0,0.0,0.0,0.0,0.0,0.0,-2.8698,-2.9462,-2.9739,-3.0096,-3.0266,-3.0266,-3.0266,-3.0219,-3.0111,-3.0219,-3.0433,-3.0822,0.0,0.0,0.0,0.0,0.0,0.0,0.0,0.0,0.0,-3.3543,-3.4246,0.0,0.0,0.0,0.0,0.0,0.0,0.0,0.0,-3.8017,-3.796,-3.796,0.0,-3.6384,-3.6384,-3.6259,-3.6322,0.0,0.0,0.0,0.0,0.0,0.0,0.0,-4.0324,-4.0639,-4.1209,-4.0324,-3.9718,0.0,0.0,0.0,0.0,0.0,0.0,0.0,0.0,0.0,0.0,0.0,-4.0702,-4.0702,-4.0702,-4.0702,-4.0702,-4.0702,-4.0702,-4.0702,-4.0702,-4.0702,-4.0702,-4.0702,-4.0702,-4.0702,-4.0702,-4.0702,0.0,0.0,0.0,-4.0702,-4.0702,-4.0702,-4.0702,-4.0702,-4.0702,-4.0702,-4.0702,-4.0702,-4.0631,0.0,0.0,0.0,0.0,0.0,0.0,0.0,0.0,0.0,0.0,0.0,0.0,0.0,0.0,0.0,0.0,0.0,0.0,0.0,0.0,0.0,0.0,0.0,0.0,0.0,-2.8397,-2.9218,-2.9624,-3.0144,-3.0447,-3.0447,-3.0447,-3.0568,-3.0747,-3.1131,-3.145,-3.1834,-3.217,-3.2501,-3.2826,-3.2826,0.0,0.0,0.0,0.0,0.0,-3.3984,-3.436,0.0,-3.5946,-3.6546,-3.7031,0.0,0.0,0.0,0.0,-3.8391,-3.8391,-3.8391,-3.7886,-3.7326,-3.7326,-3.7087,-3.7027,0.0,0.0,0.0,0.0,0.0,0.0,0.0,0.0,0.0,0.0,-3.9718,0.0,0.0,0.0,0.0,0.0,0.0,0.0,0.0,0.0,0.0,0.0,0.0,-4.0702,-4.0702,-4.0702,-4.0702,-4.0702,-4.0702,-4.0702,-4.0702,-4.0702,-4.0702,-4.0702,-4.0702,-4.0702,-4.0702,-4.0702,-4.0702,0.0,0.0,0.0,-4.0702,-4.0702,-4.0702,-4.0702,-4.0702,-4.0702,-4.0702,-4.0702,-4.0519,-4.0224,0.0,0.0,0.0,0.0,0.0,0.0,0.0,0.0,0.0,0.0,0.0,0.0,0.0,0.0,0.0,0.0,0.0,0.0,0.0,0.0,0.0,0.0,0.0,0.0,-2.7167,-2.8177,-2.8927,-2.9479,-3.0382,-3.0807,-3.0747,-3.0807,-3.1146,-3.1652,-3.2272,-3.2641,-3.2895,-3.2949,-3.3298,-3.3745,-3.3745,0.0,0.0,0.0,0.0,0.0,0.0,0.0,0.0,-3.5801,-3.6303,-3.6546,-3.7954,0.0,0.0,0.0,0.0,0.0,-3.8391,-3.8335,-3.8278,-3.8391,-3.7976,-3.7727,-3.8278,0.0,0.0,0.0,0.0,0.0,0.0,0.0,0.0,0.0,0.0,0.0,0.0,0.0,0.0,0.0,0.0,0.0,0.0,0.0,0.0,0.0,0.0,-4.0702,-4.0702,-4.0702,-4.0702,-4.0702,-4.0702,-4.0702,-4.0702,-4.0702,-4.0702,-4.0702,-4.0702,-4.0702,-4.0702,-4.0702,-4.0702,-4.0702,0.0,0.0,-4.0702,-4.0702,-4.0702,-4.0702,-4.0702,-4.0702,-4.0688,-4.0603,-4.0224,-3.9746,0.0,0.0,0.0,0.0,0.0,0.0,0.0,0.0,0.0,0.0,0.0,0.0,0.0,0.0,0.0,0.0,0.0,0.0,0.0,0.0,0.0,0.0,0.0,-2.6945,-2.6601,-2.8464,-2.9267,-2.8826,-3.1065,-3.1879,-3.1379,-3.1879,-3.216,-3.2272,-3.2841,-3.3093,-3.3198,-3.3662,-3.3933,-3.405,-3.405,0.0,0.0,0.0,0.0,0.0,0.0,0.0,0.0,-3.5801,-3.6303,-3.6546,-3.7954,0.0,0.0,0.0,0.0,0.0,-3.8391,-3.7976,-3.7711,-3.8278,-3.8335,-3.8278,0.0,0.0,0.0,0.0,0.0,0.0,0.0,0.0,0.0,0.0,0.0,0.0,0.0,0.0,0.0,0.0,0.0,0.0,0.0,0.0,0.0,0.0,0.0,-4.0702,-4.0702,-4.0702,-4.0702,-4.0702,-4.0702,-4.0702,-4.0702,-4.0702,-4.0702,-4.0702,-4.0702,-4.0702,-4.0702,-4.0702,-4.0702,-4.0702,0.0,-4.0702,-4.0702,-4.0702,-4.0702,-4.0702,-4.0702,-4.0702,-4.0631,-4.0112,-3.9859,-3.9634,0.0,0.0,0.0,0.0,0.0,0.0,0.0,0.0,0.0,0.0,0.0,0.0,0.0,0.0,0.0,0.0,0.0,0.0,0.0,0.0,0.0,0.0,-2.848,-2.7981,-2.7384,-2.9063,-2.9811,-2.9544,-3.1448,-3.2272,-3.1992,-3.2586,-3.2841,-3.2841,-3.3439,-3.3697,-3.3697,-3.3984,-3.4101,-3.4101,0.0,0.0,0.0,0.0,0.0,0.0,0.0,0.0,0.0,0.0,-3.6303,-3.6546,-3.7954,0.0,0.0,0.0,0.0,0.0,-3.8391,-3.8164,-3.7902,-3.7844,-3.7594,-3.7385,0.0,0.0,0.0,0.0,0.0,0.0,0.0,0.0,0.0,0.0,0.0,0.0,0.0,0.0,0.0,0.0,0.0,0.0,0.0,0.0,0.0,0.0,0.0,0.0,-4.0702,-4.0702,-4.0702,-4.0702,-4.0702,-4.0702,-4.0702,-4.0702,-4.0702,-4.0702,-4.0702,-4.0702,-4.0702,-4.0702,-4.0702,-4.0702,0.0,-4.0702,-4.0702,-4.0702,-4.0702,-4.0674,-4.0336,-4.0196,-4.0083,-3.9128,-3.8763,-3.8636,0.0,0.0,0.0,0.0,0.0,0.0,0.0,0.0,0.0,0.0,0.0,0.0,0.0,0.0,0.0,0.0,0.0,0.0,0.0,0.0,-2.9726,-2.9319,-2.9273,-2.8919,-2.8176,-2.9713,-3.0423,-3.032,-3.1973,-3.2819,-3.2819,-3.3214,-3.3407,-3.3423,-3.3866,-3.4101,-3.4101,-3.4101,-3.4101,-3.4101,0.0,0.0,0.0,0.0,0.0,0.0,0.0,0.0,0.0,0.0,0.0,0.0,0.0,0.0,0.0,-3.8391,-3.8391,-3.8391,-3.8391,-3.8278,-3.8091,-3.7727,0.0,0.0,0.0,0.0,0.0,0.0,0.0,0.0,0.0,0.0,0.0,0.0,0.0,0.0,0.0,0.0,0.0,0.0,0.0,0.0,0.0,0.0,0.0,0.0,0.0,0.0,-4.0702,-4.0702,-4.0702,-4.0702,-4.0702,-4.0702,-4.0702,-4.0702,-4.0702,-4.0702,-4.0702,-4.0702,-4.0702,-4.0702,-4.0702,-4.0702,-4.0702,-4.0702,-4.0688,-4.0547,-4.0491,-4.0421,-3.9802,-3.9479,-3.9226,-3.8176,-3.7662,-3.7466,0.0,0.0,0.0,0.0,0.0,0.0,0.0,0.0,0.0,0.0,0.0,0.0,0.0,0.0,0.0,0.0,0.0,0.0,0.0,0.0,-2.9858,-2.9858,-2.9858,-2.9364,-2.8304,-3.0141,-3.0845,-3.032,-3.2755,-3.4,-3.3984,-3.4,-3.405,-3.405,-3.4101,-3.4101,-3.4101,-3.4101,-3.4101,-3.4101,-3.4101,0.0,0.0,0.0,0.0,0.0,0.0,0.0,0.0,0.0,0.0,0.0,0.0,0.0,-3.8391,-3.8391,-3.8391,-3.8391,-3.8391,-3.7976,-3.7594,-3.8148,-3.8278,0.0,-3.6753,-3.7219,0.0,-3.8165,0.0,0.0,0.0,0.0,0.0,0.0,0.0,0.0,0.0,0.0,0.0,0.0,0.0,0.0,0.0,0.0,0.0,0.0,0.0,0.0,-4.0702,-4.0702,-4.0702,-4.0702,-4.0702,-4.0702,-4.0702,-4.0702,-4.0702,-4.0702,-4.0702,-4.0702,-4.0702,-4.0702,-4.0702,-4.0702,-4.0702,-4.0702,-4.0659,-4.0083,-3.9845,-3.9788,-3.917,-3.8566,-3.7952,-3.7479,-3.7024,-3.6446,0.0,0.0,0.0,0.0,0.0,0.0,0.0,0.0,0.0,0.0,0.0,0.0,0.0,0.0,0.0,0.0,0.0,0.0,0.0,0.0,-2.9918,-2.9918,-2.9918,-2.9919,-2.9925,-3.1086,-3.1582,-3.1372,-3.319,-3.4101,-3.4101,-3.4101,-3.4101,-3.4101,-3.4101,-3.4101,-3.4101,-3.4101,-3.4101,-3.4101,-3.4101,-3.4101,0.0,0.0,0.0,0.0,0.0,0.0,0.0,0.0,-3.7112,-3.7452,-3.8165,-3.8391,-3.8391,-3.8391,-3.8391,-3.8391,-3.8391,-3.7902,-3.7476,-3.7711,-3.812,0.0,0.0,-3.6846,-3.7501,-3.781,-3.7831,0.0,0.0,0.0,0.0,0.0,0.0,0.0,0.0,0.0,0.0,0.0,0.0,0.0,0.0,0.0,0.0,0.0,0.0,0.0,-4.0154,-4.0126,-3.9957,-3.9564,-3.9564,-3.9564,-3.9564,-3.9564,-3.9564,-3.9564,-4.0336,-4.0491,-4.0126,-4.0126,-3.9929,-3.9564,-3.9564,-3.9564,-3.9535,-3.9311,-3.9212,-3.9156,-3.8294,-3.7328,-3.6534,-3.6387,-3.617,-3.5965,0.0,0.0,0.0,0.0,0.0,0.0,0.0,0.0,0.0,0.0,0.0,0.0,0.0,0.0,0.0,0.0,0.0,0.0,0.0,0.0,-2.9918,-2.9918,-2.9918,-3.0198,-3.0865,-3.1639,-3.2109,-3.2352,-3.3518,-3.4101,-3.4101,-3.4101,-3.4101,-3.4101,-3.4101,-3.4101,-3.4101,-3.4101,-3.4101,-3.4101,-3.4101,-3.4101,0.0,0.0,0.0,0.0,0.0,0.0,0.0,0.0,-3.7469,-3.7744,-3.8246,-3.8391,-3.8391,-3.8391,-3.8391,-3.8391,-3.8391,-3.8091,-3.7727,-3.7727,0.0,0.0,-3.6597,-3.6953,-3.7521,-3.7312,-3.7271,0.0,0.0,0.0,0.0,0.0,0.0,0.0,0.0,0.0,0.0,0.0,0.0,0.0,0.0,0.0,0.0,0.0,0.0,0.0,0.0,-3.9493,-3.9311,-3.8875,-3.8861,-3.8861,-3.8861,-3.8861,-3.8861,-3.8875,-3.9718,-3.9901,-3.9493,-3.9493,-3.9269,-3.8861,-3.8861,-3.8861,-3.8847,-3.8636,-3.8373,-3.8,-3.734,-3.6509,-3.571,-3.5562,-3.548,-3.548,0.0,0.0,0.0,0.0,0.0,0.0,0.0,0.0,0.0,0.0,0.0,0.0,0.0,0.0,0.0,0.0,0.0,0.0,0.0,-2.9918,-2.9918,-2.9918,-2.9918,-3.0198,-3.0927,-3.1656,-3.2384,-3.3097,-3.3761,-3.4101,-3.4101,-3.4101,-3.4101,-3.4101,-3.4101,-3.4101,-3.4101,-3.4101,-3.4101,-3.4101,-3.4101,-3.4117,-3.4117,0.0,0.0,0.0,0.0,0.0,0.0,0.0,-3.7809,-3.8391,-3.8391,0.0,-3.8391,-3.8391,-3.8391,-3.8391,-3.8391,-3.8391,-3.8391,0.0,0.0,0.0,-3.6896,-3.7819,-3.8357,-3.6728,0.0,-3.6978,-3.6978,0.0,0.0,0.0,0.0,0.0,0.0,0.0,0.0,0.0,0.0,0.0,0.0,0.0,0.0,0.0,0.0,0.0,0.0,-3.8861,-3.8861,-3.8847,-3.8847,-3.8847,-3.8847,-3.8847,-3.8847,-3.8847,-3.8847,-3.8847,-3.8861,-3.8861,-3.8861,-3.8847,-3.8847,-3.8847,-3.8805,-3.8159,-3.7316,-3.6405,-3.6405,-3.6058,-3.5642,-3.5236,-3.5086,-3.499,0.0,0.0,0.0,0.0,0.0,0.0,0.0,0.0,0.0,0.0,0.0,0.0,0.0,0.0,0.0,0.0,0.0,0.0,0.0,0.0,-2.9918,-2.9918,-2.9918,-3.0441,-3.1656,-3.287,-3.3582,-3.3793,-3.4003,-3.4101,-3.4101,-3.4101,-3.4101,-3.4101,-3.4101,-3.4101,-3.4101,-3.4101,-3.4101,-3.4149,-3.4651,-3.4862,-3.491,0.0,0.0,0.0,0.0,0.0,0.0,0.0,0.0,0.0,-3.8391,0.0,-3.8391,-3.8391,-3.8391,-3.8391,-3.8391,-3.7695,0.0,-3.7886,0.0,0.0,0.0,-3.7207,0.0,0.0,0.0,-3.7505,-3.7056,0.0,0.0,0.0,0.0,0.0,0.0,0.0,0.0,0.0,0.0,0.0,0.0,0.0,0.0,0.0,0.0,0.0,0.0,-3.8187,-3.799,-3.7555,-3.754,-3.754,-3.754,-3.754,-3.754,-3.754,-3.754,-3.7779,-3.8187,-3.8187,-3.7962,-3.754,-3.754,-3.754,-3.754,-3.7042,-3.6449,-3.5884,-3.5575,-3.5236,-3.4812,-3.4647,-3.4564,-3.4564,0.0,0.0,0.0,0.0,0.0,0.0,0.0,0.0,0.0,0.0,0.0,0.0,0.0,0.0,0.0,0.0,0.0,0.0,0.0,0.0,0.0,0.0,-3.0134,-3.0959,-3.2417,-3.3534,-3.4101,-3.4101,-3.4101,-3.4101,-3.4101,0.0,-3.4101,-3.4101,0.0,-3.4262,-3.4538,-3.4538,-3.47,-3.5007,-3.5445,-3.5639,-3.5671,0.0,0.0,0.0,0.0,0.0,0.0,0.0,0.0,0.0,-3.8391,0.0,-3.8391,-3.8391,-3.8391,-3.8391,-3.8391,-3.7828,0.0,-3.7504,-3.694,-3.634,-3.6461,0.0,0.0,0.0,0.0,-3.7429,0.0,0.0,0.0,0.0,0.0,0.0,0.0,0.0,0.0,0.0,0.0,0.0,0.0,0.0,0.0,0.0,0.0,0.0,0.0,-3.754,-3.7372,-3.6993,-3.6978,-3.6978,-3.6978,-3.6978,-3.6978,-3.6978,-3.6978,-3.7175,-3.754,-3.754,-3.733,-3.6978,-3.6978,-3.6915,-3.6772,-3.647,-3.6058,-3.548,-3.5154,-3.4825,-3.4397,-3.4397,-3.4397,-3.4397,0.0,0.0,0.0,0.0,0.0,0.0,0.0,0.0,0.0,0.0,0.0,0.0,0.0,0.0,0.0,0.0,0.0,0.0,0.0,0.0,0.0,0.0,0.0,0.0,0.0,-3.3761,-3.4101,-3.4101,-3.4101,0.0,0.0,0.0,-3.4101,-3.4101,0.0,-3.4554,-3.5185,-3.525,-3.5671,-3.6319,-3.6384,-3.64,-3.6416,-3.6481,0.0,0.0,0.0,0.0,0.0,0.0,0.0,0.0,-3.8391,-3.8391,-3.8391,-3.8391,-3.8391,-3.8391,-3.8391,0.0,0.0,-3.7251,-3.6569,0.0,-3.5525,-3.6259,-3.6978,-3.6978,0.0,0.0,0.0,0.0,0.0,0.0,0.0,0.0,0.0,0.0,0.0,0.0,0.0,0.0,0.0,0.0,0.0,0.0,0.0,0.0,0.0,-3.6978,-3.6978,-3.6978,-3.6978,-3.6978,-3.6978,-3.6978,-3.6978,-3.6978,-3.6978,-3.6978,-3.6978,-3.6978,-3.6978,-3.6978,-3.6993,-3.6772,-3.6405,-3.6312,-3.5817,-3.5086,-3.5072,-3.4743,-3.4397,-3.4397,-3.4397,-3.4397,0.0,0.0,0.0,0.0,0.0,0.0,0.0,0.0,0.0,0.0,0.0,0.0,0.0,0.0,0.0,0.0,0.0,0.0,0.0,0.0,0.0,0.0,0.0,0.0,0.0,0.0,0.0,0.0,0.0,0.0,0.0,0.0,0.0,-3.4133,0.0,-3.504,-3.5218,-3.5817,-3.6157,-3.6351,-3.6886,-3.7096,-3.7161,-3.7728,-3.8035,0.0,0.0,0.0,0.0,0.0,0.0,0.0,-3.8391,-3.8391,-3.8391,-3.8391,-3.8391,-3.8391,-3.8391,-3.7637,0.0,0.0,-3.633,-3.5923,-3.5522,-3.6259,-3.6978,0.0,0.0,0.0,0.0,0.0,0.0,0.0,0.0,0.0,0.0,0.0,0.0,0.0,0.0,0.0,0.0,0.0,0.0,0.0,0.0,0.0,-3.6978,-3.6978,-3.6978,-3.6978,-3.6978,-3.6978,-3.6978,-3.6978,-3.6978,0.0,-3.6978,-3.6978,-3.6978,-3.6978,-3.6978,-3.6978,-3.6693,-3.647,-3.6325,-3.5656,-3.5249,-3.5072,-3.4647,-3.4481,-3.4397,-3.4397,-3.4397,-3.4397,0.0,0.0,0.0,0.0,0.0,0.0,0.0,0.0,0.0,0.0,0.0,0.0,0.0,0.0,0.0,0.0,0.0,0.0,0.0,0.0,0.0,0.0,0.0,0.0,0.0,0.0,0.0,0.0,0.0,0.0,0.0,0.0,0.0,-3.4635,0.0,-3.5558,-3.6238,-3.6627,-3.6983,-3.7339,-3.7695,-3.7841,-3.7873,-3.8262,-3.8391,-3.8391,-3.8391,0.0,0.0,0.0,0.0,0.0,0.0,0.0,-3.8391,-3.8391,-3.8391,-3.8391,0.0,0.0,0.0,-3.5993,0.0,0.0,-3.5303,0.0,0.0,0.0,0.0,0.0,0.0,0.0,0.0,0.0,0.0,0.0,0.0,0.0,0.0,0.0,0.0,0.0,0.0,0.0,0.0,0.0,0.0,-3.6978,-3.6978,-3.6978,-3.6978,-3.6978,-3.6978,-3.6978,-3.6978,-3.6978,-3.6915,-3.6693,-3.6693,-3.6615,-3.635,-3.6601,-3.6601,-3.635,-3.6138,-3.5978,-3.5737,-3.5331,-3.499,-3.4743,-3.4481,-3.4397,-3.4397,-3.4397,-3.4397,-3.4397,0.0,0.0,0.0,0.0,0.0,0.0,0.0,0.0,0.0,0.0,0.0,0.0,0.0,0.0,0.0,0.0,0.0,0.0,0.0,0.0,0.0,0.0,0.0,0.0,0.0,0.0,0.0,0.0,0.0,0.0,0.0,0.0,0.0,-3.5185,0.0,-3.6206,-3.7323,-3.7452,-3.7841,-3.8408,-3.8504,-3.8448,-3.8408,-3.8504,-3.8448,-3.8391,-3.8391,-3.8391,-3.8391,-3.8391,0.0,0.0,0.0,0.0,-3.8391,-3.8391,-3.8391,-3.8391,0.0,0.0,-3.689,-3.5385,0.0,0.0,0.0,0.0,0.0,0.0,0.0,0.0,0.0,0.0,0.0,0.0,0.0,0.0,0.0,0.0,0.0,0.0,0.0,0.0,0.0,0.0,0.0,0.0,0.0,-3.6978,-3.6978,-3.6978,-3.6978,-3.6978,-3.6978,-3.6978,-3.6978,-3.6915,-3.6679,-3.6218,-3.6138,-3.5804,-3.5291,-3.5723,-3.5884,-3.571,-3.5642,-3.5399,-3.5086,-3.499,-3.4743,-3.4397,-3.4397,-3.4397,-3.4397,-3.4397,-3.4397,-3.4397,0.0,0.0,0.0,0.0,0.0,0.0,0.0,0.0,0.0,0.0,0.0,0.0,0.0,0.0,0.0,0.0,0.0,0.0,-2.9918,0.0,0.0,-3.1963,-3.2708,-3.3404,0.0,0.0,0.0,0.0,0.0,0.0,0.0,0.0,0.0,-3.5234,0.0,-3.7128,-3.7355,-3.7987,-3.8311,-3.8448,-3.8766,-3.8711,-3.8448,-3.8821,-3.8711,-3.8391,-3.8391,-3.8391,-3.8391,-3.8391,-3.8391,0.0,0.0,0.0,-3.8391,-3.8391,-3.8391,-3.8391,0.0,0.0,0.0,0.0,0.0,0.0,0.0,0.0,0.0,0.0,0.0,0.0,0.0,0.0,0.0,0.0,0.0,0.0,0.0,0.0,0.0,0.0,0.0,0.0,0.0,0.0,0.0,0.0,-3.6978,-3.6978,-3.6978,-3.6978,-3.6978,-3.6978,-3.6978,-3.6978,-3.6978,-3.6615,-3.6111,-3.548,-3.5087,-3.4345,-3.342,-3.4024,-3.4799,-3.571,-3.5318,-3.5154,-3.5086,-3.466,-3.4481,-3.4397,-3.4397,-3.4397,-3.4397,-3.4397,-3.4397,-3.4397,0.0,0.0,0.0,0.0,0.0,0.0,0.0,0.0,0.0,0.0,0.0,0.0,0.0,0.0,0.0,-2.9918,-2.9918,-3.0036,-3.0441,-3.1137,-3.185,-3.2579,-3.3291,-3.3793,-3.4101,0.0,0.0,0.0,0.0,0.0,0.0,-3.5461,-3.5817,0.0,0.0,0.0,0.0,-3.8262,-3.8391,-3.8391,-3.86,-3.856,-3.8391,-3.8616,-3.8544,-3.8391,-3.8391,-3.8391,-3.8391,-3.8391,-3.8391,-3.8391,-3.8391,0.0,0.0,0.0,-3.8391,0.0,-3.796,0.0,0.0,0.0,0.0,0.0,0.0,0.0,0.0,0.0,0.0,0.0,0.0,0.0,0.0,0.0,0.0,0.0,0.0,0.0,0.0,0.0,0.0,0.0,0.0,0.0,0.0,0.0,-3.6978,-3.6978,-3.6978,-3.6978,-3.6978,-3.6978,-3.6978,-3.6978,-3.6978,-3.6163,-3.5169,-3.3985,-3.3564,-3.3066,-3.2649,-3.2907,-3.3335,-3.3759,-3.3602,-3.3518,-3.3518,-3.3348,-3.3262,-3.3262,-3.3713,-3.381,-3.3894,-3.423,-3.4397,-3.4397,0.0,0.0,0.0,0.0,0.0,0.0,0.0,0.0,0.0,0.0,0.0,0.0,0.0,0.0,0.0,0.0,-3.008,-3.0441,-3.1154,-3.1882,-3.253,-3.3064,-3.3744,-3.4101,-3.4101,0.0,0.0,0.0,0.0,0.0,-3.5202,-3.5946,-3.64,0.0,-3.729,-3.789,0.0,0.0,0.0,-3.8408,-3.8504,-3.8504,-3.8391,-3.8504,-3.8504,-3.8391,-3.8391,-3.8391,-3.8391,-3.8391,-3.8391,-3.8391,-3.8391,-3.8391,0.0,0.0,0.0,0.0,0.0,0.0,0.0,0.0,0.0,0.0,0.0,0.0,0.0,0.0,0.0,0.0,0.0,0.0,0.0,0.0,0.0,0.0,0.0,0.0,0.0,0.0,0.0,0.0,0.0,0.0,0.0,0.0,-3.6978,-3.6978,-3.6978,-3.6978,-3.6978,-3.6978,-3.6978,-3.69,-3.6652,-3.5386,-3.4056,-3.2562,-3.2389,-3.2127,-3.1789,-3.1965,-3.1965,-3.1789,-3.2127,-3.2302,-3.2302,-3.2302,-3.2302,-3.2302,-3.2945,-3.3215,-3.3484,-3.3979,-3.423,-3.4397,0.0,0.0,0.0,0.0,0.0,0.0,0.0,0.0,0.0,0.0,0.0,0.0,0.0,-2.9918,-2.9918,-2.9918,-3.0474,-3.1186,-3.1898,-3.2627,-3.3048,-3.308,-3.3744,0.0,-3.4101,-3.4101,0.0,0.0,0.0,0.0,-3.5202,-3.5946,-3.6659,-3.729,-3.8019,-3.8359,-3.8391,0.0,0.0,0.0,0.0,0.0,0.0,0.0,0.0,0.0,0.0,-3.8391,-3.8391,-3.8391,-3.8391,-3.8391,-3.8391,-3.8391,-3.8391,0.0,0.0,0.0,0.0,0.0,0.0,0.0,0.0,0.0,0.0,0.0,0.0,0.0,0.0,0.0,0.0,0.0,0.0,0.0,0.0,0.0,0.0,0.0,0.0,0.0,0.0,0.0,0.0,0.0,0.0,0.0,-3.6978,-3.6978,-3.6978,-3.6978,-3.6978,-3.6978,-3.6978,-3.6573,-3.5749,-3.4236,-3.2722,-3.1395,-3.1965,-3.1613,-3.0295,-3.1026,-3.0937,-3.0385,-3.1701,-3.2302,-3.2302,-3.2302,-3.2302,-3.2302,-3.2302,-3.276,-3.3398,-3.3484,-3.381,-3.4397,0.0,0.0,0.0,0.0,0.0,0.0,0.0,0.0,0.0,0.0,0.0,0.0,0.0,-2.9918,-3.0053,-3.0506,-3.1202,-3.1931,-3.2659,-3.2951,-3.3275,-3.3712,-3.3971,-3.4101,-3.4101,-3.4101,0.0,0.0,0.0,-3.4716,-3.5914,-3.6189,-3.6918,-3.8019,-3.8278,-3.8391,-3.8391,-3.8391,0.0,0.0,0.0,0.0,0.0,0.0,0.0,0.0,0.0,0.0,0.0,-3.8148,-3.8205,-3.8391,-3.8391,-3.8391,-3.8391,-3.8391,0.0,0.0,0.0,0.0,0.0,0.0,0.0,0.0,0.0,0.0,0.0,0.0,0.0,0.0,0.0,0.0,0.0,0.0,0.0,0.0,0.0,0.0,0.0,0.0,0.0,0.0,0.0,0.0,0.0,0.0,0.0,-3.6978,-3.6978,-3.6978,-3.6978,-3.6978,-3.6772,-3.5951,-3.4607,-3.3577,-3.2476,-3.1306,-3.1104,-3.0644,-3.0216,-3.0487,-3.0487,-3.0216,-3.0734,-3.0913,-3.0913,-3.0913,-3.0913,-3.1003,-3.1448,-3.1813,-3.2089,-3.2513,-3.3116,-3.3738,0.0,0.0,0.0,0.0,0.0,0.0,0.0,0.0,0.0,0.0,0.0,0.0,0.0,0.0,-3.0603,-3.1575,-3.2093,-3.2659,-3.3372,-3.342,-3.3631,-3.4084,-3.4101,-3.4101,-3.4101,-3.3874,-3.3874,0.0,0.0,0.0,0.0,-3.6546,-3.7274,-3.8391,-3.8391,-3.8391,0.0,0.0,0.0,-3.8766,0.0,0.0,-3.8766,0.0,0.0,0.0,0.0,0.0,0.0,0.0,0.0,0.0,-3.8205,-3.8205,0.0,0.0,0.0,0.0,-3.761,0.0,0.0,0.0,0.0,0.0,0.0,0.0,0.0,0.0,0.0,0.0,0.0,0.0,0.0,0.0,0.0,0.0,0.0,0.0,0.0,0.0,0.0,0.0,0.0,0.0,0.0,0.0,0.0,0.0,-3.6978,-3.6978,-3.6978,-3.6978,-3.6177,-3.5101,-3.3843,-3.3079,-3.2052,-3.0937,-3.0668,-3.0397,-3.0216,-3.0216,-3.0216,-3.0216,-3.0216,-3.0216,-3.0216,-3.0216,-3.0216,-3.0216,-3.0758,-3.1128,-3.1395,-3.2052,-3.2575,-3.3116,0.0,0.0,0.0,0.0,0.0,0.0,0.0,0.0,0.0,0.0,0.0,0.0,0.0,0.0,0.0,-3.2967,-3.3113,-3.3404,-3.4052,-3.4101,-3.4101,-3.4101,-3.4101,-3.4101,-3.4101,-3.3453,-3.3453,0.0,0.0,0.0,0.0,0.0,-3.7695,-3.8391,-3.8391,-3.8391,-3.8391,0.0,-3.8408,-3.8391,0.0,-3.8391,-3.8391,0.0,0.0,0.0,-3.8017,-3.7886,0.0,-3.7476,0.0,0.0,0.0,0.0,0.0,0.0,0.0,0.0,0.0,0.0,0.0,0.0,0.0,0.0,0.0,0.0,0.0,0.0,0.0,0.0,0.0,0.0,0.0,0.0,0.0,0.0,0.0,0.0,0.0,0.0,0.0,0.0,0.0,0.0,0.0,0.0,-3.6978,-3.6978,-3.6978,-3.6978,-3.6978,-3.6978,-3.5224,-3.4139,-3.3623,-3.2562,-3.1448,-3.0306,-3.0937,-3.0937,-3.0216,-3.0216,-3.0216,-3.0216,-3.0216,-3.0216,-3.0216,-3.0216,-3.0216,-3.0216,-3.0216,-3.0668,-3.1383,-3.1977,-3.2215,-3.2476,0.0,0.0,0.0,0.0,0.0,0.0,0.0,0.0,0.0,0.0,0.0,0.0,0.0,0.0,-3.2659,-3.3048,-3.3534,-3.389,-3.4084,-3.4101,-3.4101,-3.4101,-3.4101,-3.4101,-3.4101,-3.3922,-3.4165,0.0,0.0,0.0,0.0,0.0,0.0,0.0,-3.8391,-3.8391,-3.8391,-3.8391,0.0,-3.8821,-3.8504,-3.8415,0.0,0.0,0.0,0.0,0.0,-3.7373,-3.7476,0.0,-3.727,-3.7417,0.0,0.0,0.0,0.0,0.0,0.0,-3.6999,0.0,0.0,0.0,0.0,0.0,0.0,0.0,0.0,0.0,0.0,0.0,0.0,0.0,0.0,0.0,0.0,0.0,0.0,0.0,0.0,0.0,0.0,0.0,0.0,0.0,0.0,0.0,-3.6978,-3.6978,-3.6978,-3.6978,-3.6836,-3.6549,-3.5777,-3.5114,-3.4716,-3.3543,-3.2599,-3.1701,-3.146,-3.0937,-3.0216,-3.0216,-3.0216,-3.0216,-3.0216,-3.0216,-3.0216,-3.0216,-3.0216,-3.0216,-3.0216,-3.0306,-3.0487,-3.0746,-3.1436,-3.2389,0.0,0.0,0.0,0.0,0.0,0.0,0.0,0.0,0.0,0.0,0.0,0.0,0.0,0.0,-3.3518,-3.3518,-3.3874,-3.4101,-3.4101,-3.4101,-3.4101,-3.4101,-3.4101,-3.4101,-3.4101,-3.4101,-3.4457,0.0,0.0,0.0,0.0,0.0,0.0,0.0,0.0,0.0,0.0,0.0,0.0,0.0,-3.8319,0.0,0.0,-3.7812,-3.7594,0.0,0.0,0.0,-3.721,-3.6862,-3.6984,0.0,0.0,0.0,0.0,0.0,0.0,0.0,0.0,0.0,0.0,0.0,0.0,0.0,-3.5752,-3.5479,0.0,0.0,0.0,0.0,0.0,0.0,0.0,0.0,0.0,0.0,0.0,0.0,0.0,0.0,0.0,0.0,0.0,-3.6009,-3.622,-3.622,-3.622,-3.6332,-3.6585,-3.6838,-3.685,-3.6405,-3.571,-3.5127,-3.4647,-3.3641,-3.2698,-3.1889,-3.1472,-3.0937,-3.0216,-3.0216,-3.0216,-3.0216,-3.0216,-3.0216,-3.0216,-3.0216,-3.0216,-3.0216,-3.0216,-3.0216,-3.0216,-3.0578,-3.1015,-3.1524,0.0,0.0,0.0,0.0,0.0,0.0,0.0,0.0,0.0,0.0,0.0,0.0,0.0,0.0,0.0,0.0,-3.4101,-3.4101,-3.4101,-3.4101,-3.4101,-3.4101,-3.4101,-3.4133,-3.4214,-3.4214,-3.4619,0.0,0.0,0.0,0.0,0.0,0.0,0.0,0.0,0.0,0.0,0.0,0.0,-3.8278,-3.8001,-3.7886,0.0,0.0,-3.7298,-3.7238,-3.7044,-3.6938,-3.6877,-3.6616,-3.6693,0.0,0.0,0.0,0.0,0.0,-3.6492,0.0,0.0,0.0,0.0,0.0,0.0,0.0,-3.5894,-3.5816,-3.5479,0.0,0.0,0.0,0.0,0.0,0.0,0.0,0.0,0.0,0.0,0.0,0.0,0.0,0.0,0.0,-3.5127,-3.5198,-3.5226,-3.5226,-3.5226,-3.5465,-3.5939,-3.6487,-3.664,-3.6277,-3.5494,-3.4775,-3.4113,-3.3262,-3.2351,-3.1383,-3.1306,-3.0937,-3.0216,-3.0216,-3.0216,-3.0216,-3.0216,-3.0216,-3.0216,-3.0216,-3.0216,-3.0216,-3.0216,-3.0216,-3.0306,-3.0937,-3.0847,-3.0578,0.0,0.0,0.0,0.0,0.0,0.0,0.0,0.0,0.0,0.0,0.0,0.0,0.0,0.0,0.0,0.0,-3.4101,-3.4101,-3.4101,-3.4101,-3.4101,-3.4101,-3.4101,-3.4376,-3.4959,-3.4975,-3.5606,0.0,0.0,0.0,0.0,0.0,0.0,0.0,0.0,0.0,0.0,0.0,0.0,-3.7594,-3.7828,0.0,-3.7476,-3.7225,-3.6923,-3.6662,-3.6616,-3.6616,-3.6616,-3.6492,-3.6554,-3.6554,0.0,0.0,0.0,0.0,0.0,0.0,0.0,0.0,0.0,0.0,0.0,0.0,-3.6367,-3.6352,-3.6148,0.0,0.0,0.0,0.0,0.0,0.0,0.0,0.0,0.0,0.0,0.0,0.0,0.0,0.0,0.0,-3.4421,-3.4857,-3.5226,-3.5226,-3.5226,-3.5282,-3.5395,-3.5522,-3.5517,-3.5442,-3.5369,-3.507,-3.4673,-3.4066,-3.3177,-3.214,-3.156,-3.0937,-3.0216,-3.0216,-3.0216,-3.0216,-3.0216,-3.0216,-3.0216,-3.0216,-3.0216,-3.0216,-3.0216,-3.0216,-3.0216,-3.0397,-3.0668,-3.1205,0.0,0.0,0.0,0.0,0.0,0.0,0.0,0.0,0.0,0.0,0.0,0.0,0.0,0.0,0.0,0.0,0.0,0.0,0.0,-3.4635,-3.4813,-3.5185,-3.5202,-3.5364,-3.5736,-3.6076,-3.6594,0.0,0.0,0.0,0.0,0.0,0.0,0.0,0.0,0.0,0.0,0.0,-3.7711,-3.7417,-3.7433,0.0,-3.715,-3.6862,-3.6616,-3.6492,-3.6492,-3.6492,-3.6492,-3.6492,-3.6492,0.0,0.0,-3.6492,-3.6492,0.0,-3.6492,-3.6492,0.0,0.0,0.0,-3.6492,0.0,0.0,0.0,-3.6492,-3.6352,0.0,0.0,0.0,0.0,0.0,0.0,0.0,0.0,0.0,0.0,0.0,0.0,0.0,0.0,0.0,-3.3775,-3.4056,-3.4239,-3.4239,-3.452,-3.4688,-3.4688,-3.4983,-3.5078,-3.4854,-3.492,-3.4766,-3.4394,-3.3526,-3.2676,-3.1757,-3.1194,-3.0549,-2.986,-3.0101,-3.0216,-3.0216,-3.0216,-3.0216,-3.0216,-3.0216,-3.0216,-3.0216,-3.0216,-3.0216,-3.0216,-3.0216,-3.0668,-3.1383,0.0,0.0,0.0,0.0,0.0,0.0,0.0,0.0,0.0,0.0,0.0,0.0,0.0,0.0,0.0,0.0,0.0,0.0,0.0,0.0,-3.5473,-3.627,-3.6249,-3.6298,-3.6497,-3.6922,-3.7222,-3.7406,0.0,0.0,0.0,0.0,0.0,0.0,0.0,0.0,0.0,0.0,0.0,-3.7178,0.0,-3.6938,-3.6938,-3.6631,-3.6492,-3.6492,-3.6492,-3.6492,-3.6492,-3.6492,-3.6492,-3.6492,-3.6492,-3.6492,0.0,0.0,0.0,0.0,0.0,0.0,0.0,0.0,0.0,-3.6492,0.0,0.0,0.0,0.0,0.0,0.0,0.0,0.0,0.0,0.0,0.0,0.0,0.0,0.0,0.0,0.0,0.0,0.0,0.0,-3.3326,-3.3326,-3.3326,-3.3775,-3.407,-3.407,-3.4534,-3.4654,-3.4284,-3.4394,-3.4224,-3.3859,-3.2895,-3.2063,-3.143,-3.0797,-3.017,-2.9531,-2.9923,-3.0019,-2.9929,-2.9929,-2.9929,-2.9929,-2.9929,-2.9929,-2.994,-3.0135,-3.0216,-3.0216,-3.0397,-3.0758,-3.1395,-2.9726,-3.0622,0.0,0.0,0.0,0.0,0.0,0.0,0.0,0.0,0.0,0.0,0.0,0.0,0.0,0.0,0.0,0.0,-3.4771,0.0,0.0,-3.627,-3.6001,-3.6275,-3.7193,-3.6717,-3.6937,-3.7815,0.0,0.0,0.0,0.0,0.0,0.0,-3.7417,0.0,0.0,0.0,-3.6923,0.0,-3.6554,-3.6754,0.0,-3.6631,-3.6492,-3.6492,-3.6492,-3.6492,-3.6492,0.0,-3.6492,-3.6492,0.0,-3.6492,-3.6492,-3.6492,0.0,0.0,0.0,0.0,0.0,0.0,-3.6492,0.0,0.0,0.0,0.0,-3.6429,0.0,-3.6245,-3.5569,0.0,0.0,0.0,0.0,0.0,0.0,0.0,0.0,0.0,0.0,0.0,0.0,-3.3326,-3.3326,-3.3326,-3.3382,-3.3424,-3.3424,-3.3494,-3.3466,-3.3452,-3.3984,-3.4046,-3.3606,-3.3085,-3.2541,-3.2063,-3.1083,-3.0314,-2.9674,-2.9721,-2.9402,-2.8873,-2.8873,-2.8873,-2.8873,-2.8873,-2.8873,-2.8964,-2.986,-3.0216,-3.0306,-3.0937,-3.1217,-3.1484,-3.066,-3.145,0.0,0.0,0.0,0.0,0.0,0.0,0.0,0.0,0.0,0.0,0.0,0.0,0.0,0.0,0.0,-3.4794,0.0,0.0,0.0,0.0,-3.6794,-3.6921,-3.7339,-3.7107,-3.7191,-3.7594,-3.7476,0.0,0.0,0.0,0.0,0.0,-3.6952,0.0,-3.6739,0.0,-3.6816,0.0,0.0,0.0,0.0,-3.6554,-3.6492,-3.6492,-3.6492,-3.6492,-3.6492,0.0,-3.6492,0.0,0.0,0.0,0.0,0.0,0.0,0.0,0.0,0.0,0.0,0.0,0.0,0.0,-3.6492,0.0,-3.6492,0.0,0.0,0.0,0.0,0.0,0.0,0.0,-3.3697,0.0,0.0,0.0,0.0,0.0,0.0,0.0,0.0,0.0,0.0,0.0,-3.3326,-3.3326,-3.3326,-3.3326,-3.3326,-3.3326,-3.3578,-3.3634,-3.342,-3.2428,-3.1843,-3.1614,-3.0295,-2.9498,-2.9189,-2.9171,-2.8958,-2.87,-2.87,-2.87,-2.87,-2.87,-2.87,-2.8746,-2.9171,-2.9332,-2.9332,-2.9695,-3.0044,-3.0477,-3.1722,0.0,0.0,0.0,0.0,0.0,0.0,0.0,0.0,0.0,0.0,0.0,-3.5432,-3.5524,0.0,0.0,-3.5194,-3.5451,0.0,0.0,-3.6589,0.0,0.0,0.0,0.0,-3.7238,-3.7194,-3.7314,-3.7194,0.0,0.0,0.0,0.0,0.0,0.0,-3.6492,-3.6492,0.0,0.0,-3.6492,-3.6754,-3.6693,-3.6492,-3.6492,-3.6492,-3.6492,-3.6492,-3.6492,-3.6492,-3.6492,-3.6492,0.0,-3.6492,0.0,0.0,0.0,0.0,0.0,-3.6492,0.0,0.0,0.0,0.0,0.0,0.0,0.0,0.0,0.0,0.0,0.0,0.0,0.0,-3.406,0.0,0.0,-3.3273,0.0,0.0,0.0,0.0,0.0,0.0,0.0,0.0,0.0,0.0,0.0,-3.3073,-3.3073,-3.3227,-3.3326,-3.3326,-3.3326,-3.3241,-3.3171,-3.2028,-3.1415,-3.1281,-2.9858,-2.9108,-2.8958,-2.8703,-2.8457,-2.8299,-2.8299,-2.8299,-2.8299,-2.8299,-2.8299,-2.8299,-2.8299,-2.8299,-2.8333,-2.8854,-2.93,-2.9821,-3.3029,-3.3151,0.0,0.0,0.0,0.0,0.0,0.0,0.0,0.0,0.0,0.0,0.0,0.0,0.0,0.0,0.0,-3.4929,-3.5876,0.0,-3.6338,0.0,0.0,-3.7165,0.0,0.0,-3.6677,-3.6999,0.0,0.0,0.0,0.0,0.0,0.0,0.0,-3.6492,-3.6492,-3.6492,-3.6492,-3.6492,-3.6492,-3.6492,-3.6492,0.0,-3.6492,-3.6492,-3.6492,0.0,0.0,-3.6492,-3.6492,0.0,0.0,0.0,0.0,0.0,0.0,0.0,0.0,0.0,0.0,-3.6492,0.0,0.0,0.0,0.0,-3.6307,0.0,0.0,0.0,0.0,-3.346,0.0,0.0,0.0,0.0,0.0,0.0,0.0,0.0,0.0,0.0,0.0,0.0,0.0,0.0,0.0,0.0,-3.244,-3.3002,-3.3326,-3.3326,-3.3326,-3.3086,-3.2704,-3.2273,-3.1909,-3.1556,-3.0508,-2.9664,-2.9028,-2.8443,-2.7824,-2.7277,-2.7277,-2.7277,-2.7277,-2.7277,-2.7277,-2.7277,-2.7277,-2.7277,-2.7474,-2.9117,-2.9821,-2.9893,0.0,0.0,0.0,0.0,0.0,0.0,0.0,-3.3871,0.0,0.0,0.0,0.0,0.0,-3.6135,-3.6238,0.0,0.0,-3.5968,-3.6306,-3.6322,0.0,0.0,0.0,-3.6739,0.0,0.0,0.0,0.0,0.0,0.0,0.0,0.0,0.0,0.0,0.0,-3.6492,0.0,0.0,0.0,0.0,0.0,-3.6492,-3.6492,0.0,0.0,-3.6492,-3.6492,-3.6492,0.0,-3.6492,-3.6492,-3.6492,-3.6492,-3.6492,-3.6492,-3.6492,-3.6492,0.0,0.0,0.0,-3.6492,-3.6492,0.0,0.0,0.0,0.0,0.0,0.0,0.0,0.0,0.0,0.0,0.0,0.0,0.0,0.0,0.0,0.0,0.0,0.0,0.0,0.0,0.0,0.0,0.0,0.0,-3.1933,0.0,-3.1794,-3.2384,-3.2569,-3.2333,-3.2722,-3.2704,-3.2345,-3.1909,-3.1703,-3.1556,-3.0495,-2.9871,-2.9639,-2.9094,-2.87,-2.8462,-2.8462,-2.8235,-2.7857,-2.7857,-2.7626,-2.7231,-2.7231,-2.7231,-2.7265,-2.7858,-2.8386,-2.8865,-3.2398,0.0,0.0,0.0,0.0,0.0,0.0,0.0,0.0,0.0,-3.5907,0.0,-3.6416,0.0,-3.6816,0.0,-3.6616,-3.6492,-3.6492,-3.6492,0.0,-3.6492,-3.6492,0.0,0.0,0.0,0.0,0.0,0.0,-3.6492,0.0,0.0,0.0,0.0,0.0,0.0,-3.6492,0.0,-3.6492,0.0,0.0,-3.6492,0.0,0.0,-3.6492,-3.6492,0.0,-3.6492,-3.6492,-3.6492,-3.6492,-3.6492,-3.6492,-3.6492,-3.6492,-3.6492,-3.6492,-3.6492,-3.6492,-3.6492,0.0,-3.6492,-3.6492,0.0,-3.6492,0.0,0.0,0.0,0.0,0.0,0.0,0.0,0.0,0.0,0.0,0.0,0.0,-3.2398,0.0,0.0,0.0,0.0,0.0,0.0,0.0,-3.1565,-3.1268,-3.1148,0.0,0.0,-3.1926,-3.1474,-3.2068,-3.2102,-3.16,-3.1596,-3.1556,-3.1421,-3.0419,-3.0037,-2.996,-2.9406,-2.9003,-2.8779,-2.8779,-2.8554,-2.8179,-2.8179,-2.8087,-2.7846,-2.7846,-2.7846,-2.7846,-2.7383,-2.7464,-2.7938,0.0,0.0,0.0,0.0,-3.2998,0.0,0.0,0.0,-3.4768,0.0,-3.5537,-3.5784,-3.6476,-3.6538,-3.6553,-3.6599,-3.6599,-3.6569,-3.6538,-3.6538,0.0,0.0,-3.6492,-3.6492,-3.6492,0.0,0.0,0.0,0.0,0.0,0.0,0.0,0.0,0.0,-3.6492,0.0,-3.6492,-3.6492,-3.6492,-3.6492,-3.6492,-3.6492,-3.6492,-3.6492,-3.6492,-3.6492,-3.6492,-3.6492,-3.6492,-3.6492,-3.6492,-3.6492,-3.6492,-3.6492,-3.6492,-3.6492,-3.6492,-3.6492,-3.6492,-3.6492,-3.6492,-3.6492,0.0,0.0,0.0,0.0,-3.6076,0.0,0.0,0.0,0.0,0.0,0.0,0.0,0.0,0.0,0.0,0.0,0.0,0.0,0.0,0.0,0.0,0.0,-3.0792,-3.0372,-3.0389,-3.0409,0.0,0.0,-3.123,-3.0786,-3.1378,-3.136,-3.069,-3.1236,-3.1307,-3.0986,-3.0355,-3.0037,-3.0037,-2.9484,-2.8858,-2.8339,-2.8339,-2.8327,-2.8259,-2.8259,-2.8633,-2.9081,-2.9081,-2.9081,-2.8924,-2.7765,-2.7219,-2.7313,-3.2398,-3.2798,-3.3321,0.0,-3.3644,-3.3752,0.0,0.0,0.0,0.0,-3.623,-3.6492,-3.7169,-3.723,-3.7446,-3.7938,-3.8,0.0,0.0,0.0,0.0,-3.6507,-3.6492,-3.6492,-3.6492,-3.6492,0.0,-3.6492,0.0,0.0,-3.6492,0.0,0.0,0.0,0.0,0.0,-3.6492,-3.6492,-3.6492,-3.6492,-3.6492,-3.6492,0.0,0.0,-3.6492,-3.6492,-3.6492,-3.6492,-3.6492,-3.6492,-3.6492,-3.6492,-3.6492,-3.6492,-3.6492,-3.6492,-3.6492,-3.6492,-3.6492,-3.6492,-3.6492,-3.6492,-3.6492,-3.6492,0.0,0.0,0.0,0.0,0.0,0.0,0.0,0.0,0.0,0.0,0.0,0.0,0.0,0.0,0.0,-3.2398,0.0,0.0,0.0,-3.148,-3.097,-3.0851,-2.9978,-2.9462,-2.9462,0.0,0.0,-2.9403,-2.9968,-3.0294,-3.027,-3.0414,-3.0629,-3.0986,-3.0823,-3.0748,-3.0748,-3.0583,-3.0432,-3.0279,-3.0279,-2.9973,-2.9574,-2.9574,-2.9328,-2.9081,-2.9081,-2.8858,-2.8486,-2.8554,-2.8007,-2.7383,-3.2782,0.0,0.0,-3.4799,0.0,0.0,-3.5368,0.0,0.0,-3.6892,-3.7184,0.0,-3.7908,-3.7938,-3.8092,-3.8477,-3.8508,0.0,-3.7969,0.0,0.0,-3.6953,-3.6661,-3.6492,-3.6492,-3.6492,0.0,-3.6492,0.0,0.0,-3.6492,0.0,0.0,0.0,0.0,-3.6492,0.0,-3.6492,-3.6492,-3.6492,-3.6492,0.0,0.0,-3.6492,-3.6492,-3.6492,-3.6492,-3.6492,-3.6492,-3.6492,-3.6492,-3.6492,-3.6492,-3.6492,-3.6492,-3.6492,-3.6492,-3.6492,-3.6492,-3.6492,-3.6492,-3.6492,-3.6414,-3.6352,-3.6352,-3.5998,-3.5385,0.0,0.0,0.0,0.0,0.0,0.0,0.0,0.0,0.0,0.0,0.0,0.0,0.0,-3.2247,0.0,0.0,-3.1724,-3.1204,-3.0896,-3.0237,-2.9699,0.0,0.0,0.0,-2.8545,-2.9091,-2.9363,-2.9366,-2.9876,-3.0294,-3.062,-3.0869,-3.0986,-3.0986,-3.0986,-3.0823,-3.0583,-3.0583,-3.0355,-3.0037,-3.0037,-2.996,-2.9871,-2.9639,-2.8949,-2.8247,-2.8554,-2.8087,-2.7301,0.0,0.0,0.0,0.0,0.0,0.0,0.0,-3.6738,0.0,-3.7507,0.0,-3.8539,-3.8631,-3.8646,-3.8677,-3.8769,0.0,-3.8739,-3.8646,-3.8092,-3.7692,-3.7507,-3.6938,-3.6584,-3.6492,-3.6492,-3.6492,0.0,0.0,0.0,0.0,0.0,0.0,0.0,0.0,0.0,0.0,-3.6492,-3.6492,-3.6492,-3.6492,-3.6492,-3.6492,-3.6492,-3.6429,-3.6429,-3.6429,-3.6492,-3.6492,-3.6492,-3.6492,-3.6492,-3.6492,-3.6492,-3.6492,-3.6492,-3.6429,-3.6429,-3.6429,-3.6429,-3.6429,-3.6429,-3.6289,-3.6148,-3.6148,-3.6085,-3.5624,-3.438,-3.4046,-3.3546,0.0,0.0,0.0,0.0,0.0,0.0,0.0,0.0,0.0,0.0,0.0,0.0,0.0,0.0,-3.1437,-3.0896,-3.0777,-3.0358,0.0,0.0,0.0,-2.8079,-2.8478,-2.8635,-2.8386,0.0,-2.998,-3.015,-3.0634,-3.0908,-3.0986,-3.0986,-3.0672,-3.0114,-3.0114,-3.0114,-3.0114,-3.0114,-3.0432,-3.0823,-3.0037,-2.9184,-2.8327,-2.8247,-2.7857,-2.7545,0.0,0.0,0.0,0.0,0.0,-3.7153,-3.7153,-3.7353,-3.7507,-3.7507,-3.8092,-3.8723,-3.9277,-3.9339,-3.957,-4.0124,-4.017,0.0,0.0,0.0,0.0,-3.7554,-3.7384,-3.7061,-3.6507,-3.6492,-3.6492,0.0,0.0,0.0,0.0,0.0,0.0,0.0,0.0,0.0,-3.6492,-3.6492,0.0,-3.6492,-3.6492,-3.6414,-3.6274,-3.6274,-3.6148,-3.61,-3.61,-3.6304,-3.6492,-3.6274,-3.6352,-3.6492,-3.6274,-3.6274,-3.6274,-3.6274,-3.6148,-3.61,-3.61,-3.61,-3.61,-3.61,-3.6037,-3.6037,-3.6037,-3.6037,-3.5746,-3.4755,-3.4181,-3.3578,-3.2704,0.0,0.0,0.0,0.0,0.0,0.0,0.0,0.0,0.0,0.0,-3.1996,0.0,0.0,0.0,0.0,0.0,0.0,0.0,0.0,0.0,0.0,-2.7695,0.0,0.0,0.0,-2.9183,-3.0137,-3.0241,-3.0529,-3.0986,-3.0986,-3.0911,-3.0823,-3.0823,-3.0823,-3.0823,-3.0823,-3.0596,-3.0037,-2.8949,-2.8712,-2.8858,-2.8407,-2.8474,-2.8621,0.0,0.0,0.0,0.0,0.0,0.0,0.0,-3.8177,0.0,-3.8539,-3.9139,-3.9677,-4.0001,-4.0047,-4.017,-4.0493,-4.0524,-4.0385,-4.0062,-3.9708,-3.9231,-3.8585,-3.7877,0.0,-3.703,-3.6676,-3.6492,-3.6492,0.0,0.0,0.0,0.0,0.0,0.0,0.0,-3.6492,0.0,0.0,0.0,-3.6492,-3.6414,-3.6274,-3.6196,-3.6148,-3.6037,-3.5973,-3.5973,-3.61,-3.6241,-3.6148,-3.6163,-3.6226,-3.6163,-3.61,-3.61,-3.61,-3.6022,-3.5973,-3.5973,-3.5973,-3.5973,-3.5973,-3.5894,-3.5831,-3.5831,-3.5782,-3.5537,-3.4718,-3.4072,-3.3382,-3.2432,-3.2038,0.0,0.0,0.0,0.0,0.0,0.0,0.0,0.0,0.0,0.0,0.0,0.0,0.0,0.0,0.0,0.0,0.0,0.0,0.0,0.0,0.0,0.0,0.0,0.0,0.0,-2.9235,-2.9849,-3.0281,-3.0555,-3.0856,-3.0986,-3.0986,-3.0986,-3.0986,-3.0986,-3.0986,-3.0596,-2.996,-2.9341,-2.9094,-2.9081,-2.8779,-2.8633,-2.8554,0.0,-3.6565,0.0,0.0,-3.7918,0.0,-3.8376,-3.894,-3.939,-3.9471,-4.0108,-4.0455,-4.047,-4.047,-4.047,-4.0401,-4.0401,-4.0401,-4.0401,-3.9895,-3.9542,-3.9388,-3.8238,-3.7533,-3.7379,-3.672,-3.6429,0.0,0.0,0.0,0.0,0.0,0.0,0.0,0.0,0.0,0.0,0.0,-3.6429,-3.6367,-3.6211,-3.6148,-3.607,-3.5958,-3.591,-3.5925,-3.5925,-3.5925,-3.5925,-3.5925,-3.591,-3.5973,-3.5973,-3.5973,-3.5973,-3.5973,-3.591,-3.5925,-3.5925,-3.5925,-3.5925,-3.5925,-3.5782,-3.5638,-3.5638,-3.5604,-3.5355,-3.4801,-3.4053,-3.3156,-3.1968,-3.1727,0.0,0.0,0.0,0.0,0.0,0.0,0.0,0.0,0.0,0.0,-3.1727,0.0,0.0,0.0,0.0,0.0,0.0,0.0,0.0,0.0,0.0,-2.7523,-2.7523,0.0,-2.8255,-2.8386,-2.9314,-2.9889,-3.015,-3.0594,-3.0869,-3.0986,-3.0986,-3.0986,-3.0986,-3.0823,-3.0508,-2.996,-2.9883,-2.9561,-2.9081,-2.9238,-2.9015,-2.8566,0.0,0.0,0.0,0.0,0.0,0.0,-3.8918,-3.9464,-3.9817,-3.9533,-4.0108,-4.0455,-4.0331,-4.0347,-4.0277,-4.0066,-4.0066,-4.0066,-4.0066,-4.0021,-3.9701,-3.9093,-3.8363,-3.7694,-3.7036,-3.6402,-3.61,0.0,0.0,-3.6029,0.0,0.0,0.0,0.0,0.0,0.0,0.0,-3.6211,-3.6148,-3.6037,-3.6037,-3.5894,-3.5752,-3.5752,-3.5653,-3.5569,-3.5569,-3.5569,-3.5569,-3.5569,-3.5733,-3.5973,-3.5767,-3.5752,-3.5752,-3.5752,-3.5653,-3.5569,-3.5569,-3.5569,-3.5569,-3.5569,-3.5504,-3.5504,-3.5504,-3.5504,-3.5489,-3.5429,-3.4382,-3.3095,-3.1779,-3.1539,-3.1539,0.0,0.0,0.0,0.0,0.0,0.0,0.0,0.0,0.0,0.0,-3.1539,0.0,0.0,0.0,0.0,0.0,0.0,0.0,-2.7523,0.0,-2.7523,-2.7523,-2.7589,-2.7863,-2.8386,-2.849,-2.9104,-3.0137,-3.0189,-3.049,-3.0986,-3.0986,-3.0986,-3.0986,-3.0343,-3.0037,-2.996,-2.9406,-2.916,-2.916,-2.9716,-2.9883,-2.9806,0.0,0.0,0.0,0.0,0.0,0.0,0.0,-3.9672,-3.9819,-3.9841,-4.0039,-4.0207,-4.0137,-4.0137,-4.0066,-4.0011,-4.0011,-4.0011,-4.0011,-4.0011,-3.9889,-3.9616,-3.8963,-3.8296,-3.7628,-3.6945,-3.6447,0.0,0.0,0.0,0.0,0.0,0.0,0.0,0.0,-3.6163,-3.6085,-3.6085,-3.6037,-3.5973,-3.5894,-3.5752,-3.5688,-3.5589,-3.5554,-3.5504,-3.5504,-3.5504,-3.5504,-3.5504,-3.5569,-3.5683,-3.5604,-3.5604,-3.5604,-3.5604,-3.5554,-3.5504,-3.5504,-3.5504,-3.5504,-3.5504,-3.5504,-3.5504,-3.5504,-3.5504,-3.5504,-3.5504,-3.4427,-3.3095,-3.1779,-3.1482,-3.1482,0.0,0.0,0.0,0.0,0.0,0.0,0.0,0.0,0.0,0.0,0.0,0.0,0.0,0.0,0.0,0.0,0.0,0.0,-2.8105,0.0,-2.7523,-2.7523,-2.7523,-2.7641,-2.7863,-2.8216,-2.8621,-2.9104,-2.981,-3.0451,-3.0986,-3.0986,-3.0986,-3.0986,-3.0748,-3.0596,-3.0596,-3.0355,-3.0266,-3.0266,-3.0508,-3.0355,-3.0037,-3.7911,0.0,-3.8762,0.0,-3.9309,-3.9625,-3.9625,-3.9625,-3.9625,-3.9783,-3.9783,-3.9854,-3.9925,-3.9925,-3.9854,-3.9854,-3.9783,-3.9783,-3.9783,-3.9783,-3.9783,-3.9783,-3.9204,0.0,-3.7805,-3.7222,-3.6542,-3.5894,-3.6022,0.0,0.0,0.0,0.0,0.0,-3.5973,-3.5973,-3.5894,-3.5894,-3.591,-3.5861,-3.5718,-3.5638,-3.5653,-3.5554,-3.5504,-3.5504,-3.5504,-3.5504,-3.5504,-3.5504,-3.5504,-3.5504,-3.5504,-3.5504,-3.5504,-3.5504,-3.5504,-3.5504,-3.5504,-3.5504,-3.5504,-3.5504,-3.5504,-3.5504,-3.5504,-3.5504,-3.5385,-3.4996,-3.4158,-3.3095,-3.1779,-3.1482,-3.1482,-3.1482,0.0,0.0,0.0,0.0,0.0,0.0,-3.1482,-3.1482,-3.1482,-3.1482,0.0,0.0,0.0,0.0,0.0,0.0,0.0,0.0,0.0,0.0,0.0,-2.7523,-2.7523,-2.7536,-2.7941,-2.8216,-2.8425,-2.9601,-3.0346,-3.0751,-3.0908,-3.0986,-3.0986,-3.0986,-3.0986,-3.0986,-3.0986,-3.0911,-3.0748,-3.0911,-3.0432,-2.9716,-3.8327,-3.8547,-3.8843,-3.929,-3.9409,-3.9424,-3.9424,-3.9424,-3.9409,-3.9424,-3.9424,-3.9481,-3.9696,-3.9681,-3.961,-3.9409,-3.9424,-3.9424,-3.9424,-3.9424,-3.9424,0.0,0.0,-3.8078,-3.7419,-3.6806,-3.6265,-3.5688,0.0,0.0,-3.4987,0.0,-3.5351,-3.5973,-3.5973,-3.5894,-3.5688,-3.5688,-3.5653,-3.5504,-3.5504,-3.5504,-3.5504,-3.5504,-3.5504,-3.5504,-3.5504,-3.5504,-3.5504,-3.5504,-3.5504,-3.5504,-3.5504,-3.5504,-3.5504,-3.5504,-3.5504,-3.5504,-3.5504,-3.5504,-3.5504,-3.5504,-3.5504,-3.5504,-3.5504,-3.5504,-3.513,-3.3799,-3.3499,-3.3095,-3.1779,-3.1482,-3.1482,-3.1482,0.0,0.0,0.0,0.0,0.0,0.0,-3.1482,-3.1482,-3.1482,-3.1482,0.0,0.0,0.0,0.0,0.0,0.0,0.0,-2.7523,-2.7523,0.0,-2.7523,-2.7523,-2.7523,-2.7523,-2.7536,-2.7837,-2.8425,-2.9601,-3.0137,-3.0176,-3.0738,-3.0986,-3.0986,-3.0986,-3.0986,-3.0986,-3.0986,-3.0596,-3.0114,-3.0748,-3.019,-2.9172,-3.896,-3.9167,-3.9242,-3.9379,-3.9424,-3.9424,-3.9424,-3.9424,-3.9424,-3.9424,-3.9424,-3.9409,-3.9481,-3.9481,-3.9481,0.0,-3.9424,-3.9424,0.0,-3.9424,-3.9424,-3.9424,-3.9215,-3.8781,-3.8093,-3.7449,-3.6791,-3.6214,0.0,0.0,0.0,-3.5513,-3.5507,-3.5683,-3.5683,-3.5619,-3.5539,-3.5539,-3.5554,-3.5504,-3.5504,-3.5504,-3.5504,-3.5504,-3.5504,-3.5504,-3.5504,-3.5504,-3.5504,-3.5504,-3.5504,-3.5504,-3.5504,-3.5504,-3.5504,-3.5504,-3.5504,-3.5504,-3.5504,-3.5504,-3.5504,-3.5504,-3.5504,-3.5504,-3.5504,-3.5504,-3.513,-3.3769,-3.3499,-3.3095,-3.1779,-3.1482,-3.1482,-3.1482,-3.1482,0.0,0.0,0.0,0.0,0.0,-3.1482,-3.1482,0.0,-3.1482,0.0,0.0,0.0,0.0,0.0,0.0,0.0,0.0,-2.7723,0.0,-2.7523,-2.7523,-2.7523,-2.7523,-2.7523,-2.7837,-2.8386,-2.8765,-2.9379,-3.015,-3.032,-3.062,-3.0986,-3.0986,-3.0986,-3.0947,-3.0555,-3.0251,-3.0051,-2.9894,-2.9288,-2.8673,-3.9334,-3.9424,-3.9424,-3.9424,-3.9424,-3.9424,-3.9424,-3.9424,-3.9424,-3.9424,-3.9424,-3.9424,-3.9424,-3.9424,0.0,-3.9424,-3.9424,-3.9424,-3.9424,-3.9424,-3.9424,-3.9424,-3.9424,-3.9095,-3.8407,-3.7749,0.0,-3.6492,-3.5919,-3.5653,-3.5653,-3.5653,-3.5604,-3.5504,-3.5504,-3.5504,-3.5504,-3.5504,-3.5504,-3.5504,-3.5504,-3.5504,-3.5504,-3.5504,-3.5504,-3.5504,-3.5504,-3.5504,-3.5504,-3.5504,-3.5504,-3.5504,-3.5504,-3.5504,-3.5504,-3.5504,-3.5504,-3.5504,-3.5504,-3.5504,-3.5504,-3.5504,-3.5504,-3.5504,-3.5504,-3.5504,-3.513,-3.3769,-3.3499,-3.3095,-3.1779,-3.1482,-3.1482,-3.1482,-3.1482,-3.1482,-3.1482,0.0,0.0,0.0,0.0,0.0,0.0,-3.1482,-3.1482,0.0,0.0,0.0,0.0,0.0,0.0,-2.8546,-2.7842,0.0,-2.7523,-2.7523,-2.7523,-2.7523,-2.7523,-2.7719,-2.8072,-2.8281,-2.8778,-2.951,-2.9941,-3.0333,-3.066,-3.066,-3.066,-3.0607,-3.0045,-2.9665,-2.9396,-2.9106,-2.8448,-2.7693,-3.9424,-3.9424,-3.9424,0.0,-3.9424,0.0,-3.9424,-3.9424,-3.9424,-3.9424,-3.9424,-3.9424,-3.9424,-3.9424,-3.9424,-3.9424,0.0,0.0,0.0,-3.9424,-3.9424,-3.9424,-3.9424,-3.9125,-3.8467,-3.7778,-3.709,-3.6417,-3.5804,-3.5504,-3.5504,-3.5504,-3.5504,-3.5504,-3.5504,-3.5504,-3.5504,-3.5504,-3.5504,-3.5504,-3.5504,-3.5504,-3.5504,-3.5504,-3.5504,-3.5504,-3.5504,-3.5504,-3.5504,-3.5504,-3.5504,-3.5504,-3.5504,-3.5504,-3.5504,-3.5504,-3.5504,-3.5504,-3.5504,-3.5504,-3.5504,-3.5504,-3.5504,-3.5504,-3.5504,-3.5504,-3.513,-3.3769,-3.3499,-3.3095,-3.1779,-3.1482,-3.1482,-3.1482,-3.1482,-3.1482,-3.1482,0.0,0.0,0.0,0.0,0.0,0.0,-3.1482,-3.1482,0.0,0.0,0.0,0.0,0.0,-2.9205,-2.8546,-2.7842,-2.7523,-2.7523,-2.7523,-2.7523,-2.7523,-2.7523,-2.7523,-2.7549,-2.8072,-2.836,-2.8503,-2.9601,-3.0098,-3.0137,-3.0137,-3.0111,-3.0019,-2.9444,-2.8841,-2.8384,-2.8274,-2.7508,-2.6542,0.0,0.0,-3.9424,-3.9424,-3.9424,-3.9424,-3.9424,-3.9424,-3.9424,-3.9424,-3.9424,-3.9424,-3.9424,-3.9424,-3.9424,-3.9424,-3.9424,-3.9424,-3.9424,-3.9424,-3.9424,-3.9424,-3.9424,-3.9349,-3.9185,-3.8018,-3.6866,-3.5744,-3.5579,-3.5504,-3.5504,-3.5504,-3.5504,-3.5504,-3.5504,-3.5504,-3.5504,-3.5504,-3.5504,-3.5504,-3.5504,-3.5504,-3.5504,-3.5504,-3.5504,-3.5504,-3.5504,-3.5504,-3.5504,-3.5504,-3.5504,-3.5504,-3.5504,-3.5504,-3.5504,-3.5504,-3.5504,-3.5504,-3.5504,-3.5504,-3.5504,-3.5504,-3.5504,-3.5504,-3.5504,-3.5504,-3.513,-3.3769,-3.3499,-3.3095,-3.1779,-3.1482,-3.1482,-3.1482,-3.1482,-3.1482,-3.1482,-3.1482,0.0,0.0,-3.1482,-3.1482,-3.1482,-3.1482,-3.1482,0.0,0.0,0.0,0.0,-3.0133,-2.9205,-2.8546,-2.7842,-2.7523,-2.7523,-2.7523,-2.7523,-2.7523,-2.7523,-2.7523,-2.7523,-2.7667,-2.8216,-2.9078,-2.9366,-2.9732,-3.0137,-3.0137,-2.9876,-2.9418,-2.8396,-2.8164,-2.8239,-2.6954,-2.6313,-2.6029,-3.9424,-3.9424,-3.9424,-3.9424,-3.9424,-3.9424,-3.9424,-3.9424,-3.9424,-3.9424,-3.9424,-3.9424,-3.9424,-3.9424,-3.9424,-3.9424,-3.9424,-3.9424,-3.9424,-3.9424,-3.9424,-3.9424,-3.9424,-3.9424,-3.9424,-3.8093,-3.6791,-3.5504,-3.5504,-3.5504,-3.5504,-3.5504,-3.5504,-3.5504,-3.5504,-3.5504,-3.5504,-3.5504,-3.5504,-3.5504,-3.5504,-3.5504,-3.5504,-3.5504,-3.5504,-3.5504,-3.5504,-3.5504,-3.5504,-3.5504,-3.5504,-3.5504,-3.5504,-3.5504,-3.5504,-3.5504,-3.5504,-3.5504,-3.5504,-3.5504,-3.5504,-3.5504,-3.5504,-3.5504,-3.5504,-3.5504,-3.513,-3.3769,-3.3499,-3.3095,-3.1779,-3.1482,-3.1482,-3.1482,-3.1482,-3.1482,-3.1482,-3.1482,0.0,-3.1482,-3.1482,-3.1482,-3.1482,-3.1482,-3.1482,-3.1482,-3.1482,0.0,-3.1482,-3.0208,-2.9317,-2.8967,-2.8026,-2.7523,-2.7523,-2.7523,-2.7523,-2.7523,-2.7523,-2.7523,-2.7536,-2.7798,-2.8268,-2.8895,-2.9431,-2.9849,-3.0111,-2.9849,-2.9562,-2.9196,-2.7976,-2.7571,-2.7464,-2.632,-2.5721,-2.5358,-3.9424,-3.9424,-3.9424,-3.9424,-3.9424,-3.9424,-3.9424,-3.9424,-3.9424,-3.9424,-3.9424,-3.9424,-3.9424,-3.9424,-3.9424,-3.9424,-3.9424,-3.9424,-3.9424,-3.9424,-3.9424,-3.9424,-3.9424,-3.9424,-3.9424,-3.8093,-3.6791,-3.5504,-3.5504,-3.5504,-3.5504,-3.5504,-3.5504,-3.5504,-3.5504,-3.5504,-3.5504,-3.5504,-3.5504,-3.5504,-3.5504,-3.5504,-3.5504,-3.5504,-3.5504,-3.5504,-3.5504,-3.5504,-3.5504,-3.5504,-3.5504,-3.5504,-3.5504,-3.5504,-3.5504,-3.5504,-3.5504,-3.5504,-3.5504,-3.5504,-3.5504,-3.5504,-3.5504,-3.5504,-3.5504,-3.5504,-3.513,-3.3769,-3.3499,-3.3095,-3.1779,-3.1482,-3.1482,-3.1482,-3.1482,-3.1482,-3.1482,0.0,-3.1482,-3.1482,-3.1482,-3.1482,-3.1482,-3.1482,-3.1482,-3.1482,-3.1482,-3.1482,-3.1482,-3.0208,-2.9504,-2.9504,-2.8208,-2.7523,-2.7523,-2.7523,-2.7523,-2.7523,-2.7615,-2.7667,-2.768,-2.8255,-2.8569,-2.8699,-2.9706,-3.0137,-3.0025,-2.9614,-2.9301,-2.9039,-2.7978,-2.7198,-2.6645,-2.6,-2.5429,-2.4791,-3.9424,-3.9424,-3.9424,-3.9424,-3.9424,-3.9424,-3.9424,-3.9424,-3.9424,-3.9424,-3.9424,-3.9424,-3.9424,-3.9424,-3.9424,-3.9424,-3.9424,-3.9424,-3.9424,-3.9424,-3.9424,-3.9424,-3.9424,-3.9424,-3.9424,-3.8093,-3.6791,-3.5504,-3.5504,-3.5504,-3.5504,-3.5504,-3.5504,-3.5504,-3.5504,-3.5504,-3.5504,-3.5504,-3.5504,-3.5504,-3.5504,-3.5504,-3.5504,-3.5504,-3.5504,-3.5504,-3.5504,-3.5504,-3.5504,-3.5504,-3.5504,-3.5504,-3.5504,-3.5504,-3.5504,-3.5504,-3.5504,-3.5504,-3.5504,-3.5504,-3.5504,-3.5504,-3.5504,-3.5504,-3.5504,-3.5504,-3.513,-3.3769,-3.3499,-3.3095,-3.1779,-3.1482,-3.1482,-3.1482,-3.1482,-3.1482,-3.1482,0.0,-3.1482,-3.1482,-3.1482,-3.1482,-3.1482,-3.1482,-3.1482,-3.1482,-3.1482,-3.1482,-3.1482,-3.0208,-2.9504,-2.9504,-2.8208,-2.7523,-2.7523,-2.7523,-2.7523,-2.7536,-2.802,-2.8242,-2.8268,-2.8869,-2.9405,-2.9876,-3.0059,-3.0137,-3.0124,-3.0045,-2.9418,-2.8503,-2.7824,-2.7201,-2.6577,-2.5511,-2.4862,-2.4492,-3.8738,-3.9119,-3.9424,-3.9424,-3.9424,-3.9424,-3.9424,-3.9424,-3.9424,-3.9424,-3.9424,-3.9424,-3.9424,-3.9424,-3.9424,-3.9424,-3.9424,-3.9424,-3.9424,-3.9424,-3.9424,-3.9424,-3.9424,-3.908,-3.8347,-3.7734,-3.6791,-3.5504,-3.5504,-3.5504,-3.5504,-3.5504,-3.5504,-3.5504,-3.5504,-3.5504,-3.5504,-3.5504,-3.5504,-3.5504,-3.5504,-3.5504,-3.5504,-3.5504,-3.5504,-3.5504,-3.5504,-3.5504,-3.5504,-3.5504,-3.5504,-3.5504,-3.5504,-3.5504,-3.5504,-3.5504,-3.5504,-3.5504,-3.5504,-3.5504,-3.5504,-3.5504,-3.5504,-3.5504,-3.5504,-3.5504,-3.522,-3.4233,-3.3739,-3.32,-3.2243,-3.1764,-3.1482,-3.1482,-3.1482,0.0,0.0,-3.1482,-3.1482,-3.1482,-3.1482,-3.1482,-3.1482,-3.1482,-3.1482,-3.1482,-3.1161,-3.097,-3.097,-2.9704,-2.8967,-2.8967,-2.8026,-2.7523,-2.7523,-2.7523,-2.768,-2.7994,-2.8255,-2.8556,-2.8882,-2.947,-2.9889,-3.015,-3.0451,-3.0594,-3.0568,-3.0255,-2.9823,-2.919,-2.8062,-2.7595,-2.7396,-2.5902,-2.5146,-2.4767,-3.8427,-3.8973,-3.9424,-3.9424,-3.9424,-3.9424,-3.9424,-3.9424,-3.9424,-3.9424,-3.9424,-3.9424,-3.9424,-3.9424,-3.9424,-3.9424,-3.9424,-3.9424,-3.9424,-3.9424,-3.9424,-3.9424,-3.9275,-3.8616,-3.7434,-3.727,-3.6641,-3.5504,-3.5504,-3.5504,-3.5504,-3.5504,-3.5504,-3.5504,-3.5504,-3.5504,-3.5504,-3.5504,-3.5504,-3.5504,-3.5504,-3.5504,-3.5504,-3.5504,-3.5504,-3.5504,-3.5504,-3.5504,-3.5504,-3.5504,-3.5504,-3.5504,-3.5504,-3.5504,-3.5504,-3.5504,-3.5504,-3.5504,-3.5504,-3.5504,-3.5504,-3.5504,-3.5504,-3.5504,-3.5504,-3.5504,-3.531,-3.4622,-3.4068,-3.3469,-3.2662,-3.2093,-3.1661,-3.1497,0.0,0.0,0.0,-3.1482,-3.1482,-3.1482,-3.1482,-3.1482,-3.1482,-3.1351,-3.1278,-3.1278,-3.0644,-3.0269,-3.0269,-2.9156,-2.8417,-2.8287,-2.7776,-2.7523,-2.7523,-2.7667,-2.7941,-2.8386,-2.866,-2.9026,-2.9497,-3.0072,-3.0333,-3.0359,-3.079,-3.0986,-3.0947,-3.0516,-3.0255,-2.996,-2.8563,-2.8087,-2.8032,-2.6198,-2.5276,-2.4826,-3.9192,-3.9337,-3.9424,-3.9424,-3.9424,-3.9424,-3.9424,-3.9424,-3.9424,-3.9424,-3.9424,-3.9424,-3.9424,-3.9424,-3.9424,-3.9424,-3.9424,-3.9424,-3.9424,-3.9424,-3.9424,-3.9424,-3.8811,-3.8138,-3.7419,-3.6851,-3.6207,-3.5504,-3.5504,-3.5504,-3.5504,-3.5504,-3.5504,-3.5504,-3.5504,-3.5504,-3.5504,-3.5504,-3.5504,-3.5504,-3.5504,-3.5504,-3.5504,-3.5504,-3.5504,-3.5504,-3.5504,-3.5504,-3.5504,-3.5504,-3.5504,-3.5504,-3.5504,-3.5504,-3.5504,-3.5504,-3.5504,-3.5504,-3.5504,-3.5504,-3.5504,-3.5504,-3.5504,-3.5504,-3.5504,-3.5504,-3.531,-3.4622,-3.4442,-3.4023,-3.2751,-3.2482,-3.2243,-3.1571,0.0,0.0,-3.1482,-3.1482,-3.1482,-3.1482,-3.1482,-3.1482,-3.1482,-3.097,-3.0584,-3.0584,-2.995,-2.9566,-2.9566,-2.8903,-2.8222,-2.759,-2.7523,-2.7523,-2.7523,-2.8046,-2.8347,-2.8386,-2.9483,-3.0032,-3.0098,-3.066,-3.0921,-3.0934,-3.096,-3.0986,-3.0986,-3.0934,-3.0607,-3.0072,-2.9386,-2.8588,-2.7475,-2.5893,-2.4755,-2.3818,-3.7753,-3.8708,-3.9424,-3.9424,-3.9424,-3.9424,-3.9424,-3.9424,-3.9424,-3.9424,-3.9424,-3.9424,-3.9424,-3.9424,-3.9424,-3.9424,-3.9424,-3.9424,-3.9424,-3.9424,-3.9424,-3.9424,-3.8751,-3.8078,-3.7419,-3.6806,-3.6163,-3.5504,-3.5504,-3.5504,-3.5504,-3.5504,-3.5504,-3.5504,-3.5504,-3.5504,-3.5504,-3.5504,-3.5504,-3.5504,-3.5504,-3.5504,-3.5504,-3.5504,-3.5504,-3.5504,-3.5504,-3.5504,-3.5504,-3.5504,-3.5504,-3.5504,-3.5504,-3.5504,-3.5504,-3.5504,-3.5504,-3.5504,-3.5504,-3.5504,-3.5504,-3.5504,-3.5504,-3.5504,-3.5504,-3.5504,-3.5429,-3.5175,-3.4771,-3.4322,-3.3829,-3.3066,-3.2437,-3.2183,0.0,-3.1482,-3.1482,-3.1482,-3.1351,-3.0896,-3.0896,-3.0718,-3.0329,-3.0011,-2.9889,-2.9889,-2.9268,-2.8903,-2.8903,-2.8637,-2.8317,-2.8059,-2.8412,-2.8438,-2.8059,-2.8647,-2.9118,-2.947,-2.9928,-3.032,-3.0673,-3.0895,-3.0986,-3.0986,-3.0986,-3.0986,-3.0986,-3.0986,-3.0559,-2.9839,-2.898,-2.7961,-2.6884,-2.5468,-2.4325,-2.3379,-3.688,-3.7829,-3.8708,-3.8958,-3.8797,-3.8708,-3.8958,-3.9031,-3.9031,-3.9031,-3.9265,-3.9424,-3.9424,-3.9424,-3.9424,-3.9424,-3.9424,-3.9424,-3.9424,-3.9215,-3.9095,-3.9095,-3.8437,-3.7778,-3.7135,-3.6507,-3.5953,-3.5504,-3.5504,-3.5504,-3.5504,-3.5504,-3.5504,-3.5504,-3.5504,-3.5504,-3.5504,-3.5504,-3.5504,-3.5504,-3.5504,-3.5504,-3.5504,-3.5504,-3.5504,-3.5504,-3.5504,-3.5504,-3.5504,-3.5504,-3.5504,-3.5504,-3.5504,-3.5504,-3.5504,-3.5504,-3.5504,-3.5504,-3.5504,-3.5504,-3.5504,-3.5504,-3.5504,-3.5504,-3.5504,-3.5504,-3.5504,-3.5504,-3.513,-3.4726,-3.4517,-3.3739,-3.3066,-3.2856,-3.2273,-3.1839,-3.1839,-3.1601,-3.1351,-3.0896,-3.0644,-3.0389,-3.0133,-2.958,-2.9268,-2.9393,-2.8661,-2.825,-2.8424,-2.8607,-2.866,-2.866,-2.9235,-2.9353,-2.8935,-2.934,-2.9745,-3.0137,-3.032,-3.0607,-3.0986,-3.0986,-3.0986,-3.0986,-3.0986,-3.0986,-3.0973,-3.0716,-3.0316,-2.9654,-2.8255,-2.7294,-2.6527,-2.4811,-2.3818,-2.3147,-3.6724,-3.688,-3.7204,-3.8037,-3.7462,-3.7204,-3.8113,-3.8202,-3.8202,-3.8202,-3.8885,-3.9424,-3.9424,-3.9424,-3.9424,-3.9424,-3.9424,-3.9424,-3.9409,-3.8766,-3.8392,-3.8377,-3.7749,-3.7105,-3.6492,-3.5833,-3.5504,-3.5504,-3.5504,-3.5504,-3.5504,-3.5504,-3.5504,-3.5504,-3.5504,-3.5504,-3.5504,-3.5504,-3.5504,-3.5504,-3.5504,-3.5504,-3.5504,-3.5504,-3.5504,-3.5504,-3.5504,-3.5504,-3.5504,-3.5504,-3.5504,-3.5504,-3.5504,-3.5504,-3.5504,-3.5504,-3.5504,-3.5504,-3.5504,-3.5504,-3.5504,-3.5504,-3.5504,-3.5504,-3.5504,-3.5504,-3.5504,-3.5504,-3.5504,-3.5295,-3.4607,-3.4472,-3.4262,-3.3604,-3.2961,-3.2527,-3.2527,-3.1958,-3.1497,-3.1497,-3.0911,-3.0792,-3.1424,-2.9685,-2.8753,-2.9261,-2.817,-2.7798,-2.836,-2.8961,-2.9287,-2.9287,-2.9836,-3.0064,-3.0064,-3.015,-3.015,-3.015,-3.0712,-3.0986,-3.0986,-3.0986,-3.0986,-3.0986,-3.0986,-3.0986,-3.0934,-3.0125,-2.9805,-2.9602,-2.7526,-2.666,-2.6371,-2.4061,-2.322,-2.3084,-3.6042,-3.7,-3.7872,-3.8113,-3.8486,-3.8708,-3.9031,-3.9046,-3.9046,-3.9046,-3.9265,-3.9424,-3.9424,-3.9424,-3.9424,-3.9424,-3.9424,-3.9215,-3.8736,-3.8497,-3.7988,-3.709,-3.6866,-3.6671,-3.6492,-3.5833,-3.5504,-3.5504,-3.5504,-3.5504,-3.5504,-3.5504,-3.5504,-3.5504,-3.5504,-3.5504,-3.5504,-3.5504,-3.5504,-3.5504,-3.5504,-3.5504,-3.5504,-3.5504,-3.5504,-3.5504,-3.5504,-3.5504,-3.5504,-3.5504,-3.5504,-3.5504,-3.5504,-3.5504,-3.5504,-3.5504,-3.5504,-3.5504,-3.5504,-3.5504,-3.5504,-3.5504,-3.5504,-3.5504,-3.5504,-3.5504,-3.5504,-3.5504,-3.5504,-3.5444,-3.5235,-3.4801,-3.4412,-3.4218,-3.3634,-3.32,-3.32,-3.3036,-3.2522,-3.1545,-3.1226,-3.0839,-2.9996,-2.9291,-2.896,-2.9291,-2.896,-2.883,-2.9,-2.9405,-2.9718,-2.9876,-3.0128,-3.0351,-3.0514,-3.0664,-3.0725,-3.0725,-3.0895,-3.0986,-3.0986,-3.0849,-3.0773,-3.0773,-3.0609,-3.0377,-2.9915,-2.9674,-2.8743,-2.7321,-2.6698,-2.5479,-2.3982,-2.332,-2.2681,-2.2155,-3.5032,-3.599,-3.678,-3.7169,-3.7309,-3.7539,-3.7857,-3.7933,-3.7933,-3.7933,-3.8486,-3.8958,-3.8958,-3.9192,-3.9424,-3.9424,-3.917,-3.8721,-3.8048,-3.7764,-3.7285,-3.6522,-3.6237,-3.6088,-3.6088,-3.5714,-3.5504,-3.5504,-3.5504,-3.5504,-3.5504,-3.5504,-3.5504,-3.5504,-3.5504,-3.5504,-3.5504,-3.5504,-3.5504,-3.5504,-3.5504,-3.5504,-3.5504,-3.5504,-3.5504,-3.5504,-3.5504,-3.5504,-3.5504,-3.5504,-3.5504,-3.5504,-3.5504,-3.5504,-3.5504,-3.5504,-3.5504,-3.5504,-3.5504,-3.5504,-3.5504,-3.5504,-3.5504,-3.5504,-3.5504,-3.5504,-3.5504,-3.5504,-3.5504,-3.5504,-3.5504,-3.516,-3.4891,-3.4891,-3.4322,-3.3888,-3.3888,-3.3401,-3.2786,-3.1925,-3.1335,-3.0664,-2.9979,-2.9473,-2.9145,-2.9216,-2.9269,-2.9398,-2.9398,-2.977,-3.008,-3.0242,-3.034,-3.0444,-3.0609,-3.0685,-3.0748,-3.0748,-3.0836,-3.0836,-3.0748,-3.0698,-3.0698,-3.0596,-3.0213,-2.9843,-2.9423,-2.8583,-2.7543,-2.6335,-2.5394,-2.4186,-2.2927,-2.2628,-2.2252,-2.1807,-3.4076,-3.423,-3.4716,-3.5507,-3.5032,-3.4868,-3.5655,-3.5736,-3.5816,-3.5736,-3.7169,-3.8202,-3.8202,-3.8885,-3.9394,-3.9334,-3.8691,-3.8018,-3.736,-3.6806,-3.6462,-3.6402,-3.5833,-3.5504,-3.5439,-3.5504,-3.5504,-3.5504,-3.5504,-3.5504,-3.5504,-3.5504,-3.5504,-3.5504,-3.5504,-3.5504,-3.5504,-3.5504,-3.5504,-3.5504,-3.5504,-3.5504,-3.5504,-3.5504,-3.5504,-3.5504,-3.5504,-3.5504,-3.5504,-3.5504,-3.5504,-3.5504,-3.5504,-3.5504,-3.5504,-3.5504,-3.5504,-3.5504,-3.5504,-3.5504,-3.5504,-3.5504,-3.5504,-3.5504,-3.5504,-3.5504,-3.5504,-3.5504,-3.5504,-3.5504,-3.5504,-3.5504,-3.5504,-3.5504,-3.4981,-3.4562,-3.4483,-3.3392,-3.25,-3.2357,-3.1249,-3.0555,-3.0828,-2.9931,-2.9288,-2.9158,-2.9404,-2.9599,-2.9599,-3.0086,-3.0368,-3.0368,-3.0368,-3.0368,-3.0368,-3.0368,-3.0368,-3.0368,-3.0622,-3.0609,-3.0444,-3.0533,-3.0508,-3.0266,-2.9604,-2.9323,-2.9071,-2.7066,-2.6251,-2.6009,-2.3812,-2.3001,-2.2927,-2.2101,-2.1807,-2.1807,-3.381,-3.4358,-3.491,-3.5156,-3.5709,-3.6094,-3.6067,-3.6397,-3.6582,-3.6425,-3.7462,-3.8202,-3.8202,-3.8885,-3.92,-3.8661,-3.8003,-3.736,-3.6731,-3.6552,-3.6252,-3.5744,-3.5579,-3.5439,-3.5294,-3.5439,-3.5504,-3.5504,-3.5504,-3.5504,-3.5504,-3.5504,-3.5504,-3.5504,-3.5504,-3.5504,-3.5504,-3.5504,-3.5504,-3.5504,-3.5504,-3.5504,-3.5504,-3.5504,-3.5504,-3.5504,-3.5504,-3.5504,-3.5504,-3.5504,-3.5504,-3.5504,-3.5504,-3.5504,-3.5504,-3.5504,-3.5504,-3.5504,-3.5504,-3.5504,-3.5504,-3.5504,-3.5504,-3.5504,-3.5504,-3.5504,-3.5504,-3.5504,-3.5504,-3.5504,-3.5504,-3.5504,-3.5504,-3.5504,-3.5385,-3.499,-3.4243,-3.3993,-3.3354,-3.1908,-3.1707,-3.142,-3.0555,-3.0297,-3.016,-3.0085,-3.0188,-3.0176,-3.0176,-3.0152,-3.0228,-3.0368,-3.0075,-3.0011,-3.0152,-3.0011,-3.0075,-3.0368,-3.0444,-3.0444,-3.0368,-3.0305,-2.9986,-2.9377,-2.856,-2.7653,-2.6785,-2.5737,-2.5016,-2.4487,-2.3394,-2.3001,-2.2927,-2.2101,-2.1807,-2.1807,-3.3556,-3.4037,-3.4345,-3.4345,-3.4828,-3.5142,-3.5034,-3.521,-3.5305,-3.5224,-3.6439,-3.7133,-3.6821,-3.7959,-3.8273,-3.7263,-3.6877,-3.6401,-3.5778,-3.5733,-3.557,-3.5228,-3.5213,-3.5148,-3.5082,-3.5148,-3.5294,-3.5359,-3.5359,-3.5439,-3.5504,-3.5504,-3.5504,-3.5504,-3.5504,-3.5504,-3.5504,-3.5504,-3.5504,-3.5504,-3.5504,-3.5504,-3.5504,-3.5504,-3.5504,-3.5504,-3.5504,-3.5504,-3.5504,-3.5504,-3.5504,-3.5504,-3.5504,-3.5504,-3.5504,-3.5504,-3.5504,-3.5504,-3.5504,-3.5504,-3.5504,-3.5504,-3.5504,-3.5504,-3.5504,-3.5504,-3.5504,-3.5504,-3.5504,-3.5504,-3.5504,-3.5504,-3.5504,-3.5504,-3.5504,-3.5198,-3.4245,-3.3876,-3.3185,-3.1928,-3.1516,-3.1084,-3.0432,-3.0292,-3.0292,-3.0292,-3.0292,-3.0216,-3.0152,-3.0011,-3.0011,-3.0075,-2.9934,-2.9869,-2.9934,-2.9869,-2.9934,-3.0075,-3.0228,-3.0075,-2.9656,-2.9656,-2.9277,-2.8659,-2.7866,-2.7213,-2.6588,-2.56,-2.4737,-2.4047,-2.3276,-2.2777,-2.2402,-2.1959,-2.1807,-2.1807,-3.3313,-3.3471,-3.3641,-3.3641,-3.3641,-3.3641,-3.3641,-3.3628,-3.3674,-3.35,-3.4941,-3.5658,-3.5041,-3.6427,-3.6946,-3.5996,-3.5804,-3.5495,-3.4964,-3.4935,-3.4935,-3.4935,-3.4935,-3.4868,-3.4868,-3.4868,-3.4935,-3.5148,-3.5148,-3.5213,-3.5424,-3.5424,-3.5439,-3.5439,-3.5439,-3.5439,-3.5504,-3.5504,-3.5504,-3.5504,-3.5504,-3.5504,-3.5439,-3.5439,-3.5439,-3.5424,-3.5439,-3.5439,-3.5504,-3.5504,-3.5504,-3.5504,-3.5504,-3.5504,-3.5504,-3.5504,-3.5504,-3.5504,-3.5439,-3.5439,-3.5439,-3.5439,-3.5424,-3.5424,-3.5424,-3.5439,-3.5439,-3.5439,-3.5439,-3.5439,-3.5439,-3.5359,-3.5279,-3.5279,-3.5213,-3.4854,-3.3973,-3.3241,-3.255,-3.1869,-3.0872,-3.0292,-3.0368,-3.0228,-3.0088,-3.0075,-3.0075,-3.0011,-2.9792,-2.9792,-2.9792,-2.9792,-2.9792,-2.9792,-2.9792,-2.9691,-2.9641,-2.9641,-2.9681,-2.9441,-2.8925,-2.8975,-2.8621,-2.7934,-2.7338,-2.7005,-2.6881,-2.548,-2.4576,-2.4047,-2.3128,-2.2478,-2.1949,-2.1883,-2.1807,-2.1807,-3.3154,-3.3154,-3.3154,-3.3154,-3.3313,-3.3398,-3.324,-3.3471,-3.3462,-3.2822,-3.3776,-3.4245,-3.3654,-3.4556,-3.5418,-3.5839,-3.5392,-3.5023,-3.4935,-3.4935,-3.4935,-3.4935,-3.4935,-3.4868,-3.4698,-3.4698,-3.4817,-3.4935,-3.4935,-3.4935,-3.5001,-3.5001,-3.5082,-3.5228,-3.5228,-3.5359,-3.5504,-3.5504,-3.5504,-3.5504,-3.5504,-3.5424,-3.5228,-3.5228,-3.5148,-3.5001,-3.5148,-3.5359,-3.5504,-3.5504,-3.5504,-3.5504,-3.5504,-3.5504,-3.5504,-3.5504,-3.5504,-3.5439,-3.5294,-3.5228,-3.5213,-3.5001,-3.5001,-3.5001,-3.5001,-3.5148,-3.5228,-3.5228,-3.5228,-3.5228,-3.5228,-3.4839,-3.4461,-3.4461,-3.3919,-3.3213,-3.229,-3.2146,-3.1723,-3.0508,-3.0075,-3.0011,-3.0368,-3.0088,-2.9934,-3.0075,-2.9934,-2.9869,-2.9792,-2.9792,-2.9792,-2.9792,-2.9792,-2.9792,-2.9792,-2.9289,-2.9051,-2.9038,-2.8561,-2.8536,-2.8913,-2.8436,-2.7908,-2.7394,-2.6577,-2.5985,-2.5479,-2.397,-2.3632,-2.3975,-2.2531,-2.2327,-2.2777,-2.2035,-2.1807,-2.1807,-3.3081,-3.3081,-3.3081,-3.3081,-3.289,-3.2676,-3.2591,-3.2483,-3.2275,-3.1953,-3.2784,-3.3093,-3.2513,-3.3321,-3.4057,-3.435,-3.4545,-3.4601,-3.4601,-3.4601,-3.4601,-3.4601,-3.4601,-3.4616,-3.4549,-3.4549,-3.4549,-3.4601,-3.475,-3.4817,-3.4935,-3.4935,-3.4935,-3.5001,-3.5001,-3.5082,-3.5148,-3.5148,-3.5148,-3.5148,-3.5148,-3.5082,-3.5001,-3.5001,-3.5067,-3.5082,-3.5294,-3.5359,-3.5359,-3.5359,-3.5294,-3.5148,-3.5148,-3.5148,-3.5148,-3.5148,-3.5148,-3.5148,-3.5082,-3.5001,-3.5001,-3.4935,-3.4935,-3.4935,-3.4935,-3.5001,-3.5001,-3.5001,-3.5148,-3.5213,-3.5213,-3.4691,-3.4312,-3.4312,-3.3699,-3.2861,-3.1942,-3.1796,-3.1294,-3.0075,-2.9934,-3.0011,-3.0088,-2.9856,-2.9869,-2.9934,-2.9869,-2.9792,-2.9792,-2.9792,-2.9792,-2.9792,-2.9792,-2.9641,-2.9315,-2.9051,-2.8775,-2.8461,-2.7908,-2.777,-2.7996,-2.7758,-2.7344,-2.6829,-2.6017,-2.5528,-2.5241,-2.4587,-2.4009,-2.3486,-2.3191,-2.2745,-2.2252,-2.1949,-2.1807,-2.1807]}]]